Darstellungsparameter: Aktuell verwendete Einstellungen:
Skalierung der Graphiken ... ?
xyx+y,   Skalierungsfaktor:      Skalierung: Modus: x, Faktor: 1
Darstellungszeitraum ... ?
Vom - - bis: - -   Zeitraum: 25.03.2020 - 24.04.2020
Min/Max/Avg-Anzeige ... ?
Zeige MMA aktuell
Zeige MMA Monat
Zeige MMA alles
Zeige --A aktuell
Zeige --A Monat
Zeige --A alles
Keine MMA-Anzeige
MMA:
Keine MMA-Graphiken
MMA-Basis: 25.03.2020 - 24.04.2020
Quicknavigation für Darstellung... ?
Tage:      1T, 2T, 3T, 5T -1T -2T -3T -5T +1T +2T +3T +5T
Wochen: 1W, 2W, 3W -1W -2W -3W +1W +2W +3W
Monate: 1M, 3M, 6M -1M -3M -6M +1M +3M +6M
Jahre:    1J, 3J, 5J, 10J -1J -3J -5J -10J +1J +3J +5J +10J
Nutze für die Darstellung ... ?
Originaldaten oder Mittelwerte auf ...
Stundenbasis Tagesbasis Wochenbasis
Monatsbasis Jahresbasis      Datenbasis: Original-Daten
Darstellen als:
Statistik (Auto) Statistik J:M      Darstellung:
Zur Graphik,    zurück zur Übersicht aller Sensoren.
 
Tabellarische Datenbersicht: ?
 
Sensor: Nr:Datum:Temp:Feuchte:Taupunkt:
Aussen-T/F 1 25-03-2020 00:00:00 -0.4 C 68 % -5.57 C
2 25-03-2020 00:05:00 -0.4 C 70 % -5.19 C
3 25-03-2020 00:10:00 -0.5 C 70 % -5.29 C
4 25-03-2020 00:15:00 -0.6 C 71 % -5.2 C
5 25-03-2020 00:20:00 -0.7 C 71 % -5.29 C
6 25-03-2020 00:25:00 -0.7 C 71 % -5.29 C
7 25-03-2020 00:30:00 -0.7 C 69 % -5.67 C
8 25-03-2020 00:35:00 -0.7 C 68 % -5.86 C
9 25-03-2020 00:40:00 -0.7 C 69 % -5.67 C
10 25-03-2020 00:45:00 -0.7 C 69 % -5.67 C
11 25-03-2020 00:50:00 -0.7 C 69 % -5.67 C
12 25-03-2020 00:55:00 -0.7 C 69 % -5.67 C
13 25-03-2020 01:00:00 -0.7 C 69 % -5.67 C
14 25-03-2020 01:05:00 -0.8 C 70 % -5.58 C
15 25-03-2020 01:10:00 -0.7 C 70 % -5.48 C
16 25-03-2020 01:15:00 -0.7 C 70 % -5.48 C
17 25-03-2020 01:20:00 -0.7 C 69 % -5.67 C
18 25-03-2020 01:25:00 -0.7 C 68 % -5.86 C
19 25-03-2020 01:30:00 -0.7 C 68 % -5.86 C
20 25-03-2020 01:35:00 -0.7 C 69 % -5.67 C
21 25-03-2020 01:40:00 -0.7 C 68 % -5.86 C
22 25-03-2020 01:45:00 -0.7 C 67 % -6.05 C
23 25-03-2020 01:50:00 -0.7 C 67 % -6.05 C
24 25-03-2020 01:55:00 -0.7 C 67 % -6.05 C
25 25-03-2020 02:00:00 -0.7 C 67 % -6.05 C
Sensor: Nr:Datum:Temp:Feuchte:Taupunkt:
Aussen-T/F 26 25-03-2020 02:05:00 -0.7 C 68 % -5.86 C
27 25-03-2020 02:10:00 -0.8 C 67 % -6.15 C
28 25-03-2020 02:15:00 -0.8 C 67 % -6.15 C
29 25-03-2020 02:20:00 -0.9 C 67 % -6.25 C
30 25-03-2020 02:25:00 -0.9 C 69 % -5.86 C
31 25-03-2020 02:30:00 -1.1 C 68 % -6.24 C
32 25-03-2020 02:35:00 -1.1 C 68 % -6.24 C
33 25-03-2020 02:40:00 -1.1 C 68 % -6.24 C
34 25-03-2020 02:45:00 -1.1 C 68 % -6.24 C
35 25-03-2020 02:50:00 -1 C 68 % -6.15 C
36 25-03-2020 02:55:00 -1 C 67 % -6.34 C
37 25-03-2020 03:00:00 -0.9 C 67 % -6.25 C
38 25-03-2020 03:05:00 -0.9 C 67 % -6.25 C
39 25-03-2020 03:10:00 -0.9 C 67 % -6.25 C
40 25-03-2020 03:15:00 -0.9 C 67 % -6.25 C
41 25-03-2020 03:20:00 -0.9 C 67 % -6.25 C
42 25-03-2020 03:25:00 -1 C 69 % -5.96 C
43 25-03-2020 03:30:00 -1.2 C 69 % -6.15 C
44 25-03-2020 03:35:00 -1.3 C 70 % -6.06 C
45 25-03-2020 03:40:00 -1.4 C 70 % -6.15 C
46 25-03-2020 03:45:00 -1.4 C 70 % -6.15 C
47 25-03-2020 03:50:00 -1.5 C 70 % -6.25 C
48 25-03-2020 03:55:00 -1.6 C 70 % -6.34 C
49 25-03-2020 04:00:00 -1.6 C 71 % -6.16 C
50 25-03-2020 04:05:00 -1.7 C 72 % -6.07 C
Sensor: Nr:Datum:Temp:Feuchte:Taupunkt:
Aussen-T/F 51 25-03-2020 04:10:00 -1.7 C 72 % -6.07 C
52 25-03-2020 04:15:00 -1.8 C 72 % -6.17 C
53 25-03-2020 04:20:00 -1.8 C 73 % -5.99 C
54 25-03-2020 04:25:00 -1.8 C 74 % -5.81 C
55 25-03-2020 04:30:00 -1.9 C 73 % -6.09 C
56 25-03-2020 04:35:00 -2 C 73 % -6.18 C
57 25-03-2020 04:40:00 -2.1 C 72 % -6.46 C
58 25-03-2020 04:45:00 -2.1 C 73 % -6.28 C
59 25-03-2020 04:50:00 -2.2 C 73 % -6.38 C
60 25-03-2020 04:55:00 -2.3 C 73 % -6.47 C
61 25-03-2020 05:00:00 -2.3 C 74 % -6.29 C
62 25-03-2020 05:05:00 -2.3 C 74 % -6.29 C
63 25-03-2020 05:10:00 -2.3 C 74 % -6.29 C
64 25-03-2020 05:15:00 -2.4 C 74 % -6.39 C
65 25-03-2020 05:20:00 -2.4 C 74 % -6.39 C
66 25-03-2020 05:25:00 -2.5 C 74 % -6.49 C
67 25-03-2020 05:30:00 -2.5 C 74 % -6.49 C
68 25-03-2020 05:35:00 -2.5 C 74 % -6.49 C
69 25-03-2020 05:40:00 -2.6 C 74 % -6.58 C
70 25-03-2020 05:45:00 -2.6 C 75 % -6.41 C
71 25-03-2020 05:50:00 -2.7 C 75 % -6.51 C
72 25-03-2020 05:55:00 -2.7 C 76 % -6.33 C
73 25-03-2020 06:00:00 -2.8 C 76 % -6.43 C
74 25-03-2020 06:05:00 -2.9 C 76 % -6.53 C
75 25-03-2020 06:10:00 -2.9 C 77 % -6.36 C
Sensor: Nr:Datum:Temp:Feuchte:Taupunkt:
Aussen-T/F 76 25-03-2020 06:15:00 -2.9 C 77 % -6.36 C
77 25-03-2020 06:20:00 -2.9 C 77 % -6.36 C
78 25-03-2020 06:25:00 -3 C 78 % -6.29 C
79 25-03-2020 06:30:00 -3.1 C 78 % -6.38 C
80 25-03-2020 06:35:00 -3.1 C 78 % -6.38 C
81 25-03-2020 06:40:00 -3.2 C 79 % -6.32 C
82 25-03-2020 06:45:00 -3.2 C 79 % -6.32 C
83 25-03-2020 06:50:00 -3.2 C 78 % -6.48 C
84 25-03-2020 06:55:00 -3.1 C 79 % -6.22 C
85 25-03-2020 07:00:00 -3.1 C 79 % -6.22 C
86 25-03-2020 07:05:00 -3.1 C 79 % -6.22 C
87 25-03-2020 07:10:00 -3.1 C 80 % -6.05 C
88 25-03-2020 07:15:00 -3 C 80 % -5.96 C
89 25-03-2020 07:20:00 -2.9 C 80 % -5.86 C
90 25-03-2020 07:25:00 -2.9 C 80 % -5.86 C
91 25-03-2020 07:30:00 -2.8 C 81 % -5.6 C
92 25-03-2020 07:35:00 -2.8 C 81 % -5.6 C
93 25-03-2020 07:40:00 -2.8 C 81 % -5.6 C
94 25-03-2020 07:45:00 -2.7 C 81 % -5.5 C
95 25-03-2020 07:50:00 -2.6 C 80 % -5.57 C
96 25-03-2020 07:55:00 -2.6 C 79 % -5.73 C
97 25-03-2020 08:00:00 -2.4 C 78 % -5.7 C
98 25-03-2020 08:05:00 -2.4 C 78 % -5.7 C
99 25-03-2020 08:10:00 -2.3 C 77 % -5.78 C
100 25-03-2020 08:15:00 -2.2 C 77 % -5.68 C
Sensor: Nr:Datum:Temp:Feuchte:Taupunkt:
Aussen-T/F 101 25-03-2020 08:20:00 -2.1 C 77 % -5.58 C
102 25-03-2020 08:25:00 -2.1 C 76 % -5.75 C
103 25-03-2020 08:30:00 -1.9 C 75 % -5.73 C
104 25-03-2020 08:35:00 -1.8 C 76 % -5.46 C
105 25-03-2020 08:40:00 -1.8 C 76 % -5.46 C
106 25-03-2020 08:45:00 -1.7 C 75 % -5.54 C
107 25-03-2020 08:50:00 -1.6 C 75 % -5.44 C
108 25-03-2020 08:55:00 -1.4 C 76 % -5.07 C
109 25-03-2020 09:00:00 -1.3 C 75 % -5.15 C
110 25-03-2020 09:05:00 -1.2 C 76 % -4.88 C
111 25-03-2020 09:10:00 -1 C 75 % -4.86 C
112 25-03-2020 09:15:00 -0.9 C 75 % -4.76 C
113 25-03-2020 09:20:00 -0.7 C 74 % -4.75 C
114 25-03-2020 09:25:00 -0.6 C 74 % -4.65 C
115 25-03-2020 09:30:00 -0.3 C 72 % -4.72 C
116 25-03-2020 09:35:00 0.3 C 66 % -5.29 C
117 25-03-2020 09:40:00 0.8 C 64 % -5.22 C
118 25-03-2020 09:45:00 1.5 C 59 % -5.62 C
119 25-03-2020 09:50:00 2.2 C 56 % -5.65 C
120 25-03-2020 09:55:00 2.5 C 58 % -4.91 C
121 25-03-2020 10:00:00 2.8 C 53 % -5.81 C
122 25-03-2020 10:05:00 3.2 C 51 % -5.94 C
123 25-03-2020 10:10:00 3.6 C 53 % -5.07 C
124 25-03-2020 10:15:00 3.7 C 50 % -5.74 C
125 25-03-2020 10:20:00 3.8 C 49 % -5.91 C
Sensor: Nr:Datum:Temp:Feuchte:Taupunkt:
Aussen-T/F 126 25-03-2020 10:25:00 4.1 C 46 % -6.46 C
127 25-03-2020 10:30:00 4.4 C 48 % -5.63 C
128 25-03-2020 10:35:00 4.7 C 44 % -6.49 C
129 25-03-2020 10:40:00 4.8 C 45 % -6.11 C
130 25-03-2020 10:45:00 5 C 43 % -6.52 C
131 25-03-2020 10:50:00 5.1 C 44 % -6.13 C
132 25-03-2020 10:55:00 5.3 C 43 % -6.24 C
133 25-03-2020 11:00:00 5.5 C 40 % -7 C
134 25-03-2020 11:05:00 5.6 C 40 % -6.91 C
135 25-03-2020 11:10:00 5.8 C 39 % -7.06 C
136 25-03-2020 11:15:00 6.1 C 43 % -5.52 C
137 25-03-2020 11:20:00 6.3 C 39 % -6.61 C
138 25-03-2020 11:25:00 6.5 C 39 % -6.43 C
139 25-03-2020 11:30:00 6.7 C 38 % -6.59 C
140 25-03-2020 11:35:00 6.8 C 36 % -7.2 C
141 25-03-2020 11:40:00 6.9 C 36 % -7.11 C
142 25-03-2020 11:45:00 7 C 35 % -7.39 C
143 25-03-2020 11:50:00 7.1 C 35 % -7.3 C
144 25-03-2020 11:55:00 7.3 C 37 % -6.4 C
145 25-03-2020 12:00:00 7.7 C 35 % -6.77 C
146 25-03-2020 12:05:00 7.8 C 33 % -7.44 C
147 25-03-2020 12:10:00 7.9 C 32 % -7.75 C
148 25-03-2020 12:15:00 8.1 C 32 % -7.57 C
149 25-03-2020 12:20:00 8.3 C 30 % -8.23 C
150 25-03-2020 12:25:00 8.4 C 28 % -9.02 C
Sensor: Nr:Datum:Temp:Feuchte:Taupunkt:
Aussen-T/F 151 25-03-2020 12:30:00 8.6 C 30 % -7.97 C
152 25-03-2020 12:35:00 8.5 C 32 % -7.22 C
153 25-03-2020 12:40:00 8.6 C 32 % -7.14 C
154 25-03-2020 12:45:00 8.7 C 33 % -6.65 C
155 25-03-2020 12:50:00 8.9 C 35 % -5.71 C
156 25-03-2020 12:55:00 9 C 30 % -7.62 C
157 25-03-2020 13:00:00 9.1 C 28 % -8.42 C
158 25-03-2020 13:05:00 9.2 C 29 % -7.88 C
159 25-03-2020 13:10:00 9.3 C 30 % -7.36 C
160 25-03-2020 13:15:00 9.6 C 29 % -7.54 C
161 25-03-2020 13:20:00 9.8 C 30 % -6.92 C
162 25-03-2020 13:25:00 10.2 C 28 % -7.47 C
163 25-03-2020 13:30:00 10.1 C 28 % -7.56 C
164 25-03-2020 13:35:00 9.9 C 27 % -8.19 C
165 25-03-2020 13:40:00 9.8 C 27 % -8.28 C
166 25-03-2020 13:45:00 10 C 28 % -7.64 C
167 25-03-2020 13:50:00 10.2 C 26 % -8.42 C
168 25-03-2020 13:55:00 10.1 C 26 % -8.51 C
169 25-03-2020 14:00:00 10 C 26 % -8.59 C
170 25-03-2020 14:05:00 10.1 C 27 % -8.02 C
171 25-03-2020 14:10:00 10 C 25 % -9.09 C
172 25-03-2020 14:15:00 10 C 26 % -8.59 C
173 25-03-2020 14:20:00 10 C 27 % -8.11 C
174 25-03-2020 14:25:00 10.2 C 27 % -7.94 C
175 25-03-2020 14:30:00 10.3 C 28 % -7.38 C
Sensor: Nr:Datum:Temp:Feuchte:Taupunkt:
Aussen-T/F 176 25-03-2020 14:35:00 10.3 C 27 % -7.85 C
177 25-03-2020 14:40:00 10.2 C 27 % -7.94 C
178 25-03-2020 14:45:00 10.1 C 26 % -8.51 C
179 25-03-2020 14:50:00 10.1 C 26 % -8.51 C
180 25-03-2020 14:55:00 10.2 C 26 % -8.42 C
181 25-03-2020 15:00:00 10.3 C 27 % -7.85 C
182 25-03-2020 15:05:00 10.4 C 27 % -7.77 C
183 25-03-2020 15:10:00 10.6 C 29 % -6.67 C
184 25-03-2020 15:15:00 10.6 C 26 % -8.08 C
185 25-03-2020 15:20:00 10.6 C 27 % -7.59 C
186 25-03-2020 15:25:00 10.7 C 27 % -7.51 C
187 25-03-2020 15:30:00 10.7 C 28 % -7.04 C
188 25-03-2020 15:35:00 10.8 C 27 % -7.42 C
189 25-03-2020 15:40:00 11 C 26 % -7.74 C
190 25-03-2020 15:45:00 11.2 C 26 % -7.57 C
191 25-03-2020 15:50:00 11.3 C 25 % -7.98 C
192 25-03-2020 15:55:00 11.4 C 25 % -7.9 C
193 25-03-2020 16:00:00 11.6 C 24 % -8.25 C
194 25-03-2020 16:05:00 11.7 C 24 % -8.17 C
195 25-03-2020 16:10:00 11.8 C 24 % -8.08 C
196 25-03-2020 16:15:00 11.8 C 24 % -8.08 C
197 25-03-2020 16:20:00 12.2 C 24 % -7.75 C
198 25-03-2020 16:25:00 12.4 C 23 % -8.12 C
199 25-03-2020 16:30:00 12.4 C 22 % -8.69 C
200 25-03-2020 16:35:00 12 C 22 % -9.03 C
Sensor: Nr:Datum:Temp:Feuchte:Taupunkt:
Aussen-T/F 201 25-03-2020 16:40:00 11.8 C 22 % -9.19 C
202 25-03-2020 16:45:00 11.9 C 24 % -8 C
203 25-03-2020 16:50:00 12.2 C 23 % -8.29 C
204 25-03-2020 16:55:00 12.6 C 23 % -7.95 C
205 25-03-2020 17:00:00 12.6 C 23 % -7.95 C
206 25-03-2020 17:05:00 12.5 C 22 % -8.61 C
207 25-03-2020 17:10:00 12.3 C 23 % -8.21 C
208 25-03-2020 17:15:00 12.3 C 22 % -8.77 C
209 25-03-2020 17:20:00 12.3 C 23 % -8.21 C
210 25-03-2020 17:25:00 12.2 C 25 % -7.22 C
211 25-03-2020 17:30:00 12.1 C 24 % -7.83 C
212 25-03-2020 17:35:00 11.9 C 23 % -8.54 C
213 25-03-2020 17:40:00 11.7 C 23 % -8.71 C
214 25-03-2020 17:45:00 11.6 C 27 % -6.74 C
215 25-03-2020 17:50:00 11.8 C 25 % -7.56 C
216 25-03-2020 17:55:00 11.8 C 25 % -7.56 C
217 25-03-2020 18:00:00 11.8 C 26 % -7.05 C
218 25-03-2020 18:05:00 11.6 C 25 % -7.73 C
219 25-03-2020 18:10:00 11.4 C 25 % -7.9 C
220 25-03-2020 18:15:00 11.2 C 28 % -6.61 C
221 25-03-2020 18:20:00 10.9 C 31 % -5.54 C
222 25-03-2020 18:25:00 10.8 C 30 % -6.06 C
223 25-03-2020 18:30:00 10.5 C 32 % -5.47 C
224 25-03-2020 18:35:00 10.1 C 35 % -4.65 C
225 25-03-2020 18:40:00 9.6 C 35 % -5.09 C
Sensor: Nr:Datum:Temp:Feuchte:Taupunkt:
Aussen-T/F 226 25-03-2020 18:45:00 9 C 39 % -4.19 C
227 25-03-2020 18:50:00 8.5 C 40 % -4.31 C
228 25-03-2020 18:55:00 8 C 41 % -4.43 C
229 25-03-2020 19:00:00 7.6 C 45 % -3.55 C
230 25-03-2020 19:05:00 7.1 C 44 % -4.31 C
231 25-03-2020 19:10:00 6.7 C 44 % -4.67 C
232 25-03-2020 19:15:00 6.5 C 45 % -4.56 C
233 25-03-2020 19:20:00 6.2 C 48 % -3.98 C
234 25-03-2020 19:25:00 6 C 45 % -5.01 C
235 25-03-2020 19:30:00 6.1 C 42 % -5.83 C
236 25-03-2020 19:35:00 6.2 C 45 % -4.83 C
237 25-03-2020 19:40:00 6.1 C 48 % -4.07 C
238 25-03-2020 19:45:00 5.8 C 49 % -4.07 C
239 25-03-2020 19:50:00 5.5 C 50 % -4.08 C
240 25-03-2020 19:55:00 5.3 C 49 % -4.53 C
241 25-03-2020 20:00:00 5.2 C 50 % -4.35 C
242 25-03-2020 20:05:00 5.1 C 50 % -4.45 C
243 25-03-2020 20:10:00 4.9 C 51 % -4.37 C
244 25-03-2020 20:15:00 4.8 C 52 % -4.2 C
245 25-03-2020 20:20:00 4.6 C 53 % -4.14 C
246 25-03-2020 20:25:00 4.5 C 53 % -4.23 C
247 25-03-2020 20:30:00 4.7 C 50 % -4.82 C
248 25-03-2020 20:35:00 4.8 C 49 % -4.99 C
249 25-03-2020 20:40:00 4.9 C 50 % -4.63 C
250 25-03-2020 20:45:00 4.8 C 49 % -4.99 C
Sensor: Nr:Datum:Temp:Feuchte:Taupunkt:
Aussen-T/F 251 25-03-2020 20:50:00 4.7 C 46 % -5.91 C
252 25-03-2020 20:55:00 4.8 C 53 % -3.95 C
253 25-03-2020 21:00:00 5.1 C 46 % -5.54 C
254 25-03-2020 21:05:00 5.2 C 46 % -5.45 C
255 25-03-2020 21:10:00 5.3 C 47 % -5.08 C
256 25-03-2020 21:15:00 5.4 C 44 % -5.85 C
257 25-03-2020 21:20:00 5.4 C 48 % -4.71 C
258 25-03-2020 21:25:00 5.3 C 45 % -5.65 C
259 25-03-2020 21:30:00 5.3 C 46 % -5.36 C
260 25-03-2020 21:35:00 5.2 C 46 % -5.45 C
261 25-03-2020 21:40:00 5.2 C 49 % -4.62 C
262 25-03-2020 21:45:00 5 C 50 % -4.54 C
263 25-03-2020 21:50:00 4.7 C 51 % -4.55 C
264 25-03-2020 21:55:00 4.5 C 52 % -4.48 C
265 25-03-2020 22:00:00 4.3 C 54 % -4.17 C
266 25-03-2020 22:05:00 4 C 55 % -4.21 C
267 25-03-2020 22:10:00 3.7 C 56 % -4.25 C
268 25-03-2020 22:15:00 3.4 C 56 % -4.53 C
269 25-03-2020 22:20:00 3.3 C 57 % -4.39 C
270 25-03-2020 22:25:00 3.3 C 57 % -4.39 C
271 25-03-2020 22:30:00 3.1 C 57 % -4.57 C
272 25-03-2020 22:35:00 2.9 C 58 % -4.53 C
273 25-03-2020 22:40:00 2.9 C 58 % -4.53 C
274 25-03-2020 22:45:00 2.8 C 60 % -4.18 C
275 25-03-2020 22:50:00 2.7 C 59 % -4.49 C
Sensor: Nr:Datum:Temp:Feuchte:Taupunkt:
Aussen-T/F 276 25-03-2020 22:55:00 2.6 C 61 % -4.15 C
277 25-03-2020 23:00:00 2.5 C 60 % -4.46 C
278 25-03-2020 23:05:00 2.4 C 61 % -4.34 C
279 25-03-2020 23:10:00 2.3 C 62 % -4.21 C
280 25-03-2020 23:15:00 2.2 C 62 % -4.31 C
281 25-03-2020 23:20:00 2.1 C 62 % -4.4 C
282 25-03-2020 23:25:00 2 C 62 % -4.5 C
283 25-03-2020 23:30:00 1.9 C 63 % -4.38 C
284 25-03-2020 23:35:00 1.8 C 63 % -4.48 C
285 25-03-2020 23:40:00 1.8 C 63 % -4.48 C
286 25-03-2020 23:45:00 1.8 C 63 % -4.48 C
287 25-03-2020 23:50:00 1.7 C 63 % -4.57 C
288 25-03-2020 23:55:00 1.7 C 63 % -4.57 C
289 26-03-2020 00:00:00 1.7 C 63 % -4.57 C
290 26-03-2020 00:05:00 1.6 C 64 % -4.46 C
291 26-03-2020 00:10:00 1.6 C 64 % -4.46 C
292 26-03-2020 00:15:00 1.5 C 64 % -4.55 C
293 26-03-2020 00:20:00 1.4 C 64 % -4.65 C
294 26-03-2020 00:25:00 1.3 C 63 % -4.95 C
295 26-03-2020 00:30:00 1.3 C 64 % -4.74 C
296 26-03-2020 00:35:00 1.2 C 65 % -4.63 C
297 26-03-2020 00:40:00 1.1 C 65 % -4.73 C
298 26-03-2020 00:45:00 1.1 C 66 % -4.53 C
299 26-03-2020 00:50:00 1 C 66 % -4.62 C
300 26-03-2020 00:55:00 1.1 C 66 % -4.53 C
Sensor: Nr:Datum:Temp:Feuchte:Taupunkt:
Aussen-T/F 301 26-03-2020 01:00:00 1.1 C 66 % -4.53 C
302 26-03-2020 01:05:00 1 C 65 % -4.82 C
303 26-03-2020 01:10:00 0.9 C 66 % -4.72 C
304 26-03-2020 01:15:00 0.9 C 65 % -4.92 C
305 26-03-2020 01:20:00 0.8 C 66 % -4.81 C
306 26-03-2020 01:25:00 0.8 C 66 % -4.81 C
307 26-03-2020 01:30:00 0.8 C 66 % -4.81 C
308 26-03-2020 01:35:00 0.8 C 65 % -5.01 C
309 26-03-2020 01:40:00 0.9 C 66 % -4.72 C
310 26-03-2020 01:45:00 0.8 C 64 % -5.22 C
311 26-03-2020 01:50:00 0.9 C 65 % -4.92 C
312 26-03-2020 01:55:00 0.8 C 65 % -5.01 C
313 26-03-2020 02:00:00 0.8 C 66 % -4.81 C
314 26-03-2020 02:05:00 0.7 C 65 % -5.11 C
315 26-03-2020 02:10:00 0.7 C 66 % -4.91 C
316 26-03-2020 02:15:00 0.7 C 65 % -5.11 C
317 26-03-2020 02:20:00 0.7 C 65 % -5.11 C
318 26-03-2020 02:25:00 0.7 C 65 % -5.11 C
319 26-03-2020 02:30:00 0.7 C 66 % -4.91 C
320 26-03-2020 02:35:00 0.6 C 65 % -5.2 C
321 26-03-2020 02:40:00 0.6 C 65 % -5.2 C
322 26-03-2020 02:45:00 0.6 C 65 % -5.2 C
323 26-03-2020 02:50:00 0.6 C 65 % -5.2 C
324 26-03-2020 02:55:00 0.6 C 66 % -5 C
325 26-03-2020 03:00:00 0.6 C 66 % -5 C
Sensor: Nr:Datum:Temp:Feuchte:Taupunkt:
Aussen-T/F 326 26-03-2020 03:05:00 0.6 C 66 % -5 C
327 26-03-2020 03:10:00 0.5 C 66 % -5.1 C
328 26-03-2020 03:15:00 0.4 C 65 % -5.39 C
329 26-03-2020 03:20:00 0.5 C 65 % -5.3 C
330 26-03-2020 03:25:00 0.4 C 66 % -5.19 C
331 26-03-2020 03:30:00 0.4 C 66 % -5.19 C
332 26-03-2020 03:35:00 0.3 C 67 % -5.09 C
333 26-03-2020 03:40:00 0.2 C 67 % -5.19 C
334 26-03-2020 03:45:00 0.2 C 67 % -5.19 C
335 26-03-2020 03:50:00 0.1 C 68 % -5.09 C
336 26-03-2020 03:55:00 0.1 C 68 % -5.09 C
337 26-03-2020 04:00:00 0.1 C 68 % -5.09 C
338 26-03-2020 04:05:00 0.1 C 68 % -5.09 C
339 26-03-2020 04:10:00 0.1 C 67 % -5.28 C
340 26-03-2020 04:15:00 0.1 C 68 % -5.09 C
341 26-03-2020 04:20:00 0.1 C 68 % -5.09 C
342 26-03-2020 04:25:00 0.1 C 69 % -4.9 C
343 26-03-2020 04:30:00 0 C 68 % -5.18 C
344 26-03-2020 04:35:00 -0.1 C 69 % -5.09 C
345 26-03-2020 04:40:00 -0.1 C 68 % -5.29 C
346 26-03-2020 04:45:00 0 C 68 % -5.18 C
347 26-03-2020 04:50:00 0.1 C 69 % -4.9 C
348 26-03-2020 04:55:00 0.1 C 69 % -4.9 C
349 26-03-2020 05:00:00 0.1 C 69 % -4.9 C
350 26-03-2020 05:05:00 0 C 69 % -4.99 C
Sensor: Nr:Datum:Temp:Feuchte:Taupunkt:
Aussen-T/F 351 26-03-2020 05:10:00 0.1 C 68 % -5.09 C
352 26-03-2020 05:15:00 0 C 70 % -4.8 C
353 26-03-2020 05:20:00 -0.1 C 70 % -4.9 C
354 26-03-2020 05:25:00 -0.1 C 70 % -4.9 C
355 26-03-2020 05:30:00 -0.2 C 70 % -5 C
356 26-03-2020 05:35:00 -0.2 C 69 % -5.19 C
357 26-03-2020 05:40:00 -0.1 C 69 % -5.09 C
358 26-03-2020 05:45:00 -0.1 C 70 % -4.9 C
359 26-03-2020 05:50:00 -0.1 C 70 % -4.9 C
360 26-03-2020 05:55:00 -0.1 C 70 % -4.9 C
361 26-03-2020 06:00:00 -0.2 C 70 % -5 C
362 26-03-2020 06:05:00 -0.2 C 69 % -5.19 C
363 26-03-2020 06:10:00 -0.2 C 69 % -5.19 C
364 26-03-2020 06:15:00 -0.2 C 70 % -5 C
365 26-03-2020 06:20:00 -0.3 C 70 % -5.1 C
366 26-03-2020 06:25:00 -0.3 C 70 % -5.1 C
367 26-03-2020 06:30:00 -0.3 C 70 % -5.1 C
368 26-03-2020 06:35:00 -0.4 C 71 % -5.01 C
369 26-03-2020 06:40:00 -0.4 C 71 % -5.01 C
370 26-03-2020 06:45:00 -0.4 C 71 % -5.01 C
371 26-03-2020 06:50:00 -0.4 C 71 % -5.01 C
372 26-03-2020 06:55:00 -0.4 C 72 % -4.82 C
373 26-03-2020 07:00:00 -0.4 C 72 % -4.82 C
374 26-03-2020 07:05:00 -0.4 C 71 % -5.01 C
375 26-03-2020 07:10:00 -0.4 C 71 % -5.01 C
Sensor: Nr:Datum:Temp:Feuchte:Taupunkt:
Aussen-T/F 376 26-03-2020 07:15:00 -0.3 C 71 % -4.91 C
377 26-03-2020 07:20:00 -0.2 C 71 % -4.81 C
378 26-03-2020 07:25:00 -0.1 C 70 % -4.9 C
379 26-03-2020 07:30:00 0.1 C 69 % -4.9 C
380 26-03-2020 07:35:00 0.3 C 68 % -4.9 C
381 26-03-2020 07:40:00 0.8 C 66 % -4.81 C
382 26-03-2020 07:45:00 0.9 C 67 % -4.52 C
383 26-03-2020 07:50:00 1 C 63 % -5.23 C
384 26-03-2020 07:55:00 1.3 C 63 % -4.95 C
385 26-03-2020 08:00:00 1.3 C 65 % -4.54 C
386 26-03-2020 08:05:00 1.3 C 63 % -4.95 C
387 26-03-2020 08:10:00 1.3 C 64 % -4.74 C
388 26-03-2020 08:15:00 1.4 C 63 % -4.86 C
389 26-03-2020 08:20:00 1.5 C 65 % -4.35 C
390 26-03-2020 08:25:00 1.6 C 62 % -4.88 C
391 26-03-2020 08:30:00 2 C 59 % -5.15 C
392 26-03-2020 08:35:00 2.2 C 60 % -4.74 C
393 26-03-2020 08:40:00 2.4 C 58 % -5 C
394 26-03-2020 08:45:00 2.6 C 60 % -4.37 C
395 26-03-2020 08:50:00 2.8 C 56 % -5.09 C
396 26-03-2020 08:55:00 3.1 C 55 % -5.05 C
397 26-03-2020 09:00:00 3.2 C 57 % -4.48 C
398 26-03-2020 09:05:00 3.2 C 54 % -5.19 C
399 26-03-2020 09:10:00 3.3 C 58 % -4.16 C
400 26-03-2020 09:15:00 3.4 C 58 % -4.06 C
Sensor: Nr:Datum:Temp:Feuchte:Taupunkt:
Aussen-T/F 401 26-03-2020 09:20:00 3.5 C 56 % -4.43 C
402 26-03-2020 09:25:00 3.6 C 56 % -4.34 C
403 26-03-2020 09:30:00 3.7 C 54 % -4.73 C
404 26-03-2020 09:35:00 3.8 C 52 % -5.13 C
405 26-03-2020 09:40:00 4.1 C 53 % -4.6 C
406 26-03-2020 09:45:00 4.3 C 52 % -4.67 C
407 26-03-2020 09:50:00 4.6 C 50 % -4.91 C
408 26-03-2020 09:55:00 4.8 C 52 % -4.2 C
409 26-03-2020 10:00:00 4.9 C 50 % -4.63 C
410 26-03-2020 10:05:00 5.1 C 50 % -4.45 C
411 26-03-2020 10:10:00 5.2 C 50 % -4.35 C
412 26-03-2020 10:15:00 5.3 C 49 % -4.53 C
413 26-03-2020 10:20:00 5.4 C 50 % -4.17 C
414 26-03-2020 10:25:00 5.4 C 48 % -4.71 C
415 26-03-2020 10:30:00 5.6 C 48 % -4.53 C
416 26-03-2020 10:35:00 5.8 C 48 % -4.34 C
417 26-03-2020 10:40:00 6 C 49 % -3.89 C
418 26-03-2020 10:45:00 6.1 C 47 % -4.35 C
419 26-03-2020 10:50:00 6.3 C 46 % -4.45 C
420 26-03-2020 10:55:00 6.4 C 46 % -4.36 C
421 26-03-2020 11:00:00 6.5 C 46 % -4.27 C
422 26-03-2020 11:05:00 6.6 C 45 % -4.47 C
423 26-03-2020 11:10:00 6.7 C 45 % -4.37 C
424 26-03-2020 11:15:00 6.8 C 45 % -4.28 C
425 26-03-2020 11:20:00 6.9 C 45 % -4.19 C
Sensor: Nr:Datum:Temp:Feuchte:Taupunkt:
Aussen-T/F 426 26-03-2020 11:25:00 7 C 44 % -4.4 C
427 26-03-2020 11:30:00 7.1 C 46 % -3.72 C
428 26-03-2020 11:35:00 7.2 C 44 % -4.22 C
429 26-03-2020 11:40:00 7.3 C 44 % -4.13 C
430 26-03-2020 11:45:00 7.3 C 44 % -4.13 C
431 26-03-2020 11:50:00 7.4 C 44 % -4.04 C
432 26-03-2020 11:55:00 7.6 C 44 % -3.85 C
433 26-03-2020 12:00:00 7.7 C 43 % -4.07 C
434 26-03-2020 12:05:00 7.9 C 43 % -3.89 C
435 26-03-2020 12:10:00 8.2 C 43 % -3.62 C
436 26-03-2020 12:15:00 8.3 C 42 % -3.84 C
437 26-03-2020 12:20:00 8.5 C 42 % -3.66 C
438 26-03-2020 12:25:00 8.7 C 41 % -3.8 C
439 26-03-2020 12:30:00 8.8 C 41 % -3.71 C
440 26-03-2020 12:35:00 8.9 C 40 % -3.95 C
441 26-03-2020 12:40:00 9 C 41 % -3.53 C
442 26-03-2020 12:45:00 9.1 C 40 % -3.77 C
443 26-03-2020 12:50:00 8.9 C 39 % -4.28 C
444 26-03-2020 12:55:00 8.9 C 40 % -3.95 C
445 26-03-2020 13:00:00 9.1 C 40 % -3.77 C
446 26-03-2020 13:05:00 9.2 C 40 % -3.68 C
447 26-03-2020 13:10:00 9.3 C 40 % -3.59 C
448 26-03-2020 13:15:00 9.5 C 40 % -3.41 C
449 26-03-2020 13:20:00 9.7 C 38 % -3.91 C
450 26-03-2020 13:25:00 9.7 C 40 % -3.23 C
Sensor: Nr:Datum:Temp:Feuchte:Taupunkt:
Aussen-T/F 451 26-03-2020 13:30:00 9.7 C 39 % -3.57 C
452 26-03-2020 13:35:00 9.7 C 41 % -2.9 C
453 26-03-2020 13:40:00 10 C 40 % -2.96 C
454 26-03-2020 13:45:00 10.2 C 39 % -3.12 C
455 26-03-2020 13:50:00 10.3 C 38 % -3.38 C
456 26-03-2020 13:55:00 10.3 C 37 % -3.73 C
457 26-03-2020 14:00:00 10.4 C 39 % -2.94 C
458 26-03-2020 14:05:00 10.4 C 39 % -2.94 C
459 26-03-2020 14:10:00 10.3 C 39 % -3.03 C
460 26-03-2020 14:15:00 10.3 C 39 % -3.03 C
461 26-03-2020 14:20:00 10.3 C 40 % -2.69 C
462 26-03-2020 14:25:00 10.5 C 39 % -2.85 C
463 26-03-2020 14:30:00 10.6 C 39 % -2.76 C
464 26-03-2020 14:35:00 10.7 C 38 % -3.02 C
465 26-03-2020 14:40:00 10.8 C 39 % -2.58 C
466 26-03-2020 14:45:00 10.7 C 38 % -3.02 C
467 26-03-2020 14:50:00 10.7 C 39 % -2.67 C
468 26-03-2020 14:55:00 10.8 C 39 % -2.58 C
469 26-03-2020 15:00:00 10.9 C 38 % -2.84 C
470 26-03-2020 15:05:00 10.9 C 38 % -2.84 C
471 26-03-2020 15:10:00 10.9 C 39 % -2.49 C
472 26-03-2020 15:15:00 11 C 40 % -2.06 C
473 26-03-2020 15:20:00 11.2 C 39 % -2.22 C
474 26-03-2020 15:25:00 11.3 C 39 % -2.13 C
475 26-03-2020 15:30:00 11.4 C 38 % -2.39 C
Sensor: Nr:Datum:Temp:Feuchte:Taupunkt:
Aussen-T/F 476 26-03-2020 15:35:00 11.5 C 38 % -2.3 C
477 26-03-2020 15:40:00 11.6 C 38 % -2.22 C
478 26-03-2020 15:45:00 11.7 C 38 % -2.13 C
479 26-03-2020 15:50:00 11.8 C 39 % -1.69 C
480 26-03-2020 15:55:00 11.8 C 38 % -2.04 C
481 26-03-2020 16:00:00 11.9 C 40 % -1.25 C
482 26-03-2020 16:05:00 12.1 C 38 % -1.77 C
483 26-03-2020 16:10:00 12.2 C 40 % -0.98 C
484 26-03-2020 16:15:00 11.9 C 38 % -1.95 C
485 26-03-2020 16:20:00 11.7 C 40 % -1.43 C
486 26-03-2020 16:25:00 11.5 C 41 % -1.28 C
487 26-03-2020 16:30:00 11.4 C 41 % -1.37 C
488 26-03-2020 16:35:00 11.5 C 41 % -1.28 C
489 26-03-2020 16:40:00 11.8 C 39 % -1.69 C
490 26-03-2020 16:45:00 12 C 40 % -1.16 C
491 26-03-2020 16:50:00 12.1 C 41 % -0.74 C
492 26-03-2020 16:55:00 12.2 C 41 % -0.65 C
493 26-03-2020 17:00:00 11.8 C 40 % -1.34 C
494 26-03-2020 17:05:00 11.4 C 41 % -1.37 C
495 26-03-2020 17:10:00 11.4 C 41 % -1.37 C
496 26-03-2020 17:15:00 11.2 C 42 % -1.22 C
497 26-03-2020 17:20:00 11.3 C 42 % -1.13 C
498 26-03-2020 17:25:00 11.2 C 42 % -1.22 C
499 26-03-2020 17:30:00 11.2 C 43 % -0.9 C
500 26-03-2020 17:35:00 11.3 C 44 % -0.49 C
Sensor: Nr:Datum:Temp:Feuchte:Taupunkt:
Aussen-T/F 501 26-03-2020 17:40:00 11.4 C 42 % -1.04 C
502 26-03-2020 17:45:00 11.3 C 44 % -0.49 C
503 26-03-2020 17:50:00 11.2 C 43 % -0.9 C
504 26-03-2020 17:55:00 11 C 43 % -1.08 C
505 26-03-2020 18:00:00 11 C 43 % -1.08 C
506 26-03-2020 18:05:00 11 C 44 % -0.77 C
507 26-03-2020 18:10:00 11 C 44 % -0.77 C
508 26-03-2020 18:15:00 10.9 C 43 % -1.17 C
509 26-03-2020 18:20:00 10.8 C 44 % -0.95 C
510 26-03-2020 18:25:00 10.8 C 45 % -0.64 C
511 26-03-2020 18:30:00 10.6 C 46 % -0.52 C
512 26-03-2020 18:35:00 10.4 C 46 % -0.7 C
513 26-03-2020 18:40:00 10.2 C 46 % -0.89 C
514 26-03-2020 18:45:00 10.1 C 49 % -0.11 C
515 26-03-2020 18:50:00 9.8 C 50 % -0.11 C
516 26-03-2020 18:55:00 9.6 C 52 % 0.24 C
517 26-03-2020 19:00:00 9.2 C 53 % 0.13 C
518 26-03-2020 19:05:00 8.8 C 55 % 0.27 C
519 26-03-2020 19:10:00 8.4 C 56 % 0.15 C
520 26-03-2020 19:15:00 8.2 C 57 % 0.2 C
521 26-03-2020 19:20:00 7.8 C 59 % 0.3 C
522 26-03-2020 19:25:00 7.5 C 60 % 0.25 C
523 26-03-2020 19:30:00 7.2 C 61 % 0.2 C
524 26-03-2020 19:35:00 6.9 C 61 % -0.09 C
525 26-03-2020 19:40:00 6.8 C 61 % -0.18 C
Sensor: Nr:Datum:Temp:Feuchte:Taupunkt:
Aussen-T/F 526 26-03-2020 19:45:00 6.7 C 62 % -0.05 C
527 26-03-2020 19:50:00 6.6 C 63 % 0.07 C
528 26-03-2020 19:55:00 6.4 C 64 % 0.1 C
529 26-03-2020 20:00:00 6.3 C 64 % 0 C
530 26-03-2020 20:05:00 6.2 C 65 % 0.12 C
531 26-03-2020 20:10:00 6.1 C 65 % 0.03 C
532 26-03-2020 20:15:00 5.9 C 65 % -0.16 C
533 26-03-2020 20:20:00 5.8 C 66 % -0.05 C
534 26-03-2020 20:25:00 5.8 C 66 % -0.05 C
535 26-03-2020 20:30:00 5.7 C 67 % 0.06 C
536 26-03-2020 20:35:00 5.6 C 68 % 0.17 C
537 26-03-2020 20:40:00 5.4 C 68 % -0.02 C
538 26-03-2020 20:45:00 5.3 C 68 % -0.12 C
539 26-03-2020 20:50:00 5.2 C 69 % -0.01 C
540 26-03-2020 20:55:00 5.1 C 69 % -0.11 C
541 26-03-2020 21:00:00 5.1 C 69 % -0.11 C
542 26-03-2020 21:05:00 5.1 C 69 % -0.11 C
543 26-03-2020 21:10:00 4.9 C 69 % -0.3 C
544 26-03-2020 21:15:00 4.9 C 70 % -0.1 C
545 26-03-2020 21:20:00 4.8 C 70 % -0.2 C
546 26-03-2020 21:25:00 4.7 C 71 % -0.1 C
547 26-03-2020 21:30:00 4.6 C 71 % -0.19 C
548 26-03-2020 21:35:00 4.5 C 72 % -0.1 C
549 26-03-2020 21:40:00 4.5 C 72 % -0.1 C
550 26-03-2020 21:45:00 4.5 C 72 % -0.1 C
Sensor: Nr:Datum:Temp:Feuchte:Taupunkt:
Aussen-T/F 551 26-03-2020 21:50:00 4.5 C 72 % -0.1 C
552 26-03-2020 21:55:00 4.4 C 73 % 0 C
553 26-03-2020 22:00:00 4.4 C 73 % 0 C
554 26-03-2020 22:05:00 4.4 C 73 % 0 C
555 26-03-2020 22:10:00 4.3 C 73 % -0.1 C
556 26-03-2020 22:15:00 4.3 C 73 % -0.1 C
557 26-03-2020 22:20:00 4.3 C 73 % -0.1 C
558 26-03-2020 22:25:00 4.3 C 73 % -0.1 C
559 26-03-2020 22:30:00 4.3 C 73 % -0.1 C
560 26-03-2020 22:35:00 4.3 C 73 % -0.1 C
561 26-03-2020 22:40:00 4.2 C 73 % -0.2 C
562 26-03-2020 22:45:00 4.2 C 74 % -0.01 C
563 26-03-2020 22:50:00 4.2 C 74 % -0.01 C
564 26-03-2020 22:55:00 4.2 C 74 % -0.01 C
565 26-03-2020 23:00:00 4.2 C 74 % -0.01 C
566 26-03-2020 23:05:00 4.2 C 74 % -0.01 C
567 26-03-2020 23:10:00 4.2 C 74 % -0.01 C
568 26-03-2020 23:15:00 4.1 C 74 % -0.11 C
569 26-03-2020 23:20:00 4.1 C 74 % -0.11 C
570 26-03-2020 23:25:00 4.1 C 74 % -0.11 C
571 26-03-2020 23:30:00 4.1 C 74 % -0.11 C
572 26-03-2020 23:35:00 4 C 74 % -0.2 C
573 26-03-2020 23:40:00 4.1 C 75 % 0.08 C
574 26-03-2020 23:45:00 4 C 75 % -0.02 C
575 26-03-2020 23:50:00 4 C 75 % -0.02 C
Sensor: Nr:Datum:Temp:Feuchte:Taupunkt:
Aussen-T/F 576 26-03-2020 23:55:00 4 C 75 % -0.02 C
577 27-03-2020 00:00:00 4 C 75 % -0.02 C
578 27-03-2020 00:05:00 3.9 C 75 % -0.12 C
579 27-03-2020 00:10:00 3.9 C 75 % -0.12 C
580 27-03-2020 00:15:00 3.8 C 75 % -0.21 C
581 27-03-2020 00:20:00 3.8 C 75 % -0.21 C
582 27-03-2020 00:25:00 3.8 C 76 % -0.03 C
583 27-03-2020 00:30:00 3.8 C 76 % -0.03 C
584 27-03-2020 00:35:00 3.8 C 76 % -0.03 C
585 27-03-2020 00:40:00 3.8 C 76 % -0.03 C
586 27-03-2020 00:45:00 3.8 C 76 % -0.03 C
587 27-03-2020 00:50:00 3.8 C 76 % -0.03 C
588 27-03-2020 00:55:00 3.7 C 77 % 0.05 C
589 27-03-2020 01:00:00 3.7 C 76 % -0.13 C
590 27-03-2020 01:05:00 3.5 C 77 % -0.14 C
591 27-03-2020 01:10:00 3.3 C 77 % -0.34 C
592 27-03-2020 01:15:00 3.2 C 78 % -0.26 C
593 27-03-2020 01:20:00 3.2 C 78 % -0.26 C
594 27-03-2020 01:25:00 3.1 C 79 % -0.18 C
595 27-03-2020 01:30:00 3.1 C 79 % -0.18 C
596 27-03-2020 01:35:00 3.1 C 79 % -0.18 C
597 27-03-2020 01:40:00 3.2 C 79 % -0.08 C
598 27-03-2020 01:45:00 3.2 C 79 % -0.08 C
599 27-03-2020 01:50:00 3.1 C 79 % -0.18 C
600 27-03-2020 01:55:00 3.2 C 79 % -0.08 C
Sensor: Nr:Datum:Temp:Feuchte:Taupunkt:
Aussen-T/F 601 27-03-2020 02:00:00 3.1 C 79 % -0.18 C
602 27-03-2020 02:05:00 3.1 C 79 % -0.18 C
603 27-03-2020 02:10:00 3.1 C 79 % -0.18 C
604 27-03-2020 02:15:00 3 C 79 % -0.28 C
605 27-03-2020 02:20:00 3 C 79 % -0.28 C
606 27-03-2020 02:25:00 3 C 79 % -0.28 C
607 27-03-2020 02:30:00 2.9 C 79 % -0.37 C
608 27-03-2020 02:35:00 2.8 C 80 % -0.3 C
609 27-03-2020 02:40:00 2.8 C 80 % -0.3 C
610 27-03-2020 02:45:00 2.8 C 79 % -0.47 C
611 27-03-2020 02:50:00 2.7 C 79 % -0.57 C
612 27-03-2020 02:55:00 2.7 C 79 % -0.57 C
613 27-03-2020 03:00:00 2.7 C 79 % -0.57 C
614 27-03-2020 03:05:00 2.6 C 80 % -0.49 C
615 27-03-2020 03:10:00 2.6 C 80 % -0.49 C
616 27-03-2020 03:15:00 2.5 C 80 % -0.59 C
617 27-03-2020 03:20:00 2.4 C 80 % -0.69 C
618 27-03-2020 03:25:00 2.4 C 80 % -0.69 C
619 27-03-2020 03:30:00 2.4 C 80 % -0.69 C
620 27-03-2020 03:35:00 2.4 C 80 % -0.69 C
621 27-03-2020 03:40:00 2.3 C 80 % -0.79 C
622 27-03-2020 03:45:00 2.3 C 81 % -0.62 C
623 27-03-2020 03:50:00 2.3 C 81 % -0.62 C
624 27-03-2020 03:55:00 2.3 C 81 % -0.62 C
625 27-03-2020 04:00:00 2.3 C 81 % -0.62 C
Sensor: Nr:Datum:Temp:Feuchte:Taupunkt:
Aussen-T/F 626 27-03-2020 04:05:00 2.3 C 81 % -0.62 C
627 27-03-2020 04:10:00 2.4 C 81 % -0.52 C
628 27-03-2020 04:15:00 2.4 C 81 % -0.52 C
629 27-03-2020 04:20:00 2.3 C 81 % -0.62 C
630 27-03-2020 04:25:00 2.2 C 80 % -0.88 C
631 27-03-2020 04:30:00 2.1 C 81 % -0.81 C
632 27-03-2020 04:35:00 1.9 C 81 % -1.01 C
633 27-03-2020 04:40:00 1.9 C 81 % -1.01 C
634 27-03-2020 04:45:00 1.8 C 82 % -0.94 C
635 27-03-2020 04:50:00 1.8 C 82 % -0.94 C
636 27-03-2020 04:55:00 1.8 C 82 % -0.94 C
637 27-03-2020 05:00:00 1.8 C 82 % -0.94 C
638 27-03-2020 05:05:00 1.7 C 82 % -1.03 C
639 27-03-2020 05:10:00 1.7 C 82 % -1.03 C
640 27-03-2020 05:15:00 1.7 C 82 % -1.03 C
641 27-03-2020 05:20:00 1.6 C 82 % -1.13 C
642 27-03-2020 05:25:00 1.4 C 83 % -1.16 C
643 27-03-2020 05:30:00 1.3 C 83 % -1.26 C
644 27-03-2020 05:35:00 1.2 C 84 % -1.2 C
645 27-03-2020 05:40:00 1.1 C 84 % -1.29 C
646 27-03-2020 05:45:00 1.1 C 84 % -1.29 C
647 27-03-2020 05:50:00 1.1 C 84 % -1.29 C
648 27-03-2020 05:55:00 1 C 84 % -1.39 C
649 27-03-2020 06:00:00 0.9 C 85 % -1.33 C
650 27-03-2020 06:05:00 0.8 C 85 % -1.43 C
Sensor: Nr:Datum:Temp:Feuchte:Taupunkt:
Aussen-T/F 651 27-03-2020 06:10:00 0.8 C 85 % -1.43 C
652 27-03-2020 06:15:00 0.7 C 86 % -1.37 C
653 27-03-2020 06:20:00 0.8 C 86 % -1.27 C
654 27-03-2020 06:25:00 0.8 C 86 % -1.27 C
655 27-03-2020 06:30:00 0.8 C 86 % -1.27 C
656 27-03-2020 06:35:00 0.7 C 86 % -1.37 C
657 27-03-2020 06:40:00 0.7 C 86 % -1.37 C
658 27-03-2020 06:45:00 0.7 C 86 % -1.37 C
659 27-03-2020 06:50:00 0.6 C 86 % -1.46 C
660 27-03-2020 06:55:00 0.6 C 87 % -1.31 C
661 27-03-2020 07:00:00 0.6 C 87 % -1.31 C
662 27-03-2020 07:05:00 0.7 C 87 % -1.21 C
663 27-03-2020 07:10:00 0.7 C 87 % -1.21 C
664 27-03-2020 07:15:00 0.8 C 88 % -0.96 C
665 27-03-2020 07:20:00 0.9 C 88 % -0.86 C
666 27-03-2020 07:25:00 1 C 88 % -0.76 C
667 27-03-2020 07:30:00 1.1 C 88 % -0.66 C
668 27-03-2020 07:35:00 1.1 C 87 % -0.82 C
669 27-03-2020 07:40:00 1.2 C 87 % -0.72 C
670 27-03-2020 07:45:00 1.3 C 87 % -0.62 C
671 27-03-2020 07:50:00 1.4 C 87 % -0.52 C
672 27-03-2020 07:55:00 1.5 C 87 % -0.42 C
673 27-03-2020 08:00:00 1.6 C 87 % -0.32 C
674 27-03-2020 08:05:00 1.7 C 87 % -0.23 C
675 27-03-2020 08:10:00 1.8 C 87 % -0.13 C
Sensor: Nr:Datum:Temp:Feuchte:Taupunkt:
Aussen-T/F 676 27-03-2020 08:15:00 1.9 C 86 % -0.19 C
677 27-03-2020 08:20:00 1.9 C 86 % -0.19 C
678 27-03-2020 08:25:00 2.1 C 86 % 0.01 C
679 27-03-2020 08:30:00 2.2 C 86 % 0.11 C
680 27-03-2020 08:35:00 2.2 C 86 % 0.11 C
681 27-03-2020 08:40:00 2.3 C 86 % 0.21 C
682 27-03-2020 08:45:00 2.3 C 86 % 0.21 C
683 27-03-2020 08:50:00 2.5 C 86 % 0.4 C
684 27-03-2020 08:55:00 2.7 C 85 % 0.44 C
685 27-03-2020 09:00:00 2.9 C 84 % 0.47 C
686 27-03-2020 09:05:00 3.1 C 84 % 0.67 C
687 27-03-2020 09:10:00 3.2 C 83 % 0.6 C
688 27-03-2020 09:15:00 3.4 C 82 % 0.63 C
689 27-03-2020 09:20:00 3.6 C 82 % 0.82 C
690 27-03-2020 09:25:00 3.8 C 81 % 0.85 C
691 27-03-2020 09:30:00 4 C 81 % 1.04 C
692 27-03-2020 09:35:00 4.2 C 80 % 1.07 C
693 27-03-2020 09:40:00 4.3 C 79 % 0.99 C
694 27-03-2020 09:45:00 4.6 C 80 % 1.46 C
695 27-03-2020 09:50:00 4.9 C 79 % 1.57 C
696 27-03-2020 09:55:00 5.2 C 78 % 1.69 C
697 27-03-2020 10:00:00 5.6 C 75 % 1.53 C
698 27-03-2020 10:05:00 6 C 75 % 1.91 C
699 27-03-2020 10:10:00 6.3 C 74 % 2.02 C
700 27-03-2020 10:15:00 6.6 C 71 % 1.73 C
Sensor: Nr:Datum:Temp:Feuchte:Taupunkt:
Aussen-T/F 701 27-03-2020 10:20:00 6.8 C 72 % 2.12 C
702 27-03-2020 10:25:00 7.1 C 67 % 1.4 C
703 27-03-2020 10:30:00 7.3 C 67 % 1.59 C
704 27-03-2020 10:35:00 7.6 C 65 % 1.45 C
705 27-03-2020 10:40:00 7.9 C 63 % 1.3 C
706 27-03-2020 10:45:00 8.3 C 63 % 1.68 C
707 27-03-2020 10:50:00 8.6 C 64 % 2.19 C
708 27-03-2020 10:55:00 8.8 C 61 % 1.71 C
709 27-03-2020 11:00:00 9.2 C 60 % 1.85 C
710 27-03-2020 11:05:00 9.6 C 58 % 1.75 C
711 27-03-2020 11:10:00 9.8 C 57 % 1.7 C
712 27-03-2020 11:15:00 10.2 C 56 % 1.83 C
713 27-03-2020 11:20:00 10.6 C 55 % 1.95 C
714 27-03-2020 11:25:00 10.8 C 53 % 1.62 C
715 27-03-2020 11:30:00 11.1 C 52 % 1.63 C
716 27-03-2020 11:35:00 11.3 C 52 % 1.81 C
717 27-03-2020 11:40:00 11.7 C 51 % 1.91 C
718 27-03-2020 11:45:00 12.1 C 49 % 1.72 C
719 27-03-2020 11:50:00 12.3 C 48 % 1.62 C
720 27-03-2020 11:55:00 12.4 C 47 % 1.42 C
721 27-03-2020 12:00:00 12.7 C 48 % 1.99 C
722 27-03-2020 12:05:00 12.8 C 46 % 1.48 C
723 27-03-2020 12:10:00 13 C 47 % 1.97 C
724 27-03-2020 12:15:00 13.2 C 46 % 1.85 C
725 27-03-2020 12:20:00 13.3 C 46 % 1.94 C
Sensor: Nr:Datum:Temp:Feuchte:Taupunkt:
Aussen-T/F 726 27-03-2020 12:25:00 13.3 C 45 % 1.63 C
727 27-03-2020 12:30:00 13.4 C 46 % 2.03 C
728 27-03-2020 12:35:00 13.6 C 46 % 2.21 C
729 27-03-2020 12:40:00 13.7 C 44 % 1.68 C
730 27-03-2020 12:45:00 13.7 C 44 % 1.68 C
731 27-03-2020 12:50:00 13.8 C 45 % 2.09 C
732 27-03-2020 12:55:00 13.9 C 45 % 2.18 C
733 27-03-2020 13:00:00 14.2 C 45 % 2.45 C
734 27-03-2020 13:05:00 14.3 C 43 % 1.91 C
735 27-03-2020 13:10:00 14.3 C 44 % 2.23 C
736 27-03-2020 13:15:00 14.6 C 44 % 2.5 C
737 27-03-2020 13:20:00 14.7 C 43 % 2.27 C
738 27-03-2020 13:25:00 14.8 C 43 % 2.36 C
739 27-03-2020 13:30:00 14.9 C 44 % 2.77 C
740 27-03-2020 13:35:00 15 C 42 % 2.21 C
741 27-03-2020 13:40:00 15.1 C 43 % 2.63 C
742 27-03-2020 13:45:00 15.1 C 42 % 2.3 C
743 27-03-2020 13:50:00 15.1 C 42 % 2.3 C
744 27-03-2020 13:55:00 15.1 C 44 % 2.95 C
745 27-03-2020 14:00:00 15.3 C 42 % 2.48 C
746 27-03-2020 14:05:00 15.4 C 42 % 2.57 C
747 27-03-2020 14:10:00 15.4 C 42 % 2.57 C
748 27-03-2020 14:15:00 15.4 C 42 % 2.57 C
749 27-03-2020 14:20:00 15.4 C 42 % 2.57 C
750 27-03-2020 14:25:00 15.5 C 42 % 2.66 C
Sensor: Nr:Datum:Temp:Feuchte:Taupunkt:
Aussen-T/F 751 27-03-2020 14:30:00 15.5 C 43 % 2.99 C
752 27-03-2020 14:35:00 15.6 C 42 % 2.75 C
753 27-03-2020 14:40:00 15.4 C 41 % 2.23 C
754 27-03-2020 14:45:00 15.3 C 42 % 2.48 C
755 27-03-2020 14:50:00 15.4 C 42 % 2.57 C
756 27-03-2020 14:55:00 15.5 C 42 % 2.66 C
757 27-03-2020 15:00:00 15.5 C 42 % 2.66 C
758 27-03-2020 15:05:00 15.6 C 43 % 3.08 C
759 27-03-2020 15:10:00 15.8 C 42 % 2.93 C
760 27-03-2020 15:15:00 15.8 C 42 % 2.93 C
761 27-03-2020 15:20:00 15.9 C 41 % 2.68 C
762 27-03-2020 15:25:00 15.8 C 41 % 2.59 C
763 27-03-2020 15:30:00 15.8 C 42 % 2.93 C
764 27-03-2020 15:35:00 16 C 42 % 3.11 C
765 27-03-2020 15:40:00 16.1 C 42 % 3.2 C
766 27-03-2020 15:45:00 16.1 C 41 % 2.86 C
767 27-03-2020 15:50:00 16.1 C 42 % 3.2 C
768 27-03-2020 15:55:00 16.2 C 41 % 2.95 C
769 27-03-2020 16:00:00 16.3 C 41 % 3.04 C
770 27-03-2020 16:05:00 16.3 C 41 % 3.04 C
771 27-03-2020 16:10:00 16.4 C 41 % 3.13 C
772 27-03-2020 16:15:00 16.6 C 40 % 2.96 C
773 27-03-2020 16:20:00 16.7 C 40 % 3.05 C
774 27-03-2020 16:25:00 16.7 C 41 % 3.4 C
775 27-03-2020 16:30:00 16.7 C 41 % 3.4 C
Sensor: Nr:Datum:Temp:Feuchte:Taupunkt:
Aussen-T/F 776 27-03-2020 16:35:00 16.9 C 40 % 3.23 C
777 27-03-2020 16:40:00 17 C 40 % 3.32 C
778 27-03-2020 16:45:00 16.7 C 40 % 3.05 C
779 27-03-2020 16:50:00 16.7 C 40 % 3.05 C
780 27-03-2020 16:55:00 16.8 C 40 % 3.14 C
781 27-03-2020 17:00:00 16.7 C 40 % 3.05 C
782 27-03-2020 17:05:00 16.7 C 40 % 3.05 C
783 27-03-2020 17:10:00 16.6 C 40 % 2.96 C
784 27-03-2020 17:15:00 16.7 C 40 % 3.05 C
785 27-03-2020 17:20:00 16.7 C 40 % 3.05 C
786 27-03-2020 17:25:00 16.5 C 40 % 2.87 C
787 27-03-2020 17:30:00 16.4 C 40 % 2.78 C
788 27-03-2020 17:35:00 16.5 C 41 % 3.22 C
789 27-03-2020 17:40:00 16.5 C 41 % 3.22 C
790 27-03-2020 17:45:00 16.4 C 40 % 2.78 C
791 27-03-2020 17:50:00 16.3 C 41 % 3.04 C
792 27-03-2020 17:55:00 16.3 C 43 % 3.71 C
793 27-03-2020 18:00:00 16.3 C 42 % 3.38 C
794 27-03-2020 18:05:00 16.2 C 43 % 3.62 C
795 27-03-2020 18:10:00 16.1 C 45 % 4.18 C
796 27-03-2020 18:15:00 15.9 C 46 % 4.31 C
797 27-03-2020 18:20:00 15.7 C 47 % 4.43 C
798 27-03-2020 18:25:00 15.3 C 49 % 4.66 C
799 27-03-2020 18:30:00 14.9 C 50 % 4.58 C
800 27-03-2020 18:35:00 14.5 C 52 % 4.77 C
Sensor: Nr:Datum:Temp:Feuchte:Taupunkt:
Aussen-T/F 801 27-03-2020 18:40:00 14.1 C 53 % 4.68 C
802 27-03-2020 18:45:00 13.6 C 54 % 4.48 C
803 27-03-2020 18:50:00 13.2 C 55 % 4.37 C
804 27-03-2020 18:55:00 12.7 C 56 % 4.16 C
805 27-03-2020 19:00:00 12.3 C 57 % 4.04 C
806 27-03-2020 19:05:00 11.9 C 58 % 3.91 C
807 27-03-2020 19:10:00 11.6 C 59 % 3.87 C
808 27-03-2020 19:15:00 11.4 C 60 % 3.92 C
809 27-03-2020 19:20:00 11.2 C 60 % 3.73 C
810 27-03-2020 19:25:00 11.1 C 61 % 3.87 C
811 27-03-2020 19:30:00 10.8 C 61 % 3.59 C
812 27-03-2020 19:35:00 10.7 C 62 % 3.73 C
813 27-03-2020 19:40:00 10.6 C 62 % 3.63 C
814 27-03-2020 19:45:00 10.4 C 63 % 3.67 C
815 27-03-2020 19:50:00 10.3 C 63 % 3.58 C
816 27-03-2020 19:55:00 10.3 C 64 % 3.8 C
817 27-03-2020 20:00:00 10.2 C 64 % 3.7 C
818 27-03-2020 20:05:00 10.1 C 65 % 3.83 C
819 27-03-2020 20:10:00 9.9 C 66 % 3.86 C
820 27-03-2020 20:15:00 9.8 C 66 % 3.76 C
821 27-03-2020 20:20:00 9.6 C 67 % 3.78 C
822 27-03-2020 20:25:00 9.4 C 68 % 3.8 C
823 27-03-2020 20:30:00 9.3 C 68 % 3.71 C
824 27-03-2020 20:35:00 9.2 C 68 % 3.61 C
825 27-03-2020 20:40:00 9.1 C 69 % 3.72 C
Sensor: Nr:Datum:Temp:Feuchte:Taupunkt:
Aussen-T/F 826 27-03-2020 20:45:00 9.1 C 69 % 3.72 C
827 27-03-2020 20:50:00 9 C 70 % 3.83 C
828 27-03-2020 20:55:00 8.9 C 71 % 3.94 C
829 27-03-2020 21:00:00 8.8 C 70 % 3.64 C
830 27-03-2020 21:05:00 8.8 C 71 % 3.84 C
831 27-03-2020 21:10:00 8.7 C 72 % 3.94 C
832 27-03-2020 21:15:00 8.4 C 72 % 3.65 C
833 27-03-2020 21:20:00 8.2 C 73 % 3.66 C
834 27-03-2020 21:25:00 7.9 C 73 % 3.37 C
835 27-03-2020 21:30:00 7.7 C 74 % 3.37 C
836 27-03-2020 21:35:00 7.6 C 73 % 3.08 C
837 27-03-2020 21:40:00 7.4 C 75 % 3.27 C
838 27-03-2020 21:45:00 7.3 C 76 % 3.36 C
839 27-03-2020 21:50:00 7.3 C 76 % 3.36 C
840 27-03-2020 21:55:00 7.2 C 76 % 3.26 C
841 27-03-2020 22:00:00 7.1 C 76 % 3.16 C
842 27-03-2020 22:05:00 7 C 77 % 3.25 C
843 27-03-2020 22:10:00 6.9 C 77 % 3.16 C
844 27-03-2020 22:15:00 6.9 C 77 % 3.16 C
845 27-03-2020 22:20:00 6.8 C 77 % 3.06 C
846 27-03-2020 22:25:00 6.8 C 77 % 3.06 C
847 27-03-2020 22:30:00 6.7 C 77 % 2.96 C
848 27-03-2020 22:35:00 6.6 C 78 % 3.05 C
849 27-03-2020 22:40:00 6.5 C 78 % 2.95 C
850 27-03-2020 22:45:00 6.4 C 78 % 2.85 C
Sensor: Nr:Datum:Temp:Feuchte:Taupunkt:
Aussen-T/F 851 27-03-2020 22:50:00 6.3 C 79 % 2.93 C
852 27-03-2020 22:55:00 6.2 C 80 % 3.01 C
853 27-03-2020 23:00:00 6.1 C 80 % 2.92 C
854 27-03-2020 23:05:00 6.1 C 80 % 2.92 C
855 27-03-2020 23:10:00 6 C 81 % 2.99 C
856 27-03-2020 23:15:00 6.1 C 81 % 3.09 C
857 27-03-2020 23:20:00 6 C 81 % 2.99 C
858 27-03-2020 23:25:00 6 C 81 % 2.99 C
859 27-03-2020 23:30:00 6 C 81 % 2.99 C
860 27-03-2020 23:35:00 6 C 80 % 2.82 C
861 27-03-2020 23:40:00 5.9 C 80 % 2.72 C
862 27-03-2020 23:45:00 5.9 C 80 % 2.72 C
863 27-03-2020 23:50:00 5.8 C 81 % 2.8 C
864 27-03-2020 23:55:00 5.8 C 81 % 2.8 C
865 28-03-2020 00:00:00 5.8 C 81 % 2.8 C
866 28-03-2020 00:05:00 5.7 C 82 % 2.87 C
867 28-03-2020 00:10:00 5.7 C 82 % 2.87 C
868 28-03-2020 00:15:00 5.6 C 82 % 2.78 C
869 28-03-2020 00:20:00 5.6 C 83 % 2.95 C
870 28-03-2020 00:25:00 5.6 C 83 % 2.95 C
871 28-03-2020 00:30:00 5.6 C 83 % 2.95 C
872 28-03-2020 00:35:00 5.7 C 83 % 3.04 C
873 28-03-2020 00:40:00 5.7 C 82 % 2.87 C
874 28-03-2020 00:45:00 5.7 C 82 % 2.87 C
875 28-03-2020 00:50:00 5.7 C 82 % 2.87 C
Sensor: Nr:Datum:Temp:Feuchte:Taupunkt:
Aussen-T/F 876 28-03-2020 00:55:00 5.6 C 82 % 2.78 C
877 28-03-2020 01:00:00 5.6 C 82 % 2.78 C
878 28-03-2020 01:05:00 5.4 C 82 % 2.58 C
879 28-03-2020 01:10:00 5.4 C 83 % 2.75 C
880 28-03-2020 01:15:00 5.3 C 83 % 2.65 C
881 28-03-2020 01:20:00 5.2 C 83 % 2.56 C
882 28-03-2020 01:25:00 5.1 C 83 % 2.46 C
883 28-03-2020 01:30:00 5 C 84 % 2.53 C
884 28-03-2020 01:35:00 4.9 C 84 % 2.43 C
885 28-03-2020 01:40:00 4.8 C 84 % 2.33 C
886 28-03-2020 01:45:00 4.8 C 84 % 2.33 C
887 28-03-2020 01:50:00 4.7 C 85 % 2.4 C
888 28-03-2020 01:55:00 4.7 C 85 % 2.4 C
889 28-03-2020 02:00:00 4.6 C 85 % 2.3 C
890 28-03-2020 02:05:00 4.5 C 85 % 2.2 C
891 28-03-2020 02:10:00 4.4 C 85 % 2.11 C
892 28-03-2020 02:15:00 4.3 C 85 % 2.01 C
893 28-03-2020 02:20:00 4.3 C 86 % 2.17 C
894 28-03-2020 02:25:00 4.3 C 86 % 2.17 C
895 28-03-2020 02:30:00 4.2 C 87 % 2.23 C
896 28-03-2020 02:35:00 4.3 C 87 % 2.33 C
897 28-03-2020 02:40:00 4.3 C 87 % 2.33 C
898 28-03-2020 02:45:00 4.3 C 87 % 2.33 C
899 28-03-2020 02:50:00 4.3 C 87 % 2.33 C
900 28-03-2020 02:55:00 4.3 C 86 % 2.17 C
Sensor: Nr:Datum:Temp:Feuchte:Taupunkt:
Aussen-T/F 901 28-03-2020 03:00:00 4.2 C 86 % 2.07 C
902 28-03-2020 03:05:00 4.2 C 87 % 2.23 C
903 28-03-2020 03:10:00 4.1 C 87 % 2.14 C
904 28-03-2020 03:15:00 4.1 C 87 % 2.14 C
905 28-03-2020 03:20:00 3.9 C 87 % 1.94 C
906 28-03-2020 03:25:00 3.9 C 87 % 1.94 C
907 28-03-2020 03:30:00 3.8 C 87 % 1.84 C
908 28-03-2020 03:35:00 3.7 C 87 % 1.74 C
909 28-03-2020 03:40:00 3.5 C 87 % 1.55 C
910 28-03-2020 03:45:00 3.3 C 87 % 1.35 C
911 28-03-2020 03:50:00 3.2 C 88 % 1.41 C
912 28-03-2020 03:55:00 3.1 C 88 % 1.31 C
913 28-03-2020 04:00:00 3 C 88 % 1.21 C
914 28-03-2020 04:05:00 2.9 C 89 % 1.27 C
915 28-03-2020 04:10:00 3 C 89 % 1.37 C
916 28-03-2020 04:15:00 3 C 89 % 1.37 C
917 28-03-2020 04:20:00 2.9 C 89 % 1.27 C
918 28-03-2020 04:25:00 2.8 C 89 % 1.17 C
919 28-03-2020 04:30:00 2.7 C 89 % 1.07 C
920 28-03-2020 04:35:00 2.7 C 89 % 1.07 C
921 28-03-2020 04:40:00 2.6 C 90 % 1.13 C
922 28-03-2020 04:45:00 2.5 C 90 % 1.03 C
923 28-03-2020 04:50:00 2.6 C 90 % 1.13 C
924 28-03-2020 04:55:00 2.6 C 91 % 1.28 C
925 28-03-2020 05:00:00 2.7 C 91 % 1.38 C
Sensor: Nr:Datum:Temp:Feuchte:Taupunkt:
Aussen-T/F 926 28-03-2020 05:05:00 2.6 C 91 % 1.28 C
927 28-03-2020 05:10:00 2.6 C 91 % 1.28 C
928 28-03-2020 05:15:00 2.6 C 91 % 1.28 C
929 28-03-2020 05:20:00 2.4 C 90 % 0.93 C
930 28-03-2020 05:25:00 2.3 C 90 % 0.83 C
931 28-03-2020 05:30:00 2.2 C 90 % 0.73 C
932 28-03-2020 05:35:00 2.1 C 91 % 0.79 C
933 28-03-2020 05:40:00 2.1 C 91 % 0.79 C
934 28-03-2020 05:45:00 2 C 91 % 0.69 C
935 28-03-2020 05:50:00 2.1 C 91 % 0.79 C
936 28-03-2020 05:55:00 2.1 C 92 % 0.94 C
937 28-03-2020 06:00:00 2.1 C 92 % 0.94 C
938 28-03-2020 06:05:00 2 C 92 % 0.84 C
939 28-03-2020 06:10:00 1.9 C 91 % 0.59 C
940 28-03-2020 06:15:00 1.9 C 92 % 0.74 C
941 28-03-2020 06:20:00 1.9 C 92 % 0.74 C
942 28-03-2020 06:25:00 1.8 C 92 % 0.64 C
943 28-03-2020 06:30:00 1.8 C 92 % 0.64 C
944 28-03-2020 06:35:00 1.8 C 92 % 0.64 C
945 28-03-2020 06:40:00 1.8 C 92 % 0.64 C
946 28-03-2020 06:45:00 1.8 C 92 % 0.64 C
947 28-03-2020 06:50:00 1.8 C 92 % 0.64 C
948 28-03-2020 06:55:00 1.8 C 93 % 0.79 C
949 28-03-2020 07:00:00 1.9 C 93 % 0.89 C
950 28-03-2020 07:05:00 2 C 93 % 0.99 C
Sensor: Nr:Datum:Temp:Feuchte:Taupunkt:
Aussen-T/F 951 28-03-2020 07:10:00 2.1 C 93 % 1.09 C
952 28-03-2020 07:15:00 2.3 C 94 % 1.44 C
953 28-03-2020 07:20:00 2.4 C 93 % 1.39 C
954 28-03-2020 07:25:00 2.5 C 93 % 1.49 C
955 28-03-2020 07:30:00 2.6 C 93 % 1.59 C
956 28-03-2020 07:35:00 2.6 C 93 % 1.59 C
957 28-03-2020 07:40:00 2.6 C 93 % 1.59 C
958 28-03-2020 07:45:00 2.6 C 93 % 1.59 C
959 28-03-2020 07:50:00 2.7 C 93 % 1.68 C
960 28-03-2020 07:55:00 2.7 C 93 % 1.68 C
961 28-03-2020 08:00:00 2.8 C 93 % 1.78 C
962 28-03-2020 08:05:00 2.8 C 93 % 1.78 C
963 28-03-2020 08:10:00 2.9 C 93 % 1.88 C
964 28-03-2020 08:15:00 3 C 93 % 1.98 C
965 28-03-2020 08:20:00 3.2 C 93 % 2.18 C
966 28-03-2020 08:25:00 3.3 C 93 % 2.28 C
967 28-03-2020 08:30:00 3.4 C 93 % 2.38 C
968 28-03-2020 08:35:00 3.6 C 93 % 2.58 C
969 28-03-2020 08:40:00 3.7 C 93 % 2.68 C
970 28-03-2020 08:45:00 3.9 C 93 % 2.87 C
971 28-03-2020 08:50:00 4.1 C 93 % 3.07 C
972 28-03-2020 08:55:00 4.2 C 93 % 3.17 C
973 28-03-2020 09:00:00 4.5 C 93 % 3.47 C
974 28-03-2020 09:05:00 4.7 C 93 % 3.67 C
975 28-03-2020 09:10:00 5 C 93 % 3.96 C
Sensor: Nr:Datum:Temp:Feuchte:Taupunkt:
Aussen-T/F 976 28-03-2020 09:15:00 5.3 C 93 % 4.26 C
977 28-03-2020 09:20:00 5.6 C 92 % 4.41 C
978 28-03-2020 09:25:00 5.8 C 92 % 4.6 C
979 28-03-2020 09:30:00 6.2 C 91 % 4.84 C
980 28-03-2020 09:35:00 6.4 C 90 % 4.88 C
981 28-03-2020 09:40:00 6.8 C 89 % 5.12 C
982 28-03-2020 09:45:00 7.1 C 88 % 5.25 C
983 28-03-2020 09:50:00 7.4 C 86 % 5.22 C
984 28-03-2020 09:55:00 7.8 C 85 % 5.44 C
985 28-03-2020 10:00:00 8.2 C 83 % 5.49 C
986 28-03-2020 10:05:00 8.6 C 81 % 5.53 C
987 28-03-2020 10:10:00 8.9 C 79 % 5.46 C
988 28-03-2020 10:15:00 9.2 C 78 % 5.57 C
989 28-03-2020 10:20:00 9.4 C 75 % 5.2 C
990 28-03-2020 10:25:00 9.8 C 74 % 5.39 C
991 28-03-2020 10:30:00 10.1 C 73 % 5.49 C
992 28-03-2020 10:35:00 10.3 C 72 % 5.48 C
993 28-03-2020 10:40:00 10.6 C 70 % 5.36 C
994 28-03-2020 10:45:00 10.8 C 69 % 5.35 C
995 28-03-2020 10:50:00 11.1 C 69 % 5.64 C
996 28-03-2020 10:55:00 11.3 C 69 % 5.83 C
997 28-03-2020 11:00:00 11.7 C 68 % 6 C
998 28-03-2020 11:05:00 12.1 C 66 % 5.95 C
999 28-03-2020 11:10:00 12.3 C 62 % 5.24 C
1000 28-03-2020 11:15:00 12.7 C 64 % 6.07 C
Sensor: Nr:Datum:Temp:Feuchte:Taupunkt:
Aussen-T/F 1001 28-03-2020 11:20:00 13.1 C 62 % 5.99 C
1002 28-03-2020 11:25:00 13.3 C 60 % 5.71 C
1003 28-03-2020 11:30:00 13.6 C 59 % 5.75 C
1004 28-03-2020 11:35:00 13.8 C 58 % 5.69 C
1005 28-03-2020 11:40:00 14.2 C 56 % 5.56 C
1006 28-03-2020 11:45:00 14.4 C 56 % 5.74 C
1007 28-03-2020 11:50:00 14.6 C 55 % 5.67 C
1008 28-03-2020 11:55:00 14.8 C 53 % 5.32 C
1009 28-03-2020 12:00:00 14.9 C 54 % 5.69 C
1010 28-03-2020 12:05:00 15.2 C 52 % 5.42 C
1011 28-03-2020 12:10:00 15.3 C 52 % 5.51 C
1012 28-03-2020 12:15:00 15.6 C 50 % 5.23 C
1013 28-03-2020 12:20:00 15.8 C 49 % 5.12 C
1014 28-03-2020 12:25:00 16.1 C 48 % 5.1 C
1015 28-03-2020 12:30:00 16.2 C 48 % 5.19 C
1016 28-03-2020 12:35:00 16.4 C 49 % 5.67 C
1017 28-03-2020 12:40:00 16.5 C 49 % 5.76 C
1018 28-03-2020 12:45:00 16.7 C 47 % 5.34 C
1019 28-03-2020 12:50:00 16.8 C 47 % 5.44 C
1020 28-03-2020 12:55:00 16.9 C 47 % 5.53 C
1021 28-03-2020 13:00:00 17 C 45 % 4.99 C
1022 28-03-2020 13:05:00 17.2 C 44 % 4.85 C
1023 28-03-2020 13:10:00 17.2 C 43 % 4.53 C
1024 28-03-2020 13:15:00 17.3 C 45 % 5.27 C
1025 28-03-2020 13:20:00 17.5 C 44 % 5.13 C
Sensor: Nr:Datum:Temp:Feuchte:Taupunkt:
Aussen-T/F 1026 28-03-2020 13:25:00 17.7 C 43 % 4.98 C
1027 28-03-2020 13:30:00 17.8 C 44 % 5.4 C
1028 28-03-2020 13:35:00 17.9 C 43 % 5.16 C
1029 28-03-2020 13:40:00 18 C 43 % 5.25 C
1030 28-03-2020 13:45:00 18.1 C 43 % 5.34 C
1031 28-03-2020 13:50:00 18.2 C 44 % 5.76 C
1032 28-03-2020 13:55:00 18.1 C 44 % 5.67 C
1033 28-03-2020 14:00:00 18.1 C 44 % 5.67 C
1034 28-03-2020 14:05:00 18.2 C 44 % 5.76 C
1035 28-03-2020 14:10:00 18.2 C 42 % 5.09 C
1036 28-03-2020 14:15:00 18.2 C 42 % 5.09 C
1037 28-03-2020 14:20:00 18.2 C 43 % 5.43 C
1038 28-03-2020 14:25:00 18.2 C 43 % 5.43 C
1039 28-03-2020 14:30:00 18.2 C 43 % 5.43 C
1040 28-03-2020 14:35:00 18.3 C 43 % 5.52 C
1041 28-03-2020 14:40:00 18.3 C 42 % 5.18 C
1042 28-03-2020 14:45:00 18.3 C 43 % 5.52 C
1043 28-03-2020 14:50:00 18.4 C 41 % 4.92 C
1044 28-03-2020 14:55:00 18.4 C 41 % 4.92 C
1045 28-03-2020 15:00:00 18.4 C 40 % 4.57 C
1046 28-03-2020 15:05:00 18.6 C 39 % 4.39 C
1047 28-03-2020 15:10:00 18.5 C 37 % 3.55 C
1048 28-03-2020 15:15:00 18.4 C 37 % 3.46 C
1049 28-03-2020 15:20:00 18.2 C 40 % 4.39 C
1050 28-03-2020 15:25:00 18 C 42 % 4.91 C
Sensor: Nr:Datum:Temp:Feuchte:Taupunkt:
Aussen-T/F 1051 28-03-2020 15:30:00 18.1 C 40 % 4.3 C
1052 28-03-2020 15:35:00 18.1 C 42 % 5 C
1053 28-03-2020 15:40:00 18.3 C 42 % 5.18 C
1054 28-03-2020 15:45:00 18.5 C 40 % 4.66 C
1055 28-03-2020 15:50:00 18.4 C 41 % 4.92 C
1056 28-03-2020 15:55:00 18.4 C 42 % 5.27 C
1057 28-03-2020 16:00:00 18.3 C 41 % 4.83 C
1058 28-03-2020 16:05:00 18.2 C 41 % 4.75 C
1059 28-03-2020 16:10:00 18.3 C 40 % 4.48 C
1060 28-03-2020 16:15:00 18.4 C 40 % 4.57 C
1061 28-03-2020 16:20:00 18.3 C 39 % 4.12 C
1062 28-03-2020 16:25:00 18.2 C 38 % 3.66 C
1063 28-03-2020 16:30:00 18.1 C 38 % 3.57 C
1064 28-03-2020 16:35:00 17.9 C 37 % 3.02 C
1065 28-03-2020 16:40:00 17.8 C 38 % 3.31 C
1066 28-03-2020 16:45:00 17.8 C 36 % 2.55 C
1067 28-03-2020 16:50:00 17.7 C 36 % 2.46 C
1068 28-03-2020 16:55:00 17.6 C 36 % 2.37 C
1069 28-03-2020 17:00:00 17.6 C 36 % 2.37 C
1070 28-03-2020 17:05:00 17.5 C 35 % 1.89 C
1071 28-03-2020 17:10:00 17.4 C 35 % 1.8 C
1072 28-03-2020 17:15:00 17.3 C 35 % 1.71 C
1073 28-03-2020 17:20:00 17 C 35 % 1.45 C
1074 28-03-2020 17:25:00 16.9 C 35 % 1.36 C
1075 28-03-2020 17:30:00 16.8 C 35 % 1.27 C
Sensor: Nr:Datum:Temp:Feuchte:Taupunkt:
Aussen-T/F 1076 28-03-2020 17:35:00 16.6 C 35 % 1.09 C
1077 28-03-2020 17:40:00 16.4 C 35 % 0.92 C
1078 28-03-2020 17:45:00 16.3 C 36 % 1.22 C
1079 28-03-2020 17:50:00 16.2 C 36 % 1.13 C
1080 28-03-2020 17:55:00 15.9 C 35 % 0.48 C
1081 28-03-2020 18:00:00 15.7 C 36 % 0.69 C
1082 28-03-2020 18:05:00 15.5 C 37 % 0.89 C
1083 28-03-2020 18:10:00 15.3 C 36 % 0.34 C
1084 28-03-2020 18:15:00 15.1 C 38 % 0.9 C
1085 28-03-2020 18:20:00 14.9 C 39 % 1.09 C
1086 28-03-2020 18:25:00 14.7 C 40 % 1.26 C
1087 28-03-2020 18:30:00 14.4 C 41 % 1.33 C
1088 28-03-2020 18:35:00 14.2 C 41 % 1.15 C
1089 28-03-2020 18:40:00 13.9 C 42 % 1.22 C
1090 28-03-2020 18:45:00 13.7 C 42 % 1.04 C
1091 28-03-2020 18:50:00 13.6 C 43 % 1.27 C
1092 28-03-2020 18:55:00 13.3 C 44 % 1.32 C
1093 28-03-2020 19:00:00 13.2 C 44 % 1.23 C
1094 28-03-2020 19:05:00 13 C 45 % 1.36 C
1095 28-03-2020 19:10:00 12.8 C 46 % 1.48 C
1096 28-03-2020 19:15:00 12.7 C 46 % 1.39 C
1097 28-03-2020 19:20:00 12.5 C 46 % 1.21 C
1098 28-03-2020 19:25:00 12.4 C 47 % 1.42 C
1099 28-03-2020 19:30:00 12.2 C 47 % 1.24 C
1100 28-03-2020 19:35:00 12.1 C 48 % 1.44 C
Sensor: Nr:Datum:Temp:Feuchte:Taupunkt:
Aussen-T/F 1101 28-03-2020 19:40:00 12 C 47 % 1.05 C
1102 28-03-2020 19:45:00 11.9 C 47 % 0.96 C
1103 28-03-2020 19:50:00 11.8 C 48 % 1.16 C
1104 28-03-2020 19:55:00 11.7 C 48 % 1.07 C
1105 28-03-2020 20:00:00 11.6 C 49 % 1.26 C
1106 28-03-2020 20:05:00 11.4 C 49 % 1.08 C
1107 28-03-2020 20:10:00 11.4 C 49 % 1.08 C
1108 28-03-2020 20:15:00 11.3 C 50 % 1.27 C
1109 28-03-2020 20:20:00 11.2 C 50 % 1.18 C
1110 28-03-2020 20:25:00 11.2 C 51 % 1.45 C
1111 28-03-2020 20:30:00 11.1 C 51 % 1.36 C
1112 28-03-2020 20:35:00 10.9 C 52 % 1.44 C
1113 28-03-2020 20:40:00 10.7 C 53 % 1.52 C
1114 28-03-2020 20:45:00 10.4 C 54 % 1.51 C
1115 28-03-2020 20:50:00 10.2 C 55 % 1.58 C
1116 28-03-2020 20:55:00 9.9 C 56 % 1.55 C
1117 28-03-2020 21:00:00 9.8 C 57 % 1.7 C
1118 28-03-2020 21:05:00 9.8 C 56 % 1.45 C
1119 28-03-2020 21:10:00 9.8 C 57 % 1.7 C
1120 28-03-2020 21:15:00 9.8 C 57 % 1.7 C
1121 28-03-2020 21:20:00 9.8 C 58 % 1.94 C
1122 28-03-2020 21:25:00 9.6 C 58 % 1.75 C
1123 28-03-2020 21:30:00 9.3 C 58 % 1.47 C
1124 28-03-2020 21:35:00 9.2 C 59 % 1.62 C
1125 28-03-2020 21:40:00 9.2 C 59 % 1.62 C
Sensor: Nr:Datum:Temp:Feuchte:Taupunkt:
Aussen-T/F 1126 28-03-2020 21:45:00 9.1 C 60 % 1.76 C
1127 28-03-2020 21:50:00 8.8 C 60 % 1.48 C
1128 28-03-2020 21:55:00 8.7 C 60 % 1.38 C
1129 28-03-2020 22:00:00 8.9 C 60 % 1.57 C
1130 28-03-2020 22:05:00 9.1 C 59 % 1.52 C
1131 28-03-2020 22:10:00 9.2 C 58 % 1.38 C
1132 28-03-2020 22:15:00 9.2 C 59 % 1.62 C
1133 28-03-2020 22:20:00 9.3 C 59 % 1.71 C
1134 28-03-2020 22:25:00 9.2 C 61 % 2.08 C
1135 28-03-2020 22:30:00 9.2 C 63 % 2.53 C
1136 28-03-2020 22:35:00 9.1 C 63 % 2.44 C
1137 28-03-2020 22:40:00 9 C 63 % 2.35 C
1138 28-03-2020 22:45:00 8.9 C 64 % 2.47 C
1139 28-03-2020 22:50:00 8.7 C 65 % 2.5 C
1140 28-03-2020 22:55:00 8.6 C 66 % 2.62 C
1141 28-03-2020 23:00:00 8.4 C 67 % 2.64 C
1142 28-03-2020 23:05:00 8.4 C 68 % 2.85 C
1143 28-03-2020 23:10:00 8.3 C 68 % 2.75 C
1144 28-03-2020 23:15:00 8.3 C 69 % 2.96 C
1145 28-03-2020 23:20:00 8.2 C 70 % 3.06 C
1146 28-03-2020 23:25:00 8.1 C 71 % 3.17 C
1147 28-03-2020 23:30:00 8.1 C 71 % 3.17 C
1148 28-03-2020 23:35:00 7.9 C 71 % 2.98 C
1149 28-03-2020 23:40:00 7.8 C 72 % 3.08 C
1150 28-03-2020 23:45:00 7.7 C 72 % 2.98 C
Sensor: Nr:Datum:Temp:Feuchte:Taupunkt:
Aussen-T/F 1151 28-03-2020 23:50:00 7.7 C 73 % 3.18 C
1152 28-03-2020 23:55:00 7.6 C 73 % 3.08 C
1153 29-03-2020 00:00:00 7.4 C 73 % 2.89 C
1154 29-03-2020 00:05:00 7.3 C 74 % 2.98 C
1155 29-03-2020 00:10:00 7.2 C 74 % 2.89 C
1156 29-03-2020 00:15:00 7.2 C 74 % 2.89 C
1157 29-03-2020 00:20:00 7.1 C 74 % 2.79 C
1158 29-03-2020 00:25:00 7.1 C 74 % 2.79 C
1159 29-03-2020 00:30:00 7.1 C 74 % 2.79 C
1160 29-03-2020 00:35:00 7.1 C 74 % 2.79 C
1161 29-03-2020 00:40:00 7.1 C 74 % 2.79 C
1162 29-03-2020 00:45:00 7.1 C 74 % 2.79 C
1163 29-03-2020 00:50:00 7 C 73 % 2.5 C
1164 29-03-2020 00:55:00 7 C 73 % 2.5 C
1165 29-03-2020 01:00:00 6.9 C 73 % 2.4 C
1166 29-03-2020 01:05:00 6.8 C 73 % 2.31 C
1167 29-03-2020 01:10:00 6.8 C 73 % 2.31 C
1168 29-03-2020 01:15:00 6.7 C 73 % 2.21 C
1169 29-03-2020 01:20:00 6.7 C 73 % 2.21 C
1170 29-03-2020 01:25:00 6.6 C 72 % 1.92 C
1171 29-03-2020 01:30:00 6.6 C 72 % 1.92 C
1172 29-03-2020 01:35:00 6.5 C 72 % 1.83 C
1173 29-03-2020 01:40:00 6.4 C 72 % 1.73 C
1174 29-03-2020 01:45:00 6.4 C 71 % 1.54 C
1175 29-03-2020 01:50:00 6.4 C 71 % 1.54 C
Sensor: Nr:Datum:Temp:Feuchte:Taupunkt:
Aussen-T/F 1176 29-03-2020 01:55:00 6.3 C 70 % 1.24 C
1177 29-03-2020 02:00:00 6.3 C 70 % 1.24 C
1178 29-03-2020 02:05:00 6.2 C 70 % 1.15 C
1179 29-03-2020 02:10:00 6.2 C 69 % 0.95 C
1180 29-03-2020 02:15:00 6.1 C 70 % 1.05 C
1181 29-03-2020 02:20:00 5.9 C 70 % 0.86 C
1182 29-03-2020 02:25:00 5.8 C 70 % 0.76 C
1183 29-03-2020 02:30:00 5.7 C 71 % 0.86 C
1184 29-03-2020 02:35:00 5.6 C 71 % 0.77 C
1185 29-03-2020 02:40:00 5.4 C 72 % 0.77 C
1186 29-03-2020 02:45:00 5.3 C 72 % 0.67 C
1187 29-03-2020 02:50:00 5.2 C 71 % 0.38 C
1188 29-03-2020 02:55:00 5.2 C 70 % 0.19 C
1189 29-03-2020 04:00:00 5.2 C 70 % 0.19 C
1190 29-03-2020 04:05:00 5.1 C 70 % 0.09 C
1191 29-03-2020 04:10:00 5 C 70 % 0 C
1192 29-03-2020 04:15:00 4.9 C 69 % -0.3 C
1193 29-03-2020 04:20:00 4.8 C 69 % -0.39 C
1194 29-03-2020 04:25:00 4.8 C 69 % -0.39 C
1195 29-03-2020 04:30:00 4.8 C 69 % -0.39 C
1196 29-03-2020 04:35:00 4.8 C 70 % -0.2 C
1197 29-03-2020 04:40:00 4.8 C 70 % -0.2 C
1198 29-03-2020 04:45:00 4.8 C 70 % -0.2 C
1199 29-03-2020 04:50:00 4.8 C 71 % 0 C
1200 29-03-2020 04:55:00 4.8 C 71 % 0 C
Sensor: Nr:Datum:Temp:Feuchte:Taupunkt:
Aussen-T/F 1201 29-03-2020 05:00:00 4.8 C 72 % 0.19 C
1202 29-03-2020 05:05:00 4.8 C 72 % 0.19 C
1203 29-03-2020 05:10:00 4.8 C 73 % 0.38 C
1204 29-03-2020 05:15:00 4.8 C 72 % 0.19 C
1205 29-03-2020 05:20:00 4.7 C 71 % -0.1 C
1206 29-03-2020 05:25:00 4.7 C 71 % -0.1 C
1207 29-03-2020 05:30:00 4.6 C 70 % -0.39 C
1208 29-03-2020 05:35:00 4.5 C 70 % -0.48 C
1209 29-03-2020 05:40:00 4.4 C 70 % -0.58 C
1210 29-03-2020 05:45:00 4.3 C 69 % -0.87 C
1211 29-03-2020 05:50:00 4.3 C 70 % -0.68 C
1212 29-03-2020 05:55:00 4.2 C 70 % -0.77 C
1213 29-03-2020 06:00:00 4.1 C 70 % -0.87 C
1214 29-03-2020 06:05:00 4 C 70 % -0.96 C
1215 29-03-2020 06:10:00 3.9 C 70 % -1.06 C
1216 29-03-2020 06:15:00 3.8 C 70 % -1.16 C
1217 29-03-2020 06:20:00 3.8 C 71 % -0.96 C
1218 29-03-2020 06:25:00 3.7 C 71 % -1.06 C
1219 29-03-2020 06:30:00 3.7 C 72 % -0.87 C
1220 29-03-2020 06:35:00 3.7 C 72 % -0.87 C
1221 29-03-2020 06:40:00 3.7 C 73 % -0.68 C
1222 29-03-2020 06:45:00 3.7 C 73 % -0.68 C
1223 29-03-2020 06:50:00 3.7 C 74 % -0.49 C
1224 29-03-2020 06:55:00 3.8 C 75 % -0.21 C
1225 29-03-2020 07:00:00 3.8 C 75 % -0.21 C
Sensor: Nr:Datum:Temp:Feuchte:Taupunkt:
Aussen-T/F 1226 29-03-2020 07:05:00 3.9 C 76 % 0.07 C
1227 29-03-2020 07:10:00 3.9 C 76 % 0.07 C
1228 29-03-2020 07:15:00 4 C 77 % 0.34 C
1229 29-03-2020 07:20:00 4 C 77 % 0.34 C
1230 29-03-2020 07:25:00 4 C 77 % 0.34 C
1231 29-03-2020 07:30:00 4.1 C 77 % 0.44 C
1232 29-03-2020 07:35:00 4.1 C 77 % 0.44 C
1233 29-03-2020 07:40:00 4.1 C 77 % 0.44 C
1234 29-03-2020 07:45:00 4.2 C 77 % 0.54 C
1235 29-03-2020 07:50:00 4.2 C 77 % 0.54 C
1236 29-03-2020 07:55:00 4.2 C 77 % 0.54 C
1237 29-03-2020 08:00:00 4.2 C 77 % 0.54 C
1238 29-03-2020 08:05:00 4.2 C 77 % 0.54 C
1239 29-03-2020 08:10:00 4.2 C 77 % 0.54 C
1240 29-03-2020 08:15:00 4.3 C 77 % 0.63 C
1241 29-03-2020 08:20:00 4.3 C 77 % 0.63 C
1242 29-03-2020 08:25:00 4.3 C 77 % 0.63 C
1243 29-03-2020 08:30:00 4.4 C 76 % 0.55 C
1244 29-03-2020 08:35:00 4.4 C 76 % 0.55 C
1245 29-03-2020 08:40:00 4.5 C 76 % 0.65 C
1246 29-03-2020 08:45:00 4.6 C 75 % 0.56 C
1247 29-03-2020 08:50:00 4.5 C 75 % 0.46 C
1248 29-03-2020 08:55:00 4.5 C 75 % 0.46 C
1249 29-03-2020 09:00:00 4.5 C 76 % 0.65 C
1250 29-03-2020 09:05:00 4.5 C 75 % 0.46 C
Sensor: Nr:Datum:Temp:Feuchte:Taupunkt:
Aussen-T/F 1251 29-03-2020 09:10:00 4.5 C 75 % 0.46 C
1252 29-03-2020 09:15:00 4.5 C 75 % 0.46 C
1253 29-03-2020 09:20:00 4.5 C 75 % 0.46 C
1254 29-03-2020 09:25:00 4.5 C 75 % 0.46 C
1255 29-03-2020 09:30:00 4.6 C 75 % 0.56 C
1256 29-03-2020 09:35:00 4.7 C 75 % 0.66 C
1257 29-03-2020 09:40:00 4.7 C 74 % 0.47 C
1258 29-03-2020 09:45:00 4.8 C 74 % 0.57 C
1259 29-03-2020 09:50:00 4.9 C 73 % 0.48 C
1260 29-03-2020 09:55:00 5 C 73 % 0.57 C
1261 29-03-2020 10:00:00 5.1 C 73 % 0.67 C
1262 29-03-2020 10:05:00 5.2 C 73 % 0.77 C
1263 29-03-2020 10:10:00 5.3 C 72 % 0.67 C
1264 29-03-2020 10:15:00 5.3 C 72 % 0.67 C
1265 29-03-2020 10:20:00 5.4 C 71 % 0.58 C
1266 29-03-2020 10:25:00 5.6 C 70 % 0.57 C
1267 29-03-2020 10:30:00 5.6 C 70 % 0.57 C
1268 29-03-2020 10:35:00 5.8 C 69 % 0.56 C
1269 29-03-2020 10:40:00 6 C 69 % 0.76 C
1270 29-03-2020 10:45:00 6.1 C 66 % 0.24 C
1271 29-03-2020 10:50:00 6.1 C 65 % 0.03 C
1272 29-03-2020 10:55:00 6.2 C 66 % 0.33 C
1273 29-03-2020 11:00:00 6.4 C 62 % -0.34 C
1274 29-03-2020 11:05:00 6.5 C 61 % -0.46 C
1275 29-03-2020 11:10:00 6.6 C 60 % -0.6 C
Sensor: Nr:Datum:Temp:Feuchte:Taupunkt:
Aussen-T/F 1276 29-03-2020 11:15:00 6.5 C 61 % -0.46 C
1277 29-03-2020 11:20:00 6.4 C 61 % -0.56 C
1278 29-03-2020 11:25:00 6.4 C 60 % -0.78 C
1279 29-03-2020 11:30:00 6.3 C 60 % -0.88 C
1280 29-03-2020 11:35:00 6.4 C 61 % -0.56 C
1281 29-03-2020 11:40:00 6.4 C 61 % -0.56 C
1282 29-03-2020 11:45:00 6.5 C 61 % -0.46 C
1283 29-03-2020 11:50:00 6.4 C 62 % -0.34 C
1284 29-03-2020 11:55:00 6.5 C 62 % -0.24 C
1285 29-03-2020 12:00:00 6.4 C 61 % -0.56 C
1286 29-03-2020 12:05:00 6.3 C 64 % 0 C
1287 29-03-2020 12:10:00 6.1 C 66 % 0.24 C
1288 29-03-2020 12:15:00 5.9 C 65 % -0.16 C
1289 29-03-2020 12:20:00 5.9 C 65 % -0.16 C
1290 29-03-2020 12:25:00 5.9 C 66 % 0.05 C
1291 29-03-2020 12:30:00 5.9 C 65 % -0.16 C
1292 29-03-2020 12:35:00 5.9 C 66 % 0.05 C
1293 29-03-2020 12:40:00 5.9 C 65 % -0.16 C
1294 29-03-2020 12:45:00 6 C 65 % -0.07 C
1295 29-03-2020 12:50:00 6.1 C 64 % -0.19 C
1296 29-03-2020 12:55:00 6.2 C 63 % -0.31 C
1297 29-03-2020 13:00:00 6.3 C 62 % -0.43 C
1298 29-03-2020 13:05:00 6.3 C 61 % -0.65 C
1299 29-03-2020 13:10:00 6.3 C 60 % -0.88 C
1300 29-03-2020 13:15:00 6.3 C 59 % -1.11 C
Sensor: Nr:Datum:Temp:Feuchte:Taupunkt:
Aussen-T/F 1301 29-03-2020 13:20:00 6.4 C 59 % -1.01 C
1302 29-03-2020 13:25:00 6.5 C 58 % -1.15 C
1303 29-03-2020 13:30:00 6.6 C 57 % -1.3 C
1304 29-03-2020 13:35:00 6.7 C 56 % -1.44 C
1305 29-03-2020 13:40:00 6.8 C 56 % -1.35 C
1306 29-03-2020 13:45:00 7.1 C 54 % -1.56 C
1307 29-03-2020 13:50:00 7.3 C 55 % -1.13 C
1308 29-03-2020 13:55:00 7.6 C 53 % -1.35 C
1309 29-03-2020 14:00:00 7.5 C 53 % -1.44 C
1310 29-03-2020 14:05:00 7.3 C 53 % -1.63 C
1311 29-03-2020 14:10:00 7.3 C 53 % -1.63 C
1312 29-03-2020 14:15:00 7.3 C 53 % -1.63 C
1313 29-03-2020 14:20:00 7.2 C 56 % -0.98 C
1314 29-03-2020 14:25:00 6.8 C 58 % -0.87 C
1315 29-03-2020 14:30:00 6.6 C 59 % -0.83 C
1316 29-03-2020 14:35:00 6.6 C 59 % -0.83 C
1317 29-03-2020 14:40:00 6.5 C 59 % -0.92 C
1318 29-03-2020 14:45:00 6.5 C 59 % -0.92 C
1319 29-03-2020 14:50:00 6.6 C 60 % -0.6 C
1320 29-03-2020 14:55:00 6.6 C 60 % -0.6 C
1321 29-03-2020 15:00:00 6.7 C 61 % -0.28 C
1322 29-03-2020 15:05:00 6.8 C 61 % -0.18 C
1323 29-03-2020 15:10:00 6.9 C 57 % -1.01 C
1324 29-03-2020 15:15:00 6.9 C 56 % -1.26 C
1325 29-03-2020 15:20:00 7 C 56 % -1.16 C
Sensor: Nr:Datum:Temp:Feuchte:Taupunkt:
Aussen-T/F 1326 29-03-2020 15:25:00 7.1 C 56 % -1.07 C
1327 29-03-2020 15:30:00 7.2 C 56 % -0.98 C
1328 29-03-2020 15:35:00 7.3 C 57 % -0.64 C
1329 29-03-2020 15:40:00 7.4 C 56 % -0.79 C
1330 29-03-2020 15:45:00 7.3 C 58 % -0.4 C
1331 29-03-2020 15:50:00 7.3 C 58 % -0.4 C
1332 29-03-2020 15:55:00 7.3 C 57 % -0.64 C
1333 29-03-2020 16:00:00 7.3 C 57 % -0.64 C
1334 29-03-2020 16:05:00 7.2 C 56 % -0.98 C
1335 29-03-2020 16:10:00 7.2 C 55 % -1.22 C
1336 29-03-2020 16:15:00 7 C 55 % -1.41 C
1337 29-03-2020 16:20:00 6.9 C 55 % -1.5 C
1338 29-03-2020 16:25:00 6.8 C 55 % -1.59 C
1339 29-03-2020 16:30:00 6.8 C 58 % -0.87 C
1340 29-03-2020 16:35:00 6.7 C 59 % -0.73 C
1341 29-03-2020 16:40:00 6.7 C 60 % -0.5 C
1342 29-03-2020 16:45:00 6.7 C 60 % -0.5 C
1343 29-03-2020 16:50:00 6.8 C 58 % -0.87 C
1344 29-03-2020 16:55:00 6.8 C 58 % -0.87 C
1345 29-03-2020 17:00:00 6.8 C 59 % -0.64 C
1346 29-03-2020 17:05:00 6.9 C 59 % -0.54 C
1347 29-03-2020 17:10:00 7.1 C 59 % -0.36 C
1348 29-03-2020 17:15:00 6.9 C 59 % -0.54 C
1349 29-03-2020 17:20:00 6.9 C 61 % -0.09 C
1350 29-03-2020 17:25:00 6.9 C 63 % 0.36 C
Sensor: Nr:Datum:Temp:Feuchte:Taupunkt:
Aussen-T/F 1351 29-03-2020 17:30:00 6.8 C 62 % 0.04 C
1352 29-03-2020 17:35:00 6.9 C 63 % 0.36 C
1353 29-03-2020 17:40:00 7 C 63 % 0.45 C
1354 29-03-2020 17:45:00 6.9 C 63 % 0.36 C
1355 29-03-2020 17:50:00 6.8 C 64 % 0.48 C
1356 29-03-2020 17:55:00 6.8 C 65 % 0.69 C
1357 29-03-2020 18:00:00 6.9 C 65 % 0.79 C
1358 29-03-2020 18:05:00 7 C 65 % 0.88 C
1359 29-03-2020 18:10:00 6.9 C 63 % 0.36 C
1360 29-03-2020 18:15:00 6.7 C 63 % 0.17 C
1361 29-03-2020 18:20:00 6.6 C 64 % 0.29 C
1362 29-03-2020 18:25:00 6.4 C 65 % 0.31 C
1363 29-03-2020 18:30:00 6.2 C 68 % 0.75 C
1364 29-03-2020 18:35:00 5.8 C 72 % 1.15 C
1365 29-03-2020 18:40:00 5.4 C 75 % 1.33 C
1366 29-03-2020 18:45:00 5.1 C 78 % 1.59 C
1367 29-03-2020 18:50:00 4.9 C 79 % 1.57 C
1368 29-03-2020 18:55:00 4.9 C 79 % 1.57 C
1369 29-03-2020 19:00:00 4.9 C 79 % 1.57 C
1370 29-03-2020 19:05:00 4.8 C 80 % 1.65 C
1371 29-03-2020 19:10:00 4.6 C 82 % 1.8 C
1372 29-03-2020 19:15:00 4.4 C 83 % 1.77 C
1373 29-03-2020 19:20:00 4.4 C 83 % 1.77 C
1374 29-03-2020 19:25:00 4.3 C 84 % 1.84 C
1375 29-03-2020 19:30:00 4.3 C 84 % 1.84 C
Sensor: Nr:Datum:Temp:Feuchte:Taupunkt:
Aussen-T/F 1376 29-03-2020 19:35:00 4.3 C 85 % 2.01 C
1377 29-03-2020 19:40:00 4.2 C 85 % 1.91 C
1378 29-03-2020 19:45:00 4.1 C 85 % 1.81 C
1379 29-03-2020 19:50:00 4 C 86 % 1.88 C
1380 29-03-2020 19:55:00 3.9 C 86 % 1.78 C
1381 29-03-2020 20:00:00 3.9 C 86 % 1.78 C
1382 29-03-2020 20:05:00 3.8 C 87 % 1.84 C
1383 29-03-2020 20:10:00 3.8 C 87 % 1.84 C
1384 29-03-2020 20:15:00 3.8 C 87 % 1.84 C
1385 29-03-2020 20:20:00 3.8 C 87 % 1.84 C
1386 29-03-2020 20:25:00 3.8 C 87 % 1.84 C
1387 29-03-2020 20:30:00 3.8 C 87 % 1.84 C
1388 29-03-2020 20:35:00 3.8 C 87 % 1.84 C
1389 29-03-2020 20:40:00 3.9 C 86 % 1.78 C
1390 29-03-2020 20:45:00 3.9 C 85 % 1.61 C
1391 29-03-2020 20:50:00 4.1 C 84 % 1.65 C
1392 29-03-2020 20:55:00 4.2 C 83 % 1.58 C
1393 29-03-2020 21:00:00 4.2 C 82 % 1.41 C
1394 29-03-2020 21:05:00 4.2 C 81 % 1.24 C
1395 29-03-2020 21:10:00 4.3 C 80 % 1.16 C
1396 29-03-2020 21:15:00 4.3 C 79 % 0.99 C
1397 29-03-2020 21:20:00 4.3 C 78 % 0.81 C
1398 29-03-2020 21:25:00 4.4 C 78 % 0.91 C
1399 29-03-2020 21:30:00 4.4 C 77 % 0.73 C
1400 29-03-2020 21:35:00 4.4 C 77 % 0.73 C
Sensor: Nr:Datum:Temp:Feuchte:Taupunkt:
Aussen-T/F 1401 29-03-2020 21:40:00 4.4 C 76 % 0.55 C
1402 29-03-2020 21:45:00 4.4 C 75 % 0.37 C
1403 29-03-2020 21:50:00 4.4 C 75 % 0.37 C
1404 29-03-2020 21:55:00 4.4 C 76 % 0.55 C
1405 29-03-2020 22:00:00 4.4 C 75 % 0.37 C
1406 29-03-2020 22:05:00 4.3 C 75 % 0.27 C
1407 29-03-2020 22:10:00 4.3 C 75 % 0.27 C
1408 29-03-2020 22:15:00 4.3 C 75 % 0.27 C
1409 29-03-2020 22:20:00 4.3 C 74 % 0.09 C
1410 29-03-2020 22:25:00 4.3 C 74 % 0.09 C
1411 29-03-2020 22:30:00 4.3 C 73 % -0.1 C
1412 29-03-2020 22:35:00 4.2 C 73 % -0.2 C
1413 29-03-2020 22:40:00 4.2 C 73 % -0.2 C
1414 29-03-2020 22:45:00 4.2 C 72 % -0.39 C
1415 29-03-2020 22:50:00 4.2 C 73 % -0.2 C
1416 29-03-2020 22:55:00 4.2 C 72 % -0.39 C
1417 29-03-2020 23:00:00 4.2 C 71 % -0.58 C
1418 29-03-2020 23:05:00 4.2 C 71 % -0.58 C
1419 29-03-2020 23:10:00 4.2 C 71 % -0.58 C
1420 29-03-2020 23:15:00 4.1 C 70 % -0.87 C
1421 29-03-2020 23:20:00 4.1 C 69 % -1.06 C
1422 29-03-2020 23:25:00 4.1 C 70 % -0.87 C
1423 29-03-2020 23:30:00 4.1 C 69 % -1.06 C
1424 29-03-2020 23:35:00 4 C 68 % -1.36 C
1425 29-03-2020 23:40:00 3.9 C 67 % -1.65 C
Sensor: Nr:Datum:Temp:Feuchte:Taupunkt:
Aussen-T/F 1426 29-03-2020 23:45:00 3.9 C 67 % -1.65 C
1427 29-03-2020 23:50:00 3.8 C 67 % -1.75 C
1428 29-03-2020 23:55:00 3.7 C 67 % -1.85 C
1429 30-03-2020 00:00:00 3.6 C 67 % -1.94 C
1430 30-03-2020 00:05:00 3.4 C 67 % -2.13 C
1431 30-03-2020 00:10:00 3.3 C 67 % -2.23 C
1432 30-03-2020 00:15:00 3.3 C 66 % -2.43 C
1433 30-03-2020 00:20:00 3.3 C 66 % -2.43 C
1434 30-03-2020 00:25:00 3.3 C 67 % -2.23 C
1435 30-03-2020 00:30:00 3.1 C 68 % -2.22 C
1436 30-03-2020 00:35:00 2.9 C 69 % -2.21 C
1437 30-03-2020 00:40:00 2.7 C 70 % -2.21 C
1438 30-03-2020 00:45:00 2.4 C 70 % -2.5 C
1439 30-03-2020 00:50:00 2.2 C 72 % -2.31 C
1440 30-03-2020 00:55:00 1.9 C 73 % -2.41 C
1441 30-03-2020 01:00:00 1.7 C 74 % -2.42 C
1442 30-03-2020 01:05:00 1.5 C 74 % -2.62 C
1443 30-03-2020 01:10:00 1.4 C 74 % -2.71 C
1444 30-03-2020 01:15:00 1.4 C 74 % -2.71 C
1445 30-03-2020 01:20:00 1.4 C 73 % -2.9 C
1446 30-03-2020 01:25:00 1.4 C 73 % -2.9 C
1447 30-03-2020 01:30:00 1.5 C 71 % -3.17 C
1448 30-03-2020 01:35:00 1.4 C 73 % -2.9 C
1449 30-03-2020 01:40:00 1.3 C 74 % -2.81 C
1450 30-03-2020 01:45:00 1.1 C 75 % -2.82 C
Sensor: Nr:Datum:Temp:Feuchte:Taupunkt:
Aussen-T/F 1451 30-03-2020 01:50:00 0.8 C 75 % -3.11 C
1452 30-03-2020 01:55:00 0.6 C 76 % -3.13 C
1453 30-03-2020 02:00:00 0.4 C 77 % -3.15 C
1454 30-03-2020 02:05:00 0.3 C 76 % -3.42 C
1455 30-03-2020 02:10:00 0.3 C 77 % -3.25 C
1456 30-03-2020 02:15:00 0.2 C 77 % -3.34 C
1457 30-03-2020 02:20:00 -0.1 C 78 % -3.47 C
1458 30-03-2020 02:25:00 -0.3 C 78 % -3.66 C
1459 30-03-2020 02:30:00 -0.5 C 79 % -3.69 C
1460 30-03-2020 02:35:00 -0.7 C 80 % -3.71 C
1461 30-03-2020 02:40:00 -0.7 C 80 % -3.71 C
1462 30-03-2020 02:45:00 -0.8 C 81 % -3.64 C
1463 30-03-2020 02:50:00 -0.8 C 81 % -3.64 C
1464 30-03-2020 02:55:00 -0.9 C 81 % -3.74 C
1465 30-03-2020 03:00:00 -0.9 C 81 % -3.74 C
1466 30-03-2020 03:05:00 -1 C 80 % -4.01 C
1467 30-03-2020 03:10:00 -1 C 80 % -4.01 C
1468 30-03-2020 03:15:00 -1 C 81 % -3.84 C
1469 30-03-2020 03:20:00 -1.1 C 81 % -3.94 C
1470 30-03-2020 03:25:00 -1.1 C 81 % -3.94 C
1471 30-03-2020 03:30:00 -1.2 C 82 % -3.87 C
1472 30-03-2020 03:35:00 -1.3 C 82 % -3.97 C
1473 30-03-2020 03:40:00 -1.4 C 82 % -4.07 C
1474 30-03-2020 03:45:00 -1.4 C 82 % -4.07 C
1475 30-03-2020 03:50:00 -1.5 C 83 % -4 C
Sensor: Nr:Datum:Temp:Feuchte:Taupunkt:
Aussen-T/F 1476 30-03-2020 03:55:00 -1.6 C 83 % -4.1 C
1477 30-03-2020 04:00:00 -1.6 C 83 % -4.1 C
1478 30-03-2020 04:05:00 -1.6 C 83 % -4.1 C
1479 30-03-2020 04:10:00 -1.6 C 83 % -4.1 C
1480 30-03-2020 04:15:00 -1.6 C 84 % -3.94 C
1481 30-03-2020 04:20:00 -1.6 C 83 % -4.1 C
1482 30-03-2020 04:25:00 -1.7 C 83 % -4.2 C
1483 30-03-2020 04:30:00 -1.7 C 83 % -4.2 C
1484 30-03-2020 04:35:00 -1.8 C 83 % -4.3 C
1485 30-03-2020 04:40:00 -1.8 C 83 % -4.3 C
1486 30-03-2020 04:45:00 -1.9 C 83 % -4.4 C
1487 30-03-2020 04:50:00 -2 C 83 % -4.49 C
1488 30-03-2020 04:55:00 -2 C 83 % -4.49 C
1489 30-03-2020 05:00:00 -1.9 C 83 % -4.4 C
1490 30-03-2020 05:05:00 -1.8 C 82 % -4.46 C
1491 30-03-2020 05:10:00 -1.8 C 82 % -4.46 C
1492 30-03-2020 05:15:00 -1.8 C 81 % -4.62 C
1493 30-03-2020 05:20:00 -1.9 C 81 % -4.72 C
1494 30-03-2020 05:25:00 -1.9 C 81 % -4.72 C
1495 30-03-2020 05:30:00 -2 C 81 % -4.82 C
1496 30-03-2020 05:35:00 -2.1 C 81 % -4.91 C
1497 30-03-2020 05:40:00 -2.2 C 81 % -5.01 C
1498 30-03-2020 05:45:00 -2.3 C 82 % -4.95 C
1499 30-03-2020 05:50:00 -2.4 C 82 % -5.05 C
1500 30-03-2020 05:55:00 -2.5 C 82 % -5.14 C
Sensor: Nr:Datum:Temp:Feuchte:Taupunkt:
Aussen-T/F 1501 30-03-2020 06:00:00 -2.6 C 82 % -5.24 C
1502 30-03-2020 06:05:00 -2.7 C 82 % -5.34 C
1503 30-03-2020 06:10:00 -2.7 C 82 % -5.34 C
1504 30-03-2020 06:15:00 -2.8 C 83 % -5.28 C
1505 30-03-2020 06:20:00 -2.9 C 83 % -5.38 C
1506 30-03-2020 06:25:00 -3 C 84 % -5.32 C
1507 30-03-2020 06:30:00 -3 C 84 % -5.32 C
1508 30-03-2020 06:35:00 -3.1 C 84 % -5.41 C
1509 30-03-2020 06:40:00 -3.1 C 84 % -5.41 C
1510 30-03-2020 06:45:00 -3.1 C 84 % -5.41 C
1511 30-03-2020 06:50:00 -2.9 C 85 % -5.06 C
1512 30-03-2020 06:55:00 -2.9 C 85 % -5.06 C
1513 30-03-2020 07:00:00 -2.8 C 84 % -5.12 C
1514 30-03-2020 07:05:00 -2.9 C 84 % -5.22 C
1515 30-03-2020 07:10:00 -2.9 C 84 % -5.22 C
1516 30-03-2020 07:15:00 -2.9 C 84 % -5.22 C
1517 30-03-2020 07:20:00 -2.9 C 84 % -5.22 C
1518 30-03-2020 07:25:00 -2.9 C 83 % -5.38 C
1519 30-03-2020 07:30:00 -3 C 83 % -5.47 C
1520 30-03-2020 07:35:00 -3.1 C 83 % -5.57 C
1521 30-03-2020 07:40:00 -3.2 C 84 % -5.51 C
1522 30-03-2020 07:45:00 -3.3 C 84 % -5.61 C
1523 30-03-2020 07:50:00 -3.3 C 84 % -5.61 C
1524 30-03-2020 07:55:00 -3.4 C 84 % -5.71 C
1525 30-03-2020 08:00:00 -3.4 C 84 % -5.71 C
Sensor: Nr:Datum:Temp:Feuchte:Taupunkt:
Aussen-T/F 1526 30-03-2020 08:05:00 -3.4 C 85 % -5.55 C
1527 30-03-2020 08:10:00 -3.4 C 85 % -5.55 C
1528 30-03-2020 08:15:00 -3.3 C 85 % -5.45 C
1529 30-03-2020 08:20:00 -3.3 C 85 % -5.45 C
1530 30-03-2020 08:25:00 -3.3 C 85 % -5.45 C
1531 30-03-2020 08:30:00 -3.3 C 85 % -5.45 C
1532 30-03-2020 08:35:00 -3.2 C 85 % -5.36 C
1533 30-03-2020 08:40:00 -3.1 C 85 % -5.26 C
1534 30-03-2020 08:45:00 -3.1 C 85 % -5.26 C
1535 30-03-2020 08:50:00 -3 C 85 % -5.16 C
1536 30-03-2020 08:55:00 -2.9 C 84 % -5.22 C
1537 30-03-2020 09:00:00 -2.8 C 84 % -5.12 C
1538 30-03-2020 09:05:00 -2.7 C 83 % -5.18 C
1539 30-03-2020 09:10:00 -2.6 C 83 % -5.08 C
1540 30-03-2020 09:15:00 -2.5 C 82 % -5.14 C
1541 30-03-2020 09:20:00 -2.4 C 81 % -5.21 C
1542 30-03-2020 09:25:00 -2.3 C 81 % -5.11 C
1543 30-03-2020 09:30:00 -2.2 C 80 % -5.18 C
1544 30-03-2020 09:35:00 -2.1 C 80 % -5.08 C
1545 30-03-2020 09:40:00 -1.9 C 79 % -5.05 C
1546 30-03-2020 09:45:00 -1.8 C 79 % -4.95 C
1547 30-03-2020 09:50:00 -1.7 C 80 % -4.69 C
1548 30-03-2020 09:55:00 -1.7 C 80 % -4.69 C
1549 30-03-2020 10:00:00 -1.6 C 80 % -4.59 C
1550 30-03-2020 10:05:00 -1.5 C 79 % -4.66 C
Sensor: Nr:Datum:Temp:Feuchte:Taupunkt:
Aussen-T/F 1551 30-03-2020 10:10:00 -1.4 C 80 % -4.4 C
1552 30-03-2020 10:15:00 -1.3 C 80 % -4.3 C
1553 30-03-2020 10:20:00 -1.2 C 80 % -4.2 C
1554 30-03-2020 10:25:00 -1.1 C 78 % -4.44 C
1555 30-03-2020 10:30:00 -0.9 C 77 % -4.42 C
1556 30-03-2020 10:35:00 -0.7 C 75 % -4.57 C
1557 30-03-2020 10:40:00 -0.3 C 71 % -4.91 C
1558 30-03-2020 10:45:00 0.2 C 70 % -4.61 C
1559 30-03-2020 10:50:00 0.8 C 61 % -5.85 C
1560 30-03-2020 10:55:00 1.3 C 66 % -4.34 C
1561 30-03-2020 11:00:00 1.4 C 60 % -5.5 C
1562 30-03-2020 11:05:00 1.9 C 55 % -6.17 C
1563 30-03-2020 11:10:00 2.2 C 54 % -6.12 C
1564 30-03-2020 11:15:00 2.3 C 55 % -5.79 C
1565 30-03-2020 11:20:00 2.4 C 52 % -6.43 C
1566 30-03-2020 11:25:00 2.7 C 50 % -6.66 C
1567 30-03-2020 11:30:00 2.8 C 50 % -6.57 C
1568 30-03-2020 11:35:00 3.1 C 49 % -6.56 C
1569 30-03-2020 11:40:00 3.3 C 47 % -6.91 C
1570 30-03-2020 11:45:00 3.3 C 46 % -7.19 C
1571 30-03-2020 11:50:00 3.4 C 47 % -6.82 C
1572 30-03-2020 11:55:00 3.6 C 44 % -7.49 C
1573 30-03-2020 12:00:00 3.7 C 45 % -7.11 C
1574 30-03-2020 12:05:00 3.8 C 43 % -7.61 C
1575 30-03-2020 12:10:00 4 C 42 % -7.73 C
Sensor: Nr:Datum:Temp:Feuchte:Taupunkt:
Aussen-T/F 1576 30-03-2020 12:15:00 4.1 C 42 % -7.64 C
1577 30-03-2020 12:20:00 4.2 C 40 % -8.17 C
1578 30-03-2020 12:25:00 4.3 C 38 % -8.74 C
1579 30-03-2020 12:30:00 4.4 C 38 % -8.65 C
1580 30-03-2020 12:35:00 4.6 C 38 % -8.47 C
1581 30-03-2020 12:40:00 4.8 C 37 % -8.63 C
1582 30-03-2020 12:45:00 4.9 C 37 % -8.54 C
1583 30-03-2020 12:50:00 5.1 C 38 % -8.02 C
1584 30-03-2020 12:55:00 5.1 C 36 % -8.71 C
1585 30-03-2020 13:00:00 5.3 C 36 % -8.54 C
1586 30-03-2020 13:05:00 5.5 C 37 % -8.01 C
1587 30-03-2020 13:10:00 5.7 C 38 % -7.49 C
1588 30-03-2020 13:15:00 5.9 C 38 % -7.31 C
1589 30-03-2020 13:20:00 5.9 C 37 % -7.65 C
1590 30-03-2020 13:25:00 5.9 C 36 % -8 C
1591 30-03-2020 13:30:00 6 C 38 % -7.22 C
1592 30-03-2020 13:35:00 6.2 C 37 % -7.38 C
1593 30-03-2020 13:40:00 6.3 C 36 % -7.65 C
1594 30-03-2020 13:45:00 6.4 C 36 % -7.56 C
1595 30-03-2020 13:50:00 6.3 C 36 % -7.65 C
1596 30-03-2020 13:55:00 6.4 C 36 % -7.56 C
1597 30-03-2020 14:00:00 6.6 C 35 % -7.74 C
1598 30-03-2020 14:05:00 6.7 C 35 % -7.65 C
1599 30-03-2020 14:10:00 6.8 C 33 % -8.32 C
1600 30-03-2020 14:15:00 6.8 C 33 % -8.32 C
Sensor: Nr:Datum:Temp:Feuchte:Taupunkt:
Aussen-T/F 1601 30-03-2020 14:20:00 7.1 C 33 % -8.06 C
1602 30-03-2020 14:25:00 7.3 C 33 % -7.88 C
1603 30-03-2020 14:30:00 7.3 C 35 % -7.12 C
1604 30-03-2020 14:35:00 7.3 C 34 % -7.5 C
1605 30-03-2020 14:40:00 7.4 C 33 % -7.79 C
1606 30-03-2020 14:45:00 7.6 C 35 % -6.86 C
1607 30-03-2020 14:50:00 7.7 C 35 % -6.77 C
1608 30-03-2020 14:55:00 7.9 C 36 % -6.23 C
1609 30-03-2020 15:00:00 8.1 C 35 % -6.41 C
1610 30-03-2020 15:05:00 7.9 C 35 % -6.59 C
1611 30-03-2020 15:10:00 7.8 C 36 % -6.31 C
1612 30-03-2020 15:15:00 7.8 C 36 % -6.31 C
1613 30-03-2020 15:20:00 8 C 36 % -6.14 C
1614 30-03-2020 15:25:00 8 C 36 % -6.14 C
1615 30-03-2020 15:30:00 8 C 38 % -5.43 C
1616 30-03-2020 15:35:00 8.2 C 38 % -5.25 C
1617 30-03-2020 15:40:00 8.2 C 37 % -5.6 C
1618 30-03-2020 15:45:00 8.3 C 37 % -5.51 C
1619 30-03-2020 15:50:00 8.3 C 38 % -5.16 C
1620 30-03-2020 15:55:00 8.3 C 37 % -5.51 C
1621 30-03-2020 16:00:00 8.4 C 37 % -5.42 C
1622 30-03-2020 16:05:00 8.6 C 39 % -4.55 C
1623 30-03-2020 16:10:00 8.8 C 38 % -4.71 C
1624 30-03-2020 16:15:00 9.2 C 37 % -4.71 C
1625 30-03-2020 16:20:00 9.2 C 38 % -4.36 C
Sensor: Nr:Datum:Temp:Feuchte:Taupunkt:
Aussen-T/F 1626 30-03-2020 16:25:00 9.3 C 38 % -4.27 C
1627 30-03-2020 16:30:00 9 C 38 % -4.54 C
1628 30-03-2020 16:35:00 8.8 C 39 % -4.37 C
1629 30-03-2020 16:40:00 9.1 C 40 % -3.77 C
1630 30-03-2020 16:45:00 9.4 C 40 % -3.5 C
1631 30-03-2020 16:50:00 9.5 C 39 % -3.74 C
1632 30-03-2020 16:55:00 9.4 C 40 % -3.5 C
1633 30-03-2020 17:00:00 9.1 C 40 % -3.77 C
1634 30-03-2020 17:05:00 9.2 C 42 % -3.02 C
1635 30-03-2020 17:10:00 9.8 C 40 % -3.14 C
1636 30-03-2020 17:15:00 9.9 C 40 % -3.05 C
1637 30-03-2020 17:20:00 9.8 C 39 % -3.48 C
1638 30-03-2020 17:25:00 9.9 C 39 % -3.39 C
1639 30-03-2020 17:30:00 9.6 C 40 % -3.32 C
1640 30-03-2020 17:35:00 9.7 C 41 % -2.9 C
1641 30-03-2020 17:40:00 9.7 C 42 % -2.57 C
1642 30-03-2020 17:45:00 9.4 C 43 % -2.53 C
1643 30-03-2020 17:50:00 9.2 C 44 % -2.4 C
1644 30-03-2020 17:55:00 8.9 C 45 % -2.37 C
1645 30-03-2020 18:00:00 8.8 C 46 % -2.17 C
1646 30-03-2020 18:05:00 8.5 C 46 % -2.44 C
1647 30-03-2020 18:10:00 8.2 C 47 % -2.42 C
1648 30-03-2020 18:15:00 7.9 C 49 % -2.14 C
1649 30-03-2020 18:20:00 8.1 C 50 % -1.68 C
1650 30-03-2020 18:25:00 8.4 C 49 % -1.68 C
Sensor: Nr:Datum:Temp:Feuchte:Taupunkt:
Aussen-T/F 1651 30-03-2020 18:30:00 8.7 C 48 % -1.68 C
1652 30-03-2020 18:35:00 8.9 C 48 % -1.5 C
1653 30-03-2020 18:40:00 8.8 C 47 % -1.87 C
1654 30-03-2020 18:45:00 8.7 C 48 % -1.68 C
1655 30-03-2020 18:50:00 8.7 C 49 % -1.4 C
1656 30-03-2020 18:55:00 8.8 C 49 % -1.31 C
1657 30-03-2020 19:00:00 8.6 C 49 % -1.49 C
1658 30-03-2020 19:05:00 8.5 C 50 % -1.31 C
1659 30-03-2020 19:10:00 8.3 C 50 % -1.5 C
1660 30-03-2020 19:15:00 8.1 C 51 % -1.41 C
1661 30-03-2020 19:20:00 7.8 C 52 % -1.43 C
1662 30-03-2020 19:25:00 7.6 C 52 % -1.61 C
1663 30-03-2020 19:30:00 7.4 C 53 % -1.54 C
1664 30-03-2020 19:35:00 7.3 C 54 % -1.38 C
1665 30-03-2020 19:40:00 7.2 C 54 % -1.47 C
1666 30-03-2020 19:45:00 7 C 55 % -1.41 C
1667 30-03-2020 19:50:00 6.8 C 56 % -1.35 C
1668 30-03-2020 19:55:00 6.4 C 58 % -1.25 C
1669 30-03-2020 20:00:00 5.9 C 59 % -1.48 C
1670 30-03-2020 20:05:00 5.4 C 61 % -1.5 C
1671 30-03-2020 20:10:00 4.9 C 62 % -1.75 C
1672 30-03-2020 20:15:00 4.6 C 64 % -1.61 C
1673 30-03-2020 20:20:00 4.3 C 65 % -1.68 C
1674 30-03-2020 20:25:00 4.2 C 67 % -1.37 C
1675 30-03-2020 20:30:00 4.1 C 68 % -1.26 C
Sensor: Nr:Datum:Temp:Feuchte:Taupunkt:
Aussen-T/F 1676 30-03-2020 20:35:00 3.9 C 69 % -1.26 C
1677 30-03-2020 20:40:00 3.8 C 69 % -1.35 C
1678 30-03-2020 20:45:00 3.7 C 69 % -1.45 C
1679 30-03-2020 20:50:00 3.6 C 70 % -1.35 C
1680 30-03-2020 20:55:00 3.6 C 71 % -1.15 C
1681 30-03-2020 21:00:00 3.5 C 72 % -1.06 C
1682 30-03-2020 21:05:00 3.6 C 73 % -0.78 C
1683 30-03-2020 21:10:00 3.6 C 73 % -0.78 C
1684 30-03-2020 21:15:00 3.7 C 73 % -0.68 C
1685 30-03-2020 21:20:00 3.7 C 74 % -0.49 C
1686 30-03-2020 21:25:00 3.8 C 74 % -0.4 C
1687 30-03-2020 21:30:00 3.8 C 74 % -0.4 C
1688 30-03-2020 21:35:00 3.9 C 74 % -0.3 C
1689 30-03-2020 21:40:00 4 C 74 % -0.2 C
1690 30-03-2020 21:45:00 4 C 74 % -0.2 C
1691 30-03-2020 21:50:00 4 C 74 % -0.2 C
1692 30-03-2020 21:55:00 4.1 C 74 % -0.11 C
1693 30-03-2020 22:00:00 4 C 74 % -0.2 C
1694 30-03-2020 22:05:00 4 C 75 % -0.02 C
1695 30-03-2020 22:10:00 3.9 C 75 % -0.12 C
1696 30-03-2020 22:15:00 4 C 74 % -0.2 C
1697 30-03-2020 22:20:00 4 C 74 % -0.2 C
1698 30-03-2020 22:25:00 4.1 C 75 % 0.08 C
1699 30-03-2020 22:30:00 4.1 C 73 % -0.29 C
1700 30-03-2020 22:35:00 4.1 C 73 % -0.29 C
Sensor: Nr:Datum:Temp:Feuchte:Taupunkt:
Aussen-T/F 1701 30-03-2020 22:40:00 4.2 C 73 % -0.2 C
1702 30-03-2020 22:45:00 4.2 C 72 % -0.39 C
1703 30-03-2020 22:50:00 4.3 C 72 % -0.29 C
1704 30-03-2020 22:55:00 4.3 C 73 % -0.1 C
1705 30-03-2020 23:00:00 4.3 C 72 % -0.29 C
1706 30-03-2020 23:05:00 4.3 C 72 % -0.29 C
1707 30-03-2020 23:10:00 4.3 C 72 % -0.29 C
1708 30-03-2020 23:15:00 4.4 C 72 % -0.19 C
1709 30-03-2020 23:20:00 4.4 C 73 % 0 C
1710 30-03-2020 23:25:00 4.4 C 72 % -0.19 C
1711 30-03-2020 23:30:00 4.4 C 72 % -0.19 C
1712 30-03-2020 23:35:00 4.4 C 72 % -0.19 C
1713 30-03-2020 23:40:00 4.4 C 73 % 0 C
1714 30-03-2020 23:45:00 4.4 C 73 % 0 C
1715 30-03-2020 23:50:00 4.4 C 73 % 0 C
1716 30-03-2020 23:55:00 4.4 C 72 % -0.19 C
1717 31-03-2020 00:00:00 4.4 C 72 % -0.19 C
1718 31-03-2020 00:05:00 4.4 C 72 % -0.19 C
1719 31-03-2020 00:10:00 4.4 C 72 % -0.19 C
1720 31-03-2020 00:15:00 4.5 C 72 % -0.1 C
1721 31-03-2020 00:20:00 4.5 C 72 % -0.1 C
1722 31-03-2020 00:25:00 4.5 C 73 % 0.09 C
1723 31-03-2020 00:30:00 4.5 C 73 % 0.09 C
1724 31-03-2020 00:35:00 4.4 C 73 % 0 C
1725 31-03-2020 00:40:00 4.5 C 73 % 0.09 C
Sensor: Nr:Datum:Temp:Feuchte:Taupunkt:
Aussen-T/F 1726 31-03-2020 00:45:00 4.5 C 73 % 0.09 C
1727 31-03-2020 00:50:00 4.6 C 73 % 0.19 C
1728 31-03-2020 00:55:00 4.6 C 75 % 0.56 C
1729 31-03-2020 01:00:00 4.7 C 75 % 0.66 C
1730 31-03-2020 01:05:00 4.7 C 76 % 0.84 C
1731 31-03-2020 01:10:00 4.7 C 76 % 0.84 C
1732 31-03-2020 01:15:00 4.7 C 76 % 0.84 C
1733 31-03-2020 01:20:00 4.7 C 77 % 1.02 C
1734 31-03-2020 01:25:00 4.6 C 78 % 1.1 C
1735 31-03-2020 01:30:00 4.5 C 79 % 1.18 C
1736 31-03-2020 01:35:00 4.5 C 80 % 1.36 C
1737 31-03-2020 01:40:00 4.5 C 80 % 1.36 C
1738 31-03-2020 01:45:00 4.5 C 81 % 1.53 C
1739 31-03-2020 01:50:00 4.6 C 81 % 1.63 C
1740 31-03-2020 01:55:00 4.6 C 82 % 1.8 C
1741 31-03-2020 02:00:00 4.6 C 82 % 1.8 C
1742 31-03-2020 02:05:00 4.5 C 81 % 1.53 C
1743 31-03-2020 02:10:00 4.4 C 82 % 1.6 C
1744 31-03-2020 02:15:00 4.3 C 82 % 1.51 C
1745 31-03-2020 02:20:00 4.2 C 83 % 1.58 C
1746 31-03-2020 02:25:00 4.1 C 83 % 1.48 C
1747 31-03-2020 02:30:00 4.1 C 84 % 1.65 C
1748 31-03-2020 02:35:00 4.1 C 84 % 1.65 C
1749 31-03-2020 02:40:00 4 C 84 % 1.55 C
1750 31-03-2020 02:45:00 3.9 C 84 % 1.45 C
Sensor: Nr:Datum:Temp:Feuchte:Taupunkt:
Aussen-T/F 1751 31-03-2020 02:50:00 3.8 C 84 % 1.35 C
1752 31-03-2020 02:55:00 3.6 C 84 % 1.16 C
1753 31-03-2020 03:00:00 3.4 C 85 % 1.12 C
1754 31-03-2020 03:05:00 3.4 C 86 % 1.29 C
1755 31-03-2020 03:10:00 3.3 C 86 % 1.19 C
1756 31-03-2020 03:15:00 3.2 C 86 % 1.09 C
1757 31-03-2020 03:20:00 3.2 C 87 % 1.25 C
1758 31-03-2020 03:25:00 3.1 C 87 % 1.15 C
1759 31-03-2020 03:30:00 3.1 C 88 % 1.31 C
1760 31-03-2020 03:35:00 3.1 C 88 % 1.31 C
1761 31-03-2020 03:40:00 3.1 C 88 % 1.31 C
1762 31-03-2020 03:45:00 3 C 88 % 1.21 C
1763 31-03-2020 03:50:00 2.9 C 88 % 1.11 C
1764 31-03-2020 03:55:00 2.9 C 89 % 1.27 C
1765 31-03-2020 04:00:00 3 C 89 % 1.37 C
1766 31-03-2020 04:05:00 3.1 C 90 % 1.62 C
1767 31-03-2020 04:10:00 3.2 C 90 % 1.72 C
1768 31-03-2020 04:15:00 3.2 C 90 % 1.72 C
1769 31-03-2020 04:20:00 3.3 C 90 % 1.82 C
1770 31-03-2020 04:25:00 3.4 C 90 % 1.92 C
1771 31-03-2020 04:30:00 3.4 C 90 % 1.92 C
1772 31-03-2020 04:35:00 3.4 C 90 % 1.92 C
1773 31-03-2020 04:40:00 3.5 C 90 % 2.02 C
1774 31-03-2020 04:45:00 3.5 C 90 % 2.02 C
1775 31-03-2020 04:50:00 3.6 C 90 % 2.12 C
Sensor: Nr:Datum:Temp:Feuchte:Taupunkt:
Aussen-T/F 1776 31-03-2020 04:55:00 3.6 C 90 % 2.12 C
1777 31-03-2020 05:00:00 3.7 C 90 % 2.22 C
1778 31-03-2020 05:05:00 3.7 C 90 % 2.22 C
1779 31-03-2020 05:10:00 3.7 C 89 % 2.06 C
1780 31-03-2020 05:15:00 3.7 C 89 % 2.06 C
1781 31-03-2020 05:20:00 3.6 C 89 % 1.96 C
1782 31-03-2020 05:25:00 3.4 C 89 % 1.76 C
1783 31-03-2020 05:30:00 3.3 C 89 % 1.67 C
1784 31-03-2020 05:35:00 3.2 C 89 % 1.57 C
1785 31-03-2020 05:40:00 3.1 C 88 % 1.31 C
1786 31-03-2020 05:45:00 2.8 C 88 % 1.02 C
1787 31-03-2020 05:50:00 2.7 C 88 % 0.92 C
1788 31-03-2020 05:55:00 2.4 C 88 % 0.62 C
1789 31-03-2020 06:00:00 2.3 C 88 % 0.52 C
1790 31-03-2020 06:05:00 2.2 C 89 % 0.58 C
1791 31-03-2020 06:10:00 2.1 C 89 % 0.48 C
1792 31-03-2020 06:15:00 1.9 C 89 % 0.28 C
1793 31-03-2020 06:20:00 1.9 C 90 % 0.44 C
1794 31-03-2020 06:25:00 1.9 C 90 % 0.44 C
1795 31-03-2020 06:30:00 2 C 91 % 0.69 C
1796 31-03-2020 06:35:00 2.2 C 92 % 1.04 C
1797 31-03-2020 06:40:00 2.3 C 92 % 1.14 C
1798 31-03-2020 06:45:00 2.3 C 92 % 1.14 C
1799 31-03-2020 06:50:00 2.4 C 92 % 1.24 C
1800 31-03-2020 06:55:00 2.5 C 92 % 1.34 C
Sensor: Nr:Datum:Temp:Feuchte:Taupunkt:
Aussen-T/F 1801 31-03-2020 07:00:00 2.6 C 92 % 1.43 C
1802 31-03-2020 07:05:00 2.6 C 92 % 1.43 C
1803 31-03-2020 07:10:00 2.7 C 92 % 1.53 C
1804 31-03-2020 07:15:00 2.7 C 92 % 1.53 C
1805 31-03-2020 07:20:00 2.7 C 92 % 1.53 C
1806 31-03-2020 07:25:00 2.7 C 92 % 1.53 C
1807 31-03-2020 07:30:00 2.7 C 92 % 1.53 C
1808 31-03-2020 07:35:00 2.7 C 92 % 1.53 C
1809 31-03-2020 07:40:00 2.7 C 92 % 1.53 C
1810 31-03-2020 07:45:00 2.6 C 91 % 1.28 C
1811 31-03-2020 07:50:00 2.6 C 92 % 1.43 C
1812 31-03-2020 07:55:00 2.6 C 92 % 1.43 C
1813 31-03-2020 08:00:00 2.7 C 92 % 1.53 C
1814 31-03-2020 08:05:00 2.8 C 92 % 1.63 C
1815 31-03-2020 08:10:00 2.9 C 92 % 1.73 C
1816 31-03-2020 08:15:00 3.1 C 93 % 2.08 C
1817 31-03-2020 08:20:00 3.3 C 92 % 2.13 C
1818 31-03-2020 08:25:00 3.4 C 92 % 2.23 C
1819 31-03-2020 08:30:00 3.6 C 91 % 2.27 C
1820 31-03-2020 08:35:00 3.7 C 91 % 2.37 C
1821 31-03-2020 08:40:00 3.8 C 89 % 2.16 C
1822 31-03-2020 08:45:00 3.9 C 87 % 1.94 C
1823 31-03-2020 08:50:00 4.1 C 85 % 1.81 C
1824 31-03-2020 08:55:00 4.2 C 83 % 1.58 C
1825 31-03-2020 09:00:00 4.3 C 81 % 1.34 C
Sensor: Nr:Datum:Temp:Feuchte:Taupunkt:
Aussen-T/F 1826 31-03-2020 09:05:00 4.4 C 80 % 1.26 C
1827 31-03-2020 09:10:00 4.4 C 78 % 0.91 C
1828 31-03-2020 09:15:00 4.4 C 78 % 0.91 C
1829 31-03-2020 09:20:00 4.4 C 77 % 0.73 C
1830 31-03-2020 09:25:00 4.5 C 77 % 0.83 C
1831 31-03-2020 09:30:00 4.5 C 77 % 0.83 C
1832 31-03-2020 09:35:00 4.6 C 76 % 0.74 C
1833 31-03-2020 09:40:00 4.6 C 75 % 0.56 C
1834 31-03-2020 09:45:00 4.6 C 76 % 0.74 C
1835 31-03-2020 09:50:00 4.7 C 73 % 0.28 C
1836 31-03-2020 09:55:00 4.8 C 75 % 0.75 C
1837 31-03-2020 10:00:00 4.9 C 74 % 0.67 C
1838 31-03-2020 10:05:00 4.9 C 72 % 0.29 C
1839 31-03-2020 10:10:00 4.9 C 73 % 0.48 C
1840 31-03-2020 10:15:00 4.9 C 73 % 0.48 C
1841 31-03-2020 10:20:00 4.9 C 73 % 0.48 C
1842 31-03-2020 10:25:00 4.9 C 72 % 0.29 C
1843 31-03-2020 10:30:00 4.8 C 72 % 0.19 C
1844 31-03-2020 10:35:00 4.8 C 72 % 0.19 C
1845 31-03-2020 10:40:00 4.8 C 71 % 0 C
1846 31-03-2020 10:45:00 4.8 C 71 % 0 C
1847 31-03-2020 10:50:00 4.8 C 70 % -0.2 C
1848 31-03-2020 10:55:00 4.8 C 70 % -0.2 C
1849 31-03-2020 11:00:00 4.8 C 70 % -0.2 C
1850 31-03-2020 11:05:00 4.8 C 70 % -0.2 C
Sensor: Nr:Datum:Temp:Feuchte:Taupunkt:
Aussen-T/F 1851 31-03-2020 11:10:00 4.8 C 69 % -0.39 C
1852 31-03-2020 11:15:00 4.9 C 68 % -0.5 C
1853 31-03-2020 11:20:00 5.1 C 68 % -0.31 C
1854 31-03-2020 11:25:00 5.2 C 67 % -0.41 C
1855 31-03-2020 11:30:00 5.4 C 66 % -0.43 C
1856 31-03-2020 11:35:00 5.5 C 65 % -0.54 C
1857 31-03-2020 11:40:00 5.6 C 64 % -0.66 C
1858 31-03-2020 11:45:00 5.6 C 64 % -0.66 C
1859 31-03-2020 11:50:00 5.6 C 64 % -0.66 C
1860 31-03-2020 11:55:00 5.7 C 62 % -1 C
1861 31-03-2020 12:00:00 5.8 C 62 % -0.9 C
1862 31-03-2020 12:05:00 5.9 C 61 % -1.03 C
1863 31-03-2020 12:10:00 6 C 61 % -0.94 C
1864 31-03-2020 12:15:00 6.3 C 58 % -1.34 C
1865 31-03-2020 12:20:00 6.6 C 56 % -1.54 C
1866 31-03-2020 12:25:00 6.6 C 55 % -1.78 C
1867 31-03-2020 12:30:00 6.8 C 55 % -1.59 C
1868 31-03-2020 12:35:00 6.9 C 53 % -2 C
1869 31-03-2020 12:40:00 7.2 C 54 % -1.47 C
1870 31-03-2020 12:45:00 7.2 C 53 % -1.72 C
1871 31-03-2020 12:50:00 7.2 C 53 % -1.72 C
1872 31-03-2020 12:55:00 7.2 C 54 % -1.47 C
1873 31-03-2020 13:00:00 7.2 C 52 % -1.98 C
1874 31-03-2020 13:05:00 7.1 C 51 % -2.34 C
1875 31-03-2020 13:10:00 6.9 C 51 % -2.52 C
Sensor: Nr:Datum:Temp:Feuchte:Taupunkt:
Aussen-T/F 1876 31-03-2020 13:15:00 7 C 51 % -2.43 C
1877 31-03-2020 13:20:00 7 C 49 % -2.97 C
1878 31-03-2020 13:25:00 7.1 C 49 % -2.87 C
1879 31-03-2020 13:30:00 7.2 C 48 % -3.06 C
1880 31-03-2020 13:35:00 7.4 C 48 % -2.87 C
1881 31-03-2020 13:40:00 7.7 C 46 % -3.17 C
1882 31-03-2020 13:45:00 7.7 C 44 % -3.76 C
1883 31-03-2020 13:50:00 7.8 C 44 % -3.67 C
1884 31-03-2020 13:55:00 8 C 43 % -3.8 C
1885 31-03-2020 14:00:00 8.2 C 43 % -3.62 C
1886 31-03-2020 14:05:00 8.2 C 43 % -3.62 C
1887 31-03-2020 14:10:00 8.2 C 44 % -3.31 C
1888 31-03-2020 14:15:00 8.5 C 44 % -3.04 C
1889 31-03-2020 14:20:00 8.8 C 45 % -2.46 C
1890 31-03-2020 14:25:00 8.8 C 44 % -2.76 C
1891 31-03-2020 14:30:00 8.7 C 44 % -2.85 C
1892 31-03-2020 14:35:00 8.8 C 43 % -3.07 C
1893 31-03-2020 14:40:00 8.7 C 42 % -3.48 C
1894 31-03-2020 14:45:00 8.8 C 42 % -3.39 C
1895 31-03-2020 14:50:00 8.8 C 42 % -3.39 C
1896 31-03-2020 14:55:00 8.8 C 42 % -3.39 C
1897 31-03-2020 15:00:00 8.9 C 42 % -3.3 C
1898 31-03-2020 15:05:00 8.9 C 39 % -4.28 C
1899 31-03-2020 15:10:00 8.8 C 42 % -3.39 C
1900 31-03-2020 15:15:00 8.9 C 41 % -3.62 C
Sensor: Nr:Datum:Temp:Feuchte:Taupunkt:
Aussen-T/F 1901 31-03-2020 15:20:00 8.9 C 41 % -3.62 C
1902 31-03-2020 15:25:00 9 C 41 % -3.53 C
1903 31-03-2020 15:30:00 9.1 C 41 % -3.44 C
1904 31-03-2020 15:35:00 9.1 C 40 % -3.77 C
1905 31-03-2020 15:40:00 9.1 C 40 % -3.77 C
1906 31-03-2020 15:45:00 9.2 C 40 % -3.68 C
1907 31-03-2020 15:50:00 9.3 C 39 % -3.92 C
1908 31-03-2020 15:55:00 9.3 C 39 % -3.92 C
1909 31-03-2020 16:00:00 9.5 C 40 % -3.41 C
1910 31-03-2020 16:05:00 9.6 C 39 % -3.65 C
1911 31-03-2020 16:10:00 9.6 C 38 % -4 C
1912 31-03-2020 16:15:00 9.6 C 39 % -3.65 C
1913 31-03-2020 16:20:00 9.7 C 39 % -3.57 C
1914 31-03-2020 16:25:00 9.8 C 37 % -4.18 C
1915 31-03-2020 16:30:00 9.9 C 37 % -4.09 C
1916 31-03-2020 16:35:00 10 C 39 % -3.3 C
1917 31-03-2020 16:40:00 10.1 C 37 % -3.91 C
1918 31-03-2020 16:45:00 9.9 C 36 % -4.45 C
1919 31-03-2020 16:50:00 10 C 38 % -3.64 C
1920 31-03-2020 16:55:00 10.1 C 37 % -3.91 C
1921 31-03-2020 17:00:00 10 C 36 % -4.36 C
1922 31-03-2020 17:05:00 10.2 C 39 % -3.12 C
1923 31-03-2020 17:10:00 10.6 C 36 % -3.83 C
1924 31-03-2020 17:15:00 10.9 C 36 % -3.56 C
1925 31-03-2020 17:20:00 11.2 C 36 % -3.3 C
Sensor: Nr:Datum:Temp:Feuchte:Taupunkt:
Aussen-T/F 1926 31-03-2020 17:25:00 11.3 C 36 % -3.21 C
1927 31-03-2020 17:30:00 11.3 C 34 % -3.97 C
1928 31-03-2020 17:35:00 11.1 C 35 % -3.76 C
1929 31-03-2020 17:40:00 11.1 C 35 % -3.76 C
1930 31-03-2020 17:45:00 11 C 36 % -3.47 C
1931 31-03-2020 17:50:00 10.9 C 34 % -4.32 C
1932 31-03-2020 17:55:00 10.5 C 35 % -4.29 C
1933 31-03-2020 18:00:00 10.5 C 35 % -4.29 C
1934 31-03-2020 18:05:00 10.7 C 35 % -4.11 C
1935 31-03-2020 18:10:00 10.8 C 36 % -3.65 C
1936 31-03-2020 18:15:00 11.2 C 36 % -3.3 C
1937 31-03-2020 18:20:00 11.3 C 35 % -3.58 C
1938 31-03-2020 18:25:00 10.9 C 35 % -3.94 C
1939 31-03-2020 18:30:00 10.7 C 37 % -3.38 C
1940 31-03-2020 18:35:00 10.7 C 36 % -3.74 C
1941 31-03-2020 18:40:00 10.6 C 36 % -3.83 C
1942 31-03-2020 18:45:00 10.6 C 37 % -3.46 C
1943 31-03-2020 18:50:00 10.7 C 35 % -4.11 C
1944 31-03-2020 18:55:00 10.6 C 36 % -3.83 C
1945 31-03-2020 19:00:00 10.6 C 36 % -3.83 C
1946 31-03-2020 19:05:00 10.3 C 37 % -3.73 C
1947 31-03-2020 19:10:00 10.1 C 36 % -4.27 C
1948 31-03-2020 19:15:00 10.1 C 37 % -3.91 C
1949 31-03-2020 19:20:00 10.1 C 37 % -3.91 C
1950 31-03-2020 19:25:00 9.9 C 37 % -4.09 C
Sensor: Nr:Datum:Temp:Feuchte:Taupunkt:
Aussen-T/F 1951 31-03-2020 19:30:00 9.8 C 38 % -3.82 C
1952 31-03-2020 19:35:00 9.7 C 41 % -2.9 C
1953 31-03-2020 19:40:00 9.4 C 41 % -3.17 C
1954 31-03-2020 19:45:00 9.2 C 44 % -2.4 C
1955 31-03-2020 19:50:00 8.7 C 47 % -1.97 C
1956 31-03-2020 19:55:00 8.2 C 48 % -2.14 C
1957 31-03-2020 20:00:00 7.6 C 51 % -1.87 C
1958 31-03-2020 20:05:00 7 C 52 % -2.17 C
1959 31-03-2020 20:10:00 6.5 C 54 % -2.12 C
1960 31-03-2020 20:15:00 6.1 C 56 % -2 C
1961 31-03-2020 20:20:00 5.7 C 56 % -2.38 C
1962 31-03-2020 20:25:00 5.3 C 58 % -2.28 C
1963 31-03-2020 20:30:00 5.1 C 59 % -2.24 C
1964 31-03-2020 20:35:00 4.8 C 60 % -2.29 C
1965 31-03-2020 20:40:00 4.6 C 61 % -2.26 C
1966 31-03-2020 20:45:00 4.4 C 61 % -2.45 C
1967 31-03-2020 20:50:00 4.2 C 62 % -2.42 C
1968 31-03-2020 20:55:00 4.1 C 63 % -2.3 C
1969 31-03-2020 21:00:00 3.9 C 63 % -2.49 C
1970 31-03-2020 21:05:00 3.8 C 64 % -2.37 C
1971 31-03-2020 21:10:00 3.7 C 64 % -2.46 C
1972 31-03-2020 21:15:00 3.6 C 64 % -2.56 C
1973 31-03-2020 21:20:00 3.5 C 64 % -2.65 C
1974 31-03-2020 21:25:00 3.4 C 65 % -2.54 C
1975 31-03-2020 21:30:00 3.3 C 64 % -2.84 C
Sensor: Nr:Datum:Temp:Feuchte:Taupunkt:
Aussen-T/F 1976 31-03-2020 21:35:00 3.3 C 65 % -2.64 C
1977 31-03-2020 21:40:00 3.2 C 66 % -2.53 C
1978 31-03-2020 21:45:00 3.1 C 66 % -2.62 C
1979 31-03-2020 21:50:00 3 C 66 % -2.72 C
1980 31-03-2020 21:55:00 2.9 C 66 % -2.81 C
1981 31-03-2020 22:00:00 2.8 C 66 % -2.91 C
1982 31-03-2020 22:05:00 2.8 C 67 % -2.7 C
1983 31-03-2020 22:10:00 2.7 C 67 % -2.8 C
1984 31-03-2020 22:15:00 2.6 C 68 % -2.7 C
1985 31-03-2020 22:20:00 2.5 C 68 % -2.79 C
1986 31-03-2020 22:25:00 2.4 C 68 % -2.89 C
1987 31-03-2020 22:30:00 2.3 C 68 % -2.98 C
1988 31-03-2020 22:35:00 2.3 C 69 % -2.79 C
1989 31-03-2020 22:40:00 2.2 C 69 % -2.88 C
1990 31-03-2020 22:45:00 2.2 C 70 % -2.69 C
1991 31-03-2020 22:50:00 2.1 C 69 % -2.98 C
1992 31-03-2020 22:55:00 2 C 70 % -2.88 C
1993 31-03-2020 23:00:00 1.9 C 70 % -2.98 C
1994 31-03-2020 23:05:00 1.8 C 71 % -2.88 C
1995 31-03-2020 23:10:00 1.7 C 71 % -2.98 C
1996 31-03-2020 23:15:00 1.7 C 72 % -2.79 C
1997 31-03-2020 23:20:00 1.6 C 72 % -2.89 C
1998 31-03-2020 23:25:00 1.4 C 73 % -2.9 C
1999 31-03-2020 23:30:00 1.3 C 73 % -2.99 C
2000 31-03-2020 23:35:00 1.2 C 73 % -3.09 C
Sensor: Nr:Datum:Temp:Feuchte:Taupunkt:
Aussen-T/F 2001 31-03-2020 23:40:00 1.2 C 74 % -2.91 C
2002 31-03-2020 23:45:00 1.1 C 74 % -3 C
2003 31-03-2020 23:50:00 1.1 C 74 % -3 C
2004 31-03-2020 23:55:00 1.1 C 74 % -3 C
2005 01-04-2020 00:00:00 1 C 74 % -3.1 C
2006 01-04-2020 00:05:00 0.9 C 74 % -3.2 C
2007 01-04-2020 00:10:00 0.8 C 75 % -3.11 C
2008 01-04-2020 00:15:00 0.8 C 75 % -3.11 C
2009 01-04-2020 00:20:00 0.7 C 75 % -3.21 C
2010 01-04-2020 00:25:00 0.6 C 75 % -3.31 C
2011 01-04-2020 00:30:00 0.6 C 75 % -3.31 C
2012 01-04-2020 00:35:00 0.4 C 75 % -3.5 C
2013 01-04-2020 00:40:00 0.4 C 75 % -3.5 C
2014 01-04-2020 00:45:00 0.3 C 76 % -3.42 C
2015 01-04-2020 00:50:00 0.3 C 75 % -3.6 C
2016 01-04-2020 00:55:00 0.3 C 76 % -3.42 C
2017 01-04-2020 01:00:00 0.2 C 76 % -3.52 C
2018 01-04-2020 01:05:00 0.2 C 77 % -3.34 C
2019 01-04-2020 01:10:00 0.1 C 77 % -3.44 C
2020 01-04-2020 01:15:00 0.1 C 78 % -3.27 C
2021 01-04-2020 01:20:00 0 C 78 % -3.37 C
2022 01-04-2020 01:25:00 -0.1 C 78 % -3.47 C
2023 01-04-2020 01:30:00 -0.2 C 78 % -3.56 C
2024 01-04-2020 01:35:00 -0.2 C 78 % -3.56 C
2025 01-04-2020 01:40:00 -0.3 C 79 % -3.49 C
Sensor: Nr:Datum:Temp:Feuchte:Taupunkt:
Aussen-T/F 2026 01-04-2020 01:45:00 -0.4 C 79 % -3.59 C
2027 01-04-2020 01:50:00 -0.5 C 79 % -3.69 C
2028 01-04-2020 01:55:00 -0.6 C 79 % -3.78 C
2029 01-04-2020 02:00:00 -0.7 C 79 % -3.88 C
2030 01-04-2020 02:05:00 -0.8 C 79 % -3.98 C
2031 01-04-2020 02:10:00 -0.8 C 80 % -3.81 C
2032 01-04-2020 02:15:00 -0.9 C 80 % -3.91 C
2033 01-04-2020 02:20:00 -0.9 C 80 % -3.91 C
2034 01-04-2020 02:25:00 -1 C 80 % -4.01 C
2035 01-04-2020 02:30:00 -1.1 C 80 % -4.1 C
2036 01-04-2020 02:35:00 -1.1 C 80 % -4.1 C
2037 01-04-2020 02:40:00 -1.2 C 80 % -4.2 C
2038 01-04-2020 02:45:00 -1.2 C 81 % -4.04 C
2039 01-04-2020 02:50:00 -1.3 C 81 % -4.13 C
2040 01-04-2020 02:55:00 -1.3 C 81 % -4.13 C
2041 01-04-2020 03:00:00 -1.3 C 81 % -4.13 C
2042 01-04-2020 03:05:00 -1.4 C 80 % -4.4 C
2043 01-04-2020 03:10:00 -1.4 C 80 % -4.4 C
2044 01-04-2020 03:15:00 -1.5 C 80 % -4.49 C
2045 01-04-2020 03:20:00 -1.6 C 81 % -4.43 C
2046 01-04-2020 03:25:00 -1.7 C 81 % -4.52 C
2047 01-04-2020 03:30:00 -1.7 C 81 % -4.52 C
2048 01-04-2020 03:35:00 -1.7 C 81 % -4.52 C
2049 01-04-2020 03:40:00 -1.8 C 81 % -4.62 C
2050 01-04-2020 03:45:00 -1.8 C 80 % -4.79 C
Sensor: Nr:Datum:Temp:Feuchte:Taupunkt:
Aussen-T/F 2051 01-04-2020 03:50:00 -1.9 C 81 % -4.72 C
2052 01-04-2020 03:55:00 -1.9 C 81 % -4.72 C
2053 01-04-2020 04:00:00 -1.9 C 81 % -4.72 C
2054 01-04-2020 04:05:00 -1.9 C 81 % -4.72 C
2055 01-04-2020 04:10:00 -2 C 81 % -4.82 C
2056 01-04-2020 04:15:00 -2.1 C 81 % -4.91 C
2057 01-04-2020 04:20:00 -2.1 C 81 % -4.91 C
2058 01-04-2020 04:25:00 -2.2 C 80 % -5.18 C
2059 01-04-2020 04:30:00 -2.2 C 81 % -5.01 C
2060 01-04-2020 04:35:00 -2.3 C 81 % -5.11 C
2061 01-04-2020 04:40:00 -2.3 C 81 % -5.11 C
2062 01-04-2020 04:45:00 -2.3 C 81 % -5.11 C
2063 01-04-2020 04:50:00 -2.4 C 81 % -5.21 C
2064 01-04-2020 04:55:00 -2.4 C 81 % -5.21 C
2065 01-04-2020 05:00:00 -2.4 C 82 % -5.05 C
2066 01-04-2020 05:05:00 -2.5 C 82 % -5.14 C
2067 01-04-2020 05:10:00 -2.6 C 82 % -5.24 C
2068 01-04-2020 05:15:00 -2.6 C 82 % -5.24 C
2069 01-04-2020 05:20:00 -2.7 C 82 % -5.34 C
2070 01-04-2020 05:25:00 -2.7 C 83 % -5.18 C
2071 01-04-2020 05:30:00 -2.7 C 83 % -5.18 C
2072 01-04-2020 05:35:00 -2.7 C 83 % -5.18 C
2073 01-04-2020 05:40:00 -2.7 C 83 % -5.18 C
2074 01-04-2020 05:45:00 -2.8 C 83 % -5.28 C
2075 01-04-2020 05:50:00 -2.8 C 83 % -5.28 C
Sensor: Nr:Datum:Temp:Feuchte:Taupunkt:
Aussen-T/F 2076 01-04-2020 05:55:00 -2.8 C 83 % -5.28 C
2077 01-04-2020 06:00:00 -2.9 C 83 % -5.38 C
2078 01-04-2020 06:05:00 -2.9 C 83 % -5.38 C
2079 01-04-2020 06:10:00 -2.9 C 84 % -5.22 C
2080 01-04-2020 06:15:00 -3 C 84 % -5.32 C
2081 01-04-2020 06:20:00 -3 C 84 % -5.32 C
2082 01-04-2020 06:25:00 -3.1 C 84 % -5.41 C
2083 01-04-2020 06:30:00 -3.1 C 84 % -5.41 C
2084 01-04-2020 06:35:00 -3.1 C 85 % -5.26 C
2085 01-04-2020 06:40:00 -3.1 C 85 % -5.26 C
2086 01-04-2020 06:45:00 -3.1 C 85 % -5.26 C
2087 01-04-2020 06:50:00 -3.2 C 85 % -5.36 C
2088 01-04-2020 06:55:00 -3.2 C 85 % -5.36 C
2089 01-04-2020 07:00:00 -3.2 C 85 % -5.36 C
2090 01-04-2020 07:05:00 -3.3 C 85 % -5.45 C
2091 01-04-2020 07:10:00 -3.3 C 85 % -5.45 C
2092 01-04-2020 07:15:00 -3.4 C 85 % -5.55 C
2093 01-04-2020 07:20:00 -3.4 C 85 % -5.55 C
2094 01-04-2020 07:25:00 -3.4 C 85 % -5.55 C
2095 01-04-2020 07:30:00 -3.4 C 86 % -5.4 C
2096 01-04-2020 07:35:00 -3.3 C 86 % -5.3 C
2097 01-04-2020 07:40:00 -3.3 C 85 % -5.45 C
2098 01-04-2020 07:45:00 -3.3 C 85 % -5.45 C
2099 01-04-2020 07:50:00 -3.3 C 86 % -5.3 C
2100 01-04-2020 07:55:00 -3.3 C 86 % -5.3 C
Sensor: Nr:Datum:Temp:Feuchte:Taupunkt:
Aussen-T/F 2101 01-04-2020 08:00:00 -3.2 C 86 % -5.2 C
2102 01-04-2020 08:05:00 -3.2 C 86 % -5.2 C
2103 01-04-2020 08:10:00 -3.2 C 86 % -5.2 C
2104 01-04-2020 08:15:00 -3.1 C 87 % -4.95 C
2105 01-04-2020 08:20:00 -2.9 C 87 % -4.76 C
2106 01-04-2020 08:25:00 -2.9 C 87 % -4.76 C
2107 01-04-2020 08:30:00 -2.9 C 86 % -4.91 C
2108 01-04-2020 08:35:00 -2.8 C 86 % -4.81 C
2109 01-04-2020 08:40:00 -2.8 C 86 % -4.81 C
2110 01-04-2020 08:45:00 -2.8 C 86 % -4.81 C
2111 01-04-2020 08:50:00 -2.8 C 86 % -4.81 C
2112 01-04-2020 08:55:00 -2.7 C 86 % -4.71 C
2113 01-04-2020 09:00:00 -2.6 C 85 % -4.77 C
2114 01-04-2020 09:05:00 -2.6 C 85 % -4.77 C
2115 01-04-2020 09:10:00 -2.4 C 85 % -4.57 C
2116 01-04-2020 09:15:00 -2.3 C 85 % -4.47 C
2117 01-04-2020 09:20:00 -2.3 C 85 % -4.47 C
2118 01-04-2020 09:25:00 -2.2 C 85 % -4.37 C
2119 01-04-2020 09:30:00 -2.1 C 85 % -4.28 C
2120 01-04-2020 09:35:00 -1.9 C 84 % -4.24 C
2121 01-04-2020 09:40:00 -1.8 C 84 % -4.14 C
2122 01-04-2020 09:45:00 -1.7 C 84 % -4.04 C
2123 01-04-2020 09:50:00 -1.7 C 84 % -4.04 C
2124 01-04-2020 09:55:00 -1.6 C 84 % -3.94 C
2125 01-04-2020 10:00:00 -1.4 C 84 % -3.75 C
Sensor: Nr:Datum:Temp:Feuchte:Taupunkt:
Aussen-T/F 2126 01-04-2020 10:05:00 -1.3 C 84 % -3.65 C
2127 01-04-2020 10:10:00 -1.1 C 84 % -3.45 C
2128 01-04-2020 10:15:00 -0.9 C 84 % -3.26 C
2129 01-04-2020 10:20:00 -0.6 C 84 % -2.96 C
2130 01-04-2020 10:25:00 -0.3 C 83 % -2.83 C
2131 01-04-2020 10:30:00 -0.1 C 83 % -2.63 C
2132 01-04-2020 10:35:00 0.2 C 82 % -2.5 C
2133 01-04-2020 10:40:00 0.6 C 82 % -2.11 C
2134 01-04-2020 10:45:00 0.9 C 81 % -1.98 C
2135 01-04-2020 10:50:00 1.3 C 79 % -1.93 C
2136 01-04-2020 10:55:00 1.8 C 78 % -1.62 C
2137 01-04-2020 11:00:00 2.3 C 76 % -1.48 C
2138 01-04-2020 11:05:00 2.6 C 75 % -1.37 C
2139 01-04-2020 11:10:00 2.8 C 74 % -1.36 C
2140 01-04-2020 11:15:00 3.1 C 71 % -1.63 C
2141 01-04-2020 11:20:00 3.3 C 69 % -1.83 C
2142 01-04-2020 11:25:00 3.7 C 64 % -2.46 C
2143 01-04-2020 11:30:00 3.9 C 62 % -2.7 C
2144 01-04-2020 11:35:00 4.3 C 58 % -3.22 C
2145 01-04-2020 11:40:00 4.7 C 59 % -2.61 C
2146 01-04-2020 11:45:00 5.1 C 57 % -2.7 C
2147 01-04-2020 11:50:00 5.4 C 54 % -3.14 C
2148 01-04-2020 11:55:00 5.7 C 50 % -3.89 C
2149 01-04-2020 12:00:00 6 C 50 % -3.62 C
2150 01-04-2020 12:05:00 6.3 C 48 % -3.88 C
Sensor: Nr:Datum:Temp:Feuchte:Taupunkt:
Aussen-T/F 2151 01-04-2020 12:10:00 6.7 C 48 % -3.52 C
2152 01-04-2020 12:15:00 6.8 C 47 % -3.71 C
2153 01-04-2020 12:20:00 7.1 C 46 % -3.72 C
2154 01-04-2020 12:25:00 7.3 C 47 % -3.25 C
2155 01-04-2020 12:30:00 7.6 C 45 % -3.55 C
2156 01-04-2020 12:35:00 7.7 C 45 % -3.46 C
2157 01-04-2020 12:40:00 7.8 C 44 % -3.67 C
2158 01-04-2020 12:45:00 7.9 C 43 % -3.89 C
2159 01-04-2020 12:50:00 8.1 C 44 % -3.4 C
2160 01-04-2020 12:55:00 8.2 C 43 % -3.62 C
2161 01-04-2020 13:00:00 8.3 C 44 % -3.22 C
2162 01-04-2020 13:05:00 8.6 C 42 % -3.57 C
2163 01-04-2020 13:10:00 8.6 C 42 % -3.57 C
2164 01-04-2020 13:15:00 8.7 C 42 % -3.48 C
2165 01-04-2020 13:20:00 8.8 C 41 % -3.71 C
2166 01-04-2020 13:25:00 8.7 C 40 % -4.13 C
2167 01-04-2020 13:30:00 8.7 C 41 % -3.8 C
2168 01-04-2020 13:35:00 8.8 C 41 % -3.71 C
2169 01-04-2020 13:40:00 8.9 C 41 % -3.62 C
2170 01-04-2020 13:45:00 9.2 C 40 % -3.68 C
2171 01-04-2020 13:50:00 9.2 C 40 % -3.68 C
2172 01-04-2020 13:55:00 9.2 C 40 % -3.68 C
2173 01-04-2020 14:00:00 9.2 C 40 % -3.68 C
2174 01-04-2020 14:05:00 9.3 C 40 % -3.59 C
2175 01-04-2020 14:10:00 9.4 C 40 % -3.5 C
Sensor: Nr:Datum:Temp:Feuchte:Taupunkt:
Aussen-T/F 2176 01-04-2020 14:15:00 9.5 C 39 % -3.74 C
2177 01-04-2020 14:20:00 9.8 C 40 % -3.14 C
2178 01-04-2020 14:25:00 9.9 C 40 % -3.05 C
2179 01-04-2020 14:30:00 10.1 C 38 % -3.55 C
2180 01-04-2020 14:35:00 10.3 C 37 % -3.73 C
2181 01-04-2020 14:40:00 10.3 C 36 % -4.1 C
2182 01-04-2020 14:45:00 10.3 C 37 % -3.73 C
2183 01-04-2020 14:50:00 10.3 C 34 % -4.85 C
2184 01-04-2020 14:55:00 10.3 C 34 % -4.85 C
2185 01-04-2020 15:00:00 10.3 C 34 % -4.85 C
2186 01-04-2020 15:05:00 10.2 C 34 % -4.94 C
2187 01-04-2020 15:10:00 10.3 C 35 % -4.47 C
2188 01-04-2020 15:15:00 10.4 C 36 % -4.01 C
2189 01-04-2020 15:20:00 10.7 C 34 % -4.5 C
2190 01-04-2020 15:25:00 10.8 C 33 % -4.81 C
2191 01-04-2020 15:30:00 10.7 C 33 % -4.89 C
2192 01-04-2020 15:35:00 10.7 C 33 % -4.89 C
2193 01-04-2020 15:40:00 10.8 C 33 % -4.81 C
2194 01-04-2020 15:45:00 10.9 C 31 % -5.54 C
2195 01-04-2020 15:50:00 11 C 31 % -5.45 C
2196 01-04-2020 15:55:00 11.1 C 31 % -5.37 C
2197 01-04-2020 16:00:00 11.1 C 33 % -4.54 C
2198 01-04-2020 16:05:00 11.1 C 33 % -4.54 C
2199 01-04-2020 16:10:00 11.2 C 34 % -4.06 C
2200 01-04-2020 16:15:00 11.4 C 33 % -4.28 C
Sensor: Nr:Datum:Temp:Feuchte:Taupunkt:
Aussen-T/F 2201 01-04-2020 16:20:00 11.5 C 32 % -4.6 C
2202 01-04-2020 16:25:00 11.6 C 31 % -4.93 C
2203 01-04-2020 16:30:00 11.6 C 31 % -4.93 C
2204 01-04-2020 16:35:00 11.7 C 30 % -5.27 C
2205 01-04-2020 16:40:00 11.8 C 33 % -3.93 C
2206 01-04-2020 16:45:00 12.2 C 32 % -3.99 C
2207 01-04-2020 16:50:00 12.6 C 32 % -3.64 C
2208 01-04-2020 16:55:00 12.6 C 33 % -3.23 C
2209 01-04-2020 17:00:00 12.6 C 32 % -3.64 C
2210 01-04-2020 17:05:00 12.4 C 32 % -3.81 C
2211 01-04-2020 17:10:00 12.9 C 36 % -1.79 C
2212 01-04-2020 17:15:00 13.2 C 33 % -2.7 C
2213 01-04-2020 17:20:00 13.2 C 32 % -3.11 C
2214 01-04-2020 17:25:00 13.3 C 33 % -2.61 C
2215 01-04-2020 17:30:00 13.2 C 31 % -3.54 C
2216 01-04-2020 17:35:00 13.3 C 31 % -3.45 C
2217 01-04-2020 17:40:00 13.3 C 31 % -3.45 C
2218 01-04-2020 17:45:00 13.2 C 32 % -3.11 C
2219 01-04-2020 17:50:00 13.2 C 32 % -3.11 C
2220 01-04-2020 17:55:00 13.1 C 32 % -3.2 C
2221 01-04-2020 18:00:00 12.9 C 32 % -3.37 C
2222 01-04-2020 18:05:00 12.6 C 33 % -3.23 C
2223 01-04-2020 18:10:00 12.5 C 33 % -3.31 C
2224 01-04-2020 18:15:00 12.6 C 33 % -3.23 C
2225 01-04-2020 18:20:00 12.7 C 33 % -3.14 C
Sensor: Nr:Datum:Temp:Feuchte:Taupunkt:
Aussen-T/F 2226 01-04-2020 18:25:00 12.9 C 33 % -2.96 C
2227 01-04-2020 18:30:00 12.9 C 32 % -3.37 C
2228 01-04-2020 18:35:00 13 C 33 % -2.87 C
2229 01-04-2020 18:40:00 13.1 C 33 % -2.79 C
2230 01-04-2020 18:45:00 13.2 C 32 % -3.11 C
2231 01-04-2020 18:50:00 13.2 C 32 % -3.11 C
2232 01-04-2020 18:55:00 13.2 C 33 % -2.7 C
2233 01-04-2020 19:00:00 13.3 C 32 % -3.02 C
2234 01-04-2020 19:05:00 13 C 33 % -2.87 C
2235 01-04-2020 19:10:00 12.8 C 33 % -3.05 C
2236 01-04-2020 19:15:00 12.7 C 33 % -3.14 C
2237 01-04-2020 19:20:00 12.4 C 34 % -3 C
2238 01-04-2020 19:25:00 12.2 C 34 % -3.18 C
2239 01-04-2020 19:30:00 11.8 C 34 % -3.53 C
2240 01-04-2020 19:35:00 11.5 C 35 % -3.41 C
2241 01-04-2020 19:40:00 11.2 C 35 % -3.67 C
2242 01-04-2020 19:45:00 10.9 C 36 % -3.56 C
2243 01-04-2020 19:50:00 10.7 C 36 % -3.74 C
2244 01-04-2020 19:55:00 10.4 C 39 % -2.94 C
2245 01-04-2020 20:00:00 10.1 C 38 % -3.55 C
2246 01-04-2020 20:05:00 9.7 C 40 % -3.23 C
2247 01-04-2020 20:10:00 9.4 C 42 % -2.84 C
2248 01-04-2020 20:15:00 9.2 C 39 % -4.01 C
2249 01-04-2020 20:20:00 9.1 C 39 % -4.1 C
2250 01-04-2020 20:25:00 9.1 C 41 % -3.44 C
Sensor: Nr:Datum:Temp:Feuchte:Taupunkt:
Aussen-T/F 2251 01-04-2020 20:30:00 8.8 C 44 % -2.76 C
2252 01-04-2020 20:35:00 8.4 C 46 % -2.53 C
2253 01-04-2020 20:40:00 7.8 C 49 % -2.23 C
2254 01-04-2020 20:45:00 7.4 C 51 % -2.06 C
2255 01-04-2020 20:50:00 6.9 C 54 % -1.75 C
2256 01-04-2020 20:55:00 6.6 C 54 % -2.03 C
2257 01-04-2020 21:00:00 6.3 C 55 % -2.06 C
2258 01-04-2020 21:05:00 6 C 56 % -2.1 C
2259 01-04-2020 21:10:00 5.7 C 57 % -2.14 C
2260 01-04-2020 21:15:00 5.6 C 57 % -2.23 C
2261 01-04-2020 21:20:00 5.4 C 59 % -1.95 C
2262 01-04-2020 21:25:00 5.3 C 59 % -2.05 C
2263 01-04-2020 21:30:00 5.2 C 59 % -2.14 C
2264 01-04-2020 21:35:00 5.1 C 60 % -2.01 C
2265 01-04-2020 21:40:00 5 C 60 % -2.1 C
2266 01-04-2020 21:45:00 4.9 C 61 % -1.97 C
2267 01-04-2020 21:50:00 4.7 C 62 % -1.94 C
2268 01-04-2020 21:55:00 4.6 C 63 % -1.82 C
2269 01-04-2020 22:00:00 4.4 C 62 % -2.23 C
2270 01-04-2020 22:05:00 4.3 C 63 % -2.11 C
2271 01-04-2020 22:10:00 4.2 C 64 % -1.99 C
2272 01-04-2020 22:15:00 4 C 64 % -2.18 C
2273 01-04-2020 22:20:00 3.9 C 65 % -2.06 C
2274 01-04-2020 22:25:00 3.7 C 66 % -2.05 C
2275 01-04-2020 22:30:00 3.6 C 66 % -2.14 C
Sensor: Nr:Datum:Temp:Feuchte:Taupunkt:
Aussen-T/F 2276 01-04-2020 22:35:00 3.5 C 66 % -2.24 C
2277 01-04-2020 22:40:00 3.5 C 66 % -2.24 C
2278 01-04-2020 22:45:00 3.4 C 66 % -2.33 C
2279 01-04-2020 22:50:00 3.3 C 67 % -2.23 C
2280 01-04-2020 22:55:00 3.2 C 68 % -2.12 C
2281 01-04-2020 23:00:00 3.1 C 69 % -2.02 C
2282 01-04-2020 23:05:00 2.9 C 70 % -2.02 C
2283 01-04-2020 23:10:00 2.7 C 70 % -2.21 C
2284 01-04-2020 23:15:00 2.7 C 71 % -2.02 C
2285 01-04-2020 23:20:00 2.7 C 71 % -2.02 C
2286 01-04-2020 23:25:00 2.6 C 72 % -1.93 C
2287 01-04-2020 23:30:00 2.4 C 71 % -2.31 C
2288 01-04-2020 23:35:00 2.3 C 71 % -2.4 C
2289 01-04-2020 23:40:00 2.2 C 72 % -2.31 C
2290 01-04-2020 23:45:00 2 C 73 % -2.32 C
2291 01-04-2020 23:50:00 1.9 C 73 % -2.41 C
2292 01-04-2020 23:55:00 1.8 C 73 % -2.51 C
2293 02-04-2020 00:00:00 1.8 C 73 % -2.51 C
2294 02-04-2020 00:05:00 1.6 C 74 % -2.52 C
2295 02-04-2020 00:10:00 1.4 C 74 % -2.71 C
2296 02-04-2020 00:15:00 1.3 C 74 % -2.81 C
2297 02-04-2020 00:20:00 1.3 C 74 % -2.81 C
2298 02-04-2020 00:25:00 1.2 C 74 % -2.91 C
2299 02-04-2020 00:30:00 1.1 C 75 % -2.82 C
2300 02-04-2020 00:35:00 1 C 75 % -2.92 C
Sensor: Nr:Datum:Temp:Feuchte:Taupunkt:
Aussen-T/F 2301 02-04-2020 00:40:00 1 C 76 % -2.74 C
2302 02-04-2020 00:45:00 1 C 76 % -2.74 C
2303 02-04-2020 00:50:00 1 C 76 % -2.74 C
2304 02-04-2020 00:55:00 0.9 C 76 % -2.84 C
2305 02-04-2020 01:00:00 0.8 C 77 % -2.76 C
2306 02-04-2020 01:05:00 0.8 C 77 % -2.76 C
2307 02-04-2020 01:10:00 0.7 C 77 % -2.86 C
2308 02-04-2020 01:15:00 0.6 C 78 % -2.78 C
2309 02-04-2020 01:20:00 0.5 C 78 % -2.88 C
2310 02-04-2020 01:25:00 0.3 C 79 % -2.9 C
2311 02-04-2020 01:30:00 0.3 C 79 % -2.9 C
2312 02-04-2020 01:35:00 0.2 C 79 % -3 C
2313 02-04-2020 01:40:00 0.2 C 79 % -3 C
2314 02-04-2020 01:45:00 0.2 C 79 % -3 C
2315 02-04-2020 01:50:00 0.1 C 80 % -2.93 C
2316 02-04-2020 01:55:00 0.1 C 80 % -2.93 C
2317 02-04-2020 02:00:00 0 C 80 % -3.03 C
2318 02-04-2020 02:05:00 0 C 80 % -3.03 C
2319 02-04-2020 02:10:00 0.1 C 80 % -2.93 C
2320 02-04-2020 02:15:00 0 C 80 % -3.03 C
2321 02-04-2020 02:20:00 -0.1 C 80 % -3.13 C
2322 02-04-2020 02:25:00 -0.1 C 80 % -3.13 C
2323 02-04-2020 02:30:00 -0.2 C 81 % -3.06 C
2324 02-04-2020 02:35:00 -0.3 C 81 % -3.16 C
2325 02-04-2020 02:40:00 -0.3 C 81 % -3.16 C
Sensor: Nr:Datum:Temp:Feuchte:Taupunkt:
Aussen-T/F 2326 02-04-2020 02:45:00 -0.4 C 81 % -3.25 C
2327 02-04-2020 02:50:00 -0.4 C 81 % -3.25 C
2328 02-04-2020 02:55:00 -0.5 C 82 % -3.19 C
2329 02-04-2020 03:00:00 -0.6 C 82 % -3.29 C
2330 02-04-2020 03:05:00 -0.6 C 82 % -3.29 C
2331 02-04-2020 03:10:00 -0.6 C 82 % -3.29 C
2332 02-04-2020 03:15:00 -0.5 C 82 % -3.19 C
2333 02-04-2020 03:20:00 -0.5 C 82 % -3.19 C
2334 02-04-2020 03:25:00 -0.5 C 82 % -3.19 C
2335 02-04-2020 03:30:00 -0.6 C 82 % -3.29 C
2336 02-04-2020 03:35:00 -0.6 C 82 % -3.29 C
2337 02-04-2020 03:40:00 -0.6 C 82 % -3.29 C
2338 02-04-2020 03:45:00 -0.6 C 82 % -3.29 C
2339 02-04-2020 03:50:00 -0.6 C 83 % -3.12 C
2340 02-04-2020 03:55:00 -0.7 C 83 % -3.22 C
2341 02-04-2020 04:00:00 -0.7 C 82 % -3.38 C
2342 02-04-2020 04:05:00 -0.8 C 83 % -3.32 C
2343 02-04-2020 04:10:00 -0.7 C 83 % -3.22 C
2344 02-04-2020 04:15:00 -0.7 C 83 % -3.22 C
2345 02-04-2020 04:20:00 -0.6 C 83 % -3.12 C
2346 02-04-2020 04:25:00 -0.6 C 83 % -3.12 C
2347 02-04-2020 04:30:00 -0.6 C 83 % -3.12 C
2348 02-04-2020 04:35:00 -0.7 C 82 % -3.38 C
2349 02-04-2020 04:40:00 -0.9 C 82 % -3.58 C
2350 02-04-2020 04:45:00 -1.1 C 83 % -3.61 C
Sensor: Nr:Datum:Temp:Feuchte:Taupunkt:
Aussen-T/F 2351 02-04-2020 04:50:00 -1.2 C 83 % -3.71 C
2352 02-04-2020 04:55:00 -1.3 C 83 % -3.81 C
2353 02-04-2020 05:00:00 -1.4 C 84 % -3.75 C
2354 02-04-2020 05:05:00 -1.4 C 84 % -3.75 C
2355 02-04-2020 05:10:00 -1.5 C 84 % -3.85 C
2356 02-04-2020 05:15:00 -1.6 C 85 % -3.79 C
2357 02-04-2020 05:20:00 -1.6 C 85 % -3.79 C
2358 02-04-2020 05:25:00 -1.6 C 85 % -3.79 C
2359 02-04-2020 05:30:00 -1.6 C 85 % -3.79 C
2360 02-04-2020 05:35:00 -1.6 C 85 % -3.79 C
2361 02-04-2020 05:40:00 -1.7 C 85 % -3.88 C
2362 02-04-2020 05:45:00 -1.7 C 86 % -3.73 C
2363 02-04-2020 05:50:00 -1.6 C 86 % -3.63 C
2364 02-04-2020 05:55:00 -1.5 C 86 % -3.53 C
2365 02-04-2020 06:00:00 -1.5 C 86 % -3.53 C
2366 02-04-2020 06:05:00 -1.6 C 86 % -3.63 C
2367 02-04-2020 06:10:00 -1.6 C 86 % -3.63 C
2368 02-04-2020 06:15:00 -1.7 C 85 % -3.88 C
2369 02-04-2020 06:20:00 -1.8 C 85 % -3.98 C
2370 02-04-2020 06:25:00 -1.8 C 86 % -3.83 C
2371 02-04-2020 06:30:00 -1.8 C 87 % -3.67 C
2372 02-04-2020 06:35:00 -1.7 C 87 % -3.57 C
2373 02-04-2020 06:40:00 -1.8 C 86 % -3.83 C
2374 02-04-2020 06:45:00 -1.8 C 86 % -3.83 C
2375 02-04-2020 06:50:00 -1.8 C 87 % -3.67 C
Sensor: Nr:Datum:Temp:Feuchte:Taupunkt:
Aussen-T/F 2376 02-04-2020 06:55:00 -1.8 C 87 % -3.67 C
2377 02-04-2020 07:00:00 -1.8 C 86 % -3.83 C
2378 02-04-2020 07:05:00 -1.9 C 86 % -3.92 C
2379 02-04-2020 07:10:00 -2 C 86 % -4.02 C
2380 02-04-2020 07:15:00 -2 C 87 % -3.87 C
2381 02-04-2020 07:20:00 -1.9 C 87 % -3.77 C
2382 02-04-2020 07:25:00 -1.9 C 87 % -3.77 C
2383 02-04-2020 07:30:00 -1.9 C 87 % -3.77 C
2384 02-04-2020 07:35:00 -1.9 C 88 % -3.62 C
2385 02-04-2020 07:40:00 -1.9 C 87 % -3.77 C
2386 02-04-2020 07:45:00 -1.9 C 87 % -3.77 C
2387 02-04-2020 07:50:00 -1.9 C 87 % -3.77 C
2388 02-04-2020 07:55:00 -1.8 C 88 % -3.52 C
2389 02-04-2020 08:00:00 -1.8 C 88 % -3.52 C
2390 02-04-2020 08:05:00 -1.7 C 88 % -3.42 C
2391 02-04-2020 08:10:00 -1.5 C 88 % -3.22 C
2392 02-04-2020 08:15:00 -1.3 C 88 % -3.03 C
2393 02-04-2020 08:20:00 -1.3 C 87 % -3.18 C
2394 02-04-2020 08:25:00 -1.3 C 87 % -3.18 C
2395 02-04-2020 08:30:00 -1.3 C 87 % -3.18 C
2396 02-04-2020 08:35:00 -1.3 C 87 % -3.18 C
2397 02-04-2020 08:40:00 -1.3 C 87 % -3.18 C
2398 02-04-2020 08:45:00 -1.2 C 87 % -3.08 C
2399 02-04-2020 08:50:00 -1.2 C 87 % -3.08 C
2400 02-04-2020 08:55:00 -1.1 C 87 % -2.98 C
Sensor: Nr:Datum:Temp:Feuchte:Taupunkt:
Aussen-T/F 2401 02-04-2020 09:00:00 -1.1 C 87 % -2.98 C
2402 02-04-2020 09:05:00 -1 C 87 % -2.88 C
2403 02-04-2020 09:10:00 -1 C 87 % -2.88 C
2404 02-04-2020 09:15:00 -0.9 C 87 % -2.79 C
2405 02-04-2020 09:20:00 -0.8 C 87 % -2.69 C
2406 02-04-2020 09:25:00 -0.7 C 87 % -2.59 C
2407 02-04-2020 09:30:00 -0.7 C 87 % -2.59 C
2408 02-04-2020 09:35:00 -0.6 C 87 % -2.49 C
2409 02-04-2020 09:40:00 -0.4 C 87 % -2.29 C
2410 02-04-2020 09:45:00 -0.3 C 87 % -2.2 C
2411 02-04-2020 09:50:00 -0.2 C 87 % -2.1 C
2412 02-04-2020 09:55:00 0 C 87 % -1.9 C
2413 02-04-2020 10:00:00 0.2 C 87 % -1.7 C
2414 02-04-2020 10:05:00 0.3 C 87 % -1.6 C
2415 02-04-2020 10:10:00 0.5 C 87 % -1.41 C
2416 02-04-2020 10:15:00 0.7 C 87 % -1.21 C
2417 02-04-2020 10:20:00 0.8 C 87 % -1.11 C
2418 02-04-2020 10:25:00 1.1 C 87 % -0.82 C
2419 02-04-2020 10:30:00 1.3 C 86 % -0.78 C
2420 02-04-2020 10:35:00 1.6 C 86 % -0.48 C
2421 02-04-2020 10:40:00 1.9 C 85 % -0.35 C
2422 02-04-2020 10:45:00 2.3 C 84 % -0.12 C
2423 02-04-2020 10:50:00 2.8 C 82 % 0.04 C
2424 02-04-2020 10:55:00 3.2 C 80 % 0.09 C
2425 02-04-2020 11:00:00 3.7 C 79 % 0.4 C
Sensor: Nr:Datum:Temp:Feuchte:Taupunkt:
Aussen-T/F 2426 02-04-2020 11:05:00 4 C 78 % 0.52 C
2427 02-04-2020 11:10:00 4.3 C 76 % 0.45 C
2428 02-04-2020 11:15:00 4.6 C 74 % 0.38 C
2429 02-04-2020 11:20:00 4.9 C 72 % 0.29 C
2430 02-04-2020 11:25:00 5.3 C 71 % 0.48 C
2431 02-04-2020 11:30:00 5.6 C 69 % 0.37 C
2432 02-04-2020 11:35:00 5.9 C 69 % 0.66 C
2433 02-04-2020 11:40:00 6.3 C 66 % 0.43 C
2434 02-04-2020 11:45:00 6.6 C 65 % 0.5 C
2435 02-04-2020 11:50:00 6.9 C 65 % 0.79 C
2436 02-04-2020 11:55:00 7.2 C 63 % 0.64 C
2437 02-04-2020 12:00:00 7.5 C 63 % 0.92 C
2438 02-04-2020 12:05:00 7.8 C 60 % 0.53 C
2439 02-04-2020 12:10:00 8.1 C 60 % 0.82 C
2440 02-04-2020 12:15:00 8.3 C 59 % 0.77 C
2441 02-04-2020 12:20:00 8.6 C 57 % 0.58 C
2442 02-04-2020 12:25:00 8.8 C 57 % 0.76 C
2443 02-04-2020 12:30:00 9.1 C 56 % 0.8 C
2444 02-04-2020 12:35:00 9.2 C 55 % 0.64 C
2445 02-04-2020 12:40:00 9.4 C 50 % -0.48 C
2446 02-04-2020 12:45:00 9.6 C 52 % 0.24 C
2447 02-04-2020 12:50:00 9.7 C 52 % 0.33 C
2448 02-04-2020 12:55:00 9.9 C 50 % -0.02 C
2449 02-04-2020 13:00:00 10 C 49 % -0.21 C
2450 02-04-2020 13:05:00 10.1 C 49 % -0.11 C
Sensor: Nr:Datum:Temp:Feuchte:Taupunkt:
Aussen-T/F 2451 02-04-2020 13:10:00 10.2 C 50 % 0.26 C
2452 02-04-2020 13:15:00 10.5 C 48 % -0.03 C
2453 02-04-2020 13:20:00 10.7 C 46 % -0.43 C
2454 02-04-2020 13:25:00 10.8 C 45 % -0.64 C
2455 02-04-2020 13:30:00 10.8 C 42 % -1.58 C
2456 02-04-2020 13:35:00 11 C 44 % -0.77 C
2457 02-04-2020 13:40:00 11.2 C 45 % -0.28 C
2458 02-04-2020 13:45:00 11.3 C 45 % -0.19 C
2459 02-04-2020 13:50:00 11.4 C 42 % -1.04 C
2460 02-04-2020 13:55:00 11.4 C 43 % -0.72 C
2461 02-04-2020 14:00:00 11.6 C 44 % -0.22 C
2462 02-04-2020 14:05:00 11.7 C 44 % -0.13 C
2463 02-04-2020 14:10:00 11.8 C 43 % -0.36 C
2464 02-04-2020 14:15:00 11.9 C 43 % -0.27 C
2465 02-04-2020 14:20:00 12.1 C 43 % -0.08 C
2466 02-04-2020 14:25:00 12.3 C 43 % 0.1 C
2467 02-04-2020 14:30:00 12.6 C 42 % 0.04 C
2468 02-04-2020 14:35:00 12.7 C 42 % 0.13 C
2469 02-04-2020 14:40:00 12.8 C 43 % 0.55 C
2470 02-04-2020 14:45:00 12.8 C 42 % 0.22 C
2471 02-04-2020 14:50:00 12.8 C 42 % 0.22 C
2472 02-04-2020 14:55:00 12.7 C 43 % 0.46 C
2473 02-04-2020 15:00:00 12.8 C 42 % 0.22 C
2474 02-04-2020 15:05:00 12.9 C 43 % 0.64 C
2475 02-04-2020 15:10:00 13.1 C 42 % 0.5 C
Sensor: Nr:Datum:Temp:Feuchte:Taupunkt:
Aussen-T/F 2476 02-04-2020 15:15:00 13.2 C 40 % -0.09 C
2477 02-04-2020 15:20:00 13.2 C 40 % -0.09 C
2478 02-04-2020 15:25:00 13.2 C 40 % -0.09 C
2479 02-04-2020 15:30:00 13.3 C 41 % 0.34 C
2480 02-04-2020 15:35:00 13.3 C 41 % 0.34 C
2481 02-04-2020 15:40:00 13.4 C 40 % 0.09 C
2482 02-04-2020 15:45:00 13.5 C 40 % 0.18 C
2483 02-04-2020 15:50:00 13.6 C 40 % 0.27 C
2484 02-04-2020 15:55:00 13.6 C 41 % 0.61 C
2485 02-04-2020 16:00:00 13.6 C 40 % 0.27 C
2486 02-04-2020 16:05:00 13.8 C 41 % 0.79 C
2487 02-04-2020 16:10:00 13.9 C 41 % 0.88 C
2488 02-04-2020 16:15:00 13.8 C 41 % 0.79 C
2489 02-04-2020 16:20:00 13.4 C 42 % 0.77 C
2490 02-04-2020 16:25:00 13.2 C 44 % 1.23 C
2491 02-04-2020 16:30:00 13.3 C 43 % 1 C
2492 02-04-2020 16:35:00 13.3 C 43 % 1 C
2493 02-04-2020 16:40:00 13.5 C 43 % 1.18 C
2494 02-04-2020 16:45:00 13.6 C 43 % 1.27 C
2495 02-04-2020 16:50:00 13.7 C 42 % 1.04 C
2496 02-04-2020 16:55:00 13.7 C 43 % 1.36 C
2497 02-04-2020 17:00:00 13.8 C 43 % 1.45 C
2498 02-04-2020 17:05:00 13.9 C 44 % 1.86 C
2499 02-04-2020 17:10:00 13.9 C 43 % 1.54 C
2500 02-04-2020 17:15:00 14 C 44 % 1.95 C
Sensor: Nr:Datum:Temp:Feuchte:Taupunkt:
Aussen-T/F 2501 02-04-2020 17:20:00 14 C 43 % 1.63 C
2502 02-04-2020 17:25:00 13.7 C 44 % 1.68 C
2503 02-04-2020 17:30:00 13.4 C 46 % 2.03 C
2504 02-04-2020 17:35:00 13.4 C 46 % 2.03 C
2505 02-04-2020 17:40:00 13.4 C 46 % 2.03 C
2506 02-04-2020 17:45:00 13.3 C 46 % 1.94 C
2507 02-04-2020 17:50:00 13.2 C 48 % 2.44 C
2508 02-04-2020 17:55:00 13 C 49 % 2.55 C
2509 02-04-2020 18:00:00 12.8 C 50 % 2.65 C
2510 02-04-2020 18:05:00 12.7 C 50 % 2.56 C
2511 02-04-2020 18:10:00 12.5 C 50 % 2.37 C
2512 02-04-2020 18:15:00 12.4 C 51 % 2.56 C
2513 02-04-2020 18:20:00 12.4 C 51 % 2.56 C
2514 02-04-2020 18:25:00 12.3 C 50 % 2.19 C
2515 02-04-2020 18:30:00 12.2 C 51 % 2.37 C
2516 02-04-2020 18:35:00 12.1 C 50 % 2.01 C
2517 02-04-2020 18:40:00 11.9 C 51 % 2.1 C
2518 02-04-2020 18:45:00 11.8 C 50 % 1.73 C
2519 02-04-2020 18:50:00 11.7 C 51 % 1.91 C
2520 02-04-2020 18:55:00 11.6 C 51 % 1.82 C
2521 02-04-2020 19:00:00 11.4 C 50 % 1.36 C
2522 02-04-2020 19:05:00 11.3 C 51 % 1.54 C
2523 02-04-2020 19:10:00 11.3 C 51 % 1.54 C
2524 02-04-2020 19:15:00 11.1 C 51 % 1.36 C
2525 02-04-2020 19:20:00 10.9 C 51 % 1.17 C
Sensor: Nr:Datum:Temp:Feuchte:Taupunkt:
Aussen-T/F 2526 02-04-2020 19:25:00 10.8 C 52 % 1.35 C
2527 02-04-2020 19:30:00 10.7 C 52 % 1.26 C
2528 02-04-2020 19:35:00 10.5 C 52 % 1.07 C
2529 02-04-2020 19:40:00 10.3 C 53 % 1.15 C
2530 02-04-2020 19:45:00 10.1 C 53 % 0.97 C
2531 02-04-2020 19:50:00 10 C 53 % 0.87 C
2532 02-04-2020 19:55:00 9.8 C 53 % 0.69 C
2533 02-04-2020 20:00:00 9.6 C 55 % 1.02 C
2534 02-04-2020 20:05:00 9.4 C 55 % 0.83 C
2535 02-04-2020 20:10:00 9.2 C 56 % 0.89 C
2536 02-04-2020 20:15:00 9.1 C 56 % 0.8 C
2537 02-04-2020 20:20:00 9 C 57 % 0.95 C
2538 02-04-2020 20:25:00 8.9 C 58 % 1.1 C
2539 02-04-2020 20:30:00 8.7 C 58 % 0.91 C
2540 02-04-2020 20:35:00 8.6 C 59 % 1.05 C
2541 02-04-2020 20:40:00 8.5 C 59 % 0.96 C
2542 02-04-2020 20:45:00 8.3 C 60 % 1 C
2543 02-04-2020 20:50:00 8.2 C 60 % 0.91 C
2544 02-04-2020 20:55:00 8 C 61 % 0.95 C
2545 02-04-2020 21:00:00 7.7 C 62 % 0.89 C
2546 02-04-2020 21:05:00 7.4 C 63 % 0.83 C
2547 02-04-2020 21:10:00 7.3 C 64 % 0.95 C
2548 02-04-2020 21:15:00 7.1 C 65 % 0.98 C
2549 02-04-2020 21:20:00 6.8 C 66 % 0.9 C
2550 02-04-2020 21:25:00 6.6 C 67 % 0.92 C
Sensor: Nr:Datum:Temp:Feuchte:Taupunkt:
Aussen-T/F 2551 02-04-2020 21:30:00 6.4 C 68 % 0.94 C
2552 02-04-2020 21:35:00 6.2 C 69 % 0.95 C
2553 02-04-2020 21:40:00 6.2 C 69 % 0.95 C
2554 02-04-2020 21:45:00 6.1 C 69 % 0.85 C
2555 02-04-2020 21:50:00 6 C 70 % 0.95 C
2556 02-04-2020 21:55:00 5.9 C 70 % 0.86 C
2557 02-04-2020 22:00:00 5.8 C 70 % 0.76 C
2558 02-04-2020 22:05:00 5.9 C 70 % 0.86 C
2559 02-04-2020 22:10:00 5.9 C 70 % 0.86 C
2560 02-04-2020 22:15:00 6 C 70 % 0.95 C
2561 02-04-2020 22:20:00 6.1 C 70 % 1.05 C
2562 02-04-2020 22:25:00 6 C 70 % 0.95 C
2563 02-04-2020 22:30:00 5.9 C 71 % 1.06 C
2564 02-04-2020 22:35:00 5.9 C 71 % 1.06 C
2565 02-04-2020 22:40:00 5.8 C 71 % 0.96 C
2566 02-04-2020 22:45:00 5.7 C 72 % 1.06 C
2567 02-04-2020 22:50:00 5.7 C 72 % 1.06 C
2568 02-04-2020 22:55:00 5.7 C 72 % 1.06 C
2569 02-04-2020 23:00:00 5.6 C 73 % 1.15 C
2570 02-04-2020 23:05:00 5.6 C 73 % 1.15 C
2571 02-04-2020 23:10:00 5.6 C 73 % 1.15 C
2572 02-04-2020 23:15:00 5.6 C 73 % 1.15 C
2573 02-04-2020 23:20:00 5.6 C 74 % 1.34 C
2574 02-04-2020 23:25:00 5.5 C 74 % 1.24 C
2575 02-04-2020 23:30:00 5.4 C 74 % 1.15 C
Sensor: Nr:Datum:Temp:Feuchte:Taupunkt:
Aussen-T/F 2576 02-04-2020 23:35:00 5.3 C 75 % 1.24 C
2577 02-04-2020 23:40:00 5.1 C 75 % 1.04 C
2578 02-04-2020 23:45:00 4.9 C 75 % 0.85 C
2579 02-04-2020 23:50:00 4.6 C 76 % 0.74 C
2580 02-04-2020 23:55:00 4.3 C 77 % 0.63 C
2581 03-04-2020 00:00:00 4.2 C 78 % 0.71 C
2582 03-04-2020 00:05:00 3.9 C 78 % 0.42 C
2583 03-04-2020 00:10:00 3.7 C 79 % 0.4 C
2584 03-04-2020 00:15:00 3.4 C 80 % 0.29 C
2585 03-04-2020 00:20:00 3.3 C 80 % 0.19 C
2586 03-04-2020 00:25:00 3.3 C 81 % 0.36 C
2587 03-04-2020 00:30:00 3.3 C 82 % 0.53 C
2588 03-04-2020 00:35:00 3.3 C 81 % 0.36 C
2589 03-04-2020 00:40:00 3.3 C 81 % 0.36 C
2590 03-04-2020 00:45:00 3.4 C 82 % 0.63 C
2591 03-04-2020 00:50:00 3.4 C 81 % 0.46 C
2592 03-04-2020 00:55:00 3.2 C 81 % 0.26 C
2593 03-04-2020 01:00:00 3.2 C 81 % 0.26 C
2594 03-04-2020 01:05:00 3.1 C 81 % 0.16 C
2595 03-04-2020 01:10:00 2.9 C 82 % 0.14 C
2596 03-04-2020 01:15:00 3 C 82 % 0.24 C
2597 03-04-2020 01:20:00 2.9 C 82 % 0.14 C
2598 03-04-2020 01:25:00 2.9 C 83 % 0.31 C
2599 03-04-2020 01:30:00 3 C 83 % 0.4 C
2600 03-04-2020 01:35:00 3.1 C 83 % 0.5 C
Sensor: Nr:Datum:Temp:Feuchte:Taupunkt:
Aussen-T/F 2601 03-04-2020 01:40:00 3.2 C 82 % 0.43 C
2602 03-04-2020 01:45:00 3.1 C 82 % 0.33 C
2603 03-04-2020 01:50:00 3 C 82 % 0.24 C
2604 03-04-2020 01:55:00 2.9 C 82 % 0.14 C
2605 03-04-2020 02:00:00 2.9 C 83 % 0.31 C
2606 03-04-2020 02:05:00 2.8 C 83 % 0.21 C
2607 03-04-2020 02:10:00 2.8 C 83 % 0.21 C
2608 03-04-2020 02:15:00 2.8 C 83 % 0.21 C
2609 03-04-2020 02:20:00 2.9 C 84 % 0.47 C
2610 03-04-2020 02:25:00 3.1 C 83 % 0.5 C
2611 03-04-2020 02:30:00 3.2 C 83 % 0.6 C
2612 03-04-2020 02:35:00 3.3 C 83 % 0.7 C
2613 03-04-2020 02:40:00 3.4 C 82 % 0.63 C
2614 03-04-2020 02:45:00 3.3 C 82 % 0.53 C
2615 03-04-2020 02:50:00 3.3 C 82 % 0.53 C
2616 03-04-2020 02:55:00 3.4 C 82 % 0.63 C
2617 03-04-2020 03:00:00 3.4 C 83 % 0.79 C
2618 03-04-2020 03:05:00 3.6 C 83 % 0.99 C
2619 03-04-2020 03:10:00 3.7 C 83 % 1.09 C
2620 03-04-2020 03:15:00 3.8 C 82 % 1.02 C
2621 03-04-2020 03:20:00 3.9 C 82 % 1.12 C
2622 03-04-2020 03:25:00 4.1 C 82 % 1.31 C
2623 03-04-2020 03:30:00 4.2 C 82 % 1.41 C
2624 03-04-2020 03:35:00 4.4 C 81 % 1.43 C
2625 03-04-2020 03:40:00 4.7 C 79 % 1.38 C
Sensor: Nr:Datum:Temp:Feuchte:Taupunkt:
Aussen-T/F 2626 03-04-2020 03:45:00 4.8 C 79 % 1.47 C
2627 03-04-2020 03:50:00 4.9 C 79 % 1.57 C
2628 03-04-2020 03:55:00 4.9 C 79 % 1.57 C
2629 03-04-2020 04:00:00 4.9 C 79 % 1.57 C
2630 03-04-2020 04:05:00 5.1 C 79 % 1.77 C
2631 03-04-2020 04:10:00 5.3 C 78 % 1.78 C
2632 03-04-2020 04:15:00 5.4 C 77 % 1.7 C
2633 03-04-2020 04:20:00 5.4 C 76 % 1.52 C
2634 03-04-2020 04:25:00 5.4 C 76 % 1.52 C
2635 03-04-2020 04:30:00 5.4 C 76 % 1.52 C
2636 03-04-2020 04:35:00 5.4 C 77 % 1.7 C
2637 03-04-2020 04:40:00 5.4 C 78 % 1.88 C
2638 03-04-2020 04:45:00 5.3 C 78 % 1.78 C
2639 03-04-2020 04:50:00 5.2 C 78 % 1.69 C
2640 03-04-2020 04:55:00 5.2 C 79 % 1.86 C
2641 03-04-2020 05:00:00 5.1 C 79 % 1.77 C
2642 03-04-2020 05:05:00 5.1 C 79 % 1.77 C
2643 03-04-2020 05:10:00 5.1 C 79 % 1.77 C
2644 03-04-2020 05:15:00 5.2 C 79 % 1.86 C
2645 03-04-2020 05:20:00 5.2 C 79 % 1.86 C
2646 03-04-2020 05:25:00 5.3 C 79 % 1.96 C
2647 03-04-2020 05:30:00 5.3 C 79 % 1.96 C
2648 03-04-2020 05:35:00 5.3 C 78 % 1.78 C
2649 03-04-2020 05:40:00 5.4 C 78 % 1.88 C
2650 03-04-2020 05:45:00 5.5 C 78 % 1.98 C
Sensor: Nr:Datum:Temp:Feuchte:Taupunkt:
Aussen-T/F 2651 03-04-2020 05:50:00 5.6 C 78 % 2.07 C
2652 03-04-2020 05:55:00 5.6 C 79 % 2.25 C
2653 03-04-2020 06:00:00 5.7 C 78 % 2.17 C
2654 03-04-2020 06:05:00 5.7 C 77 % 1.99 C
2655 03-04-2020 06:10:00 5.8 C 78 % 2.27 C
2656 03-04-2020 06:15:00 5.7 C 78 % 2.17 C
2657 03-04-2020 06:20:00 5.7 C 78 % 2.17 C
2658 03-04-2020 06:25:00 5.7 C 78 % 2.17 C
2659 03-04-2020 06:30:00 5.7 C 78 % 2.17 C
2660 03-04-2020 06:35:00 5.7 C 79 % 2.35 C
2661 03-04-2020 06:40:00 5.6 C 79 % 2.25 C
2662 03-04-2020 06:45:00 5.6 C 79 % 2.25 C
2663 03-04-2020 06:50:00 5.6 C 79 % 2.25 C
2664 03-04-2020 06:55:00 5.7 C 78 % 2.17 C
2665 03-04-2020 07:00:00 5.8 C 78 % 2.27 C
2666 03-04-2020 07:05:00 6 C 77 % 2.28 C
2667 03-04-2020 07:10:00 6 C 77 % 2.28 C
2668 03-04-2020 07:15:00 6.1 C 76 % 2.2 C
2669 03-04-2020 07:20:00 6.1 C 76 % 2.2 C
2670 03-04-2020 07:25:00 6.1 C 76 % 2.2 C
2671 03-04-2020 07:30:00 6.1 C 77 % 2.38 C
2672 03-04-2020 07:35:00 6.1 C 77 % 2.38 C
2673 03-04-2020 07:40:00 6.1 C 77 % 2.38 C
2674 03-04-2020 07:45:00 6.1 C 77 % 2.38 C
2675 03-04-2020 07:50:00 6.1 C 78 % 2.56 C
Sensor: Nr:Datum:Temp:Feuchte:Taupunkt:
Aussen-T/F 2676 03-04-2020 07:55:00 6.1 C 78 % 2.56 C
2677 03-04-2020 08:00:00 6.1 C 78 % 2.56 C
2678 03-04-2020 08:05:00 6.2 C 77 % 2.48 C
2679 03-04-2020 08:10:00 6.2 C 77 % 2.48 C
2680 03-04-2020 08:15:00 6.3 C 77 % 2.57 C
2681 03-04-2020 08:20:00 6.3 C 77 % 2.57 C
2682 03-04-2020 08:25:00 6.3 C 77 % 2.57 C
2683 03-04-2020 08:30:00 6.4 C 77 % 2.67 C
2684 03-04-2020 08:35:00 6.4 C 77 % 2.67 C
2685 03-04-2020 08:40:00 6.4 C 77 % 2.67 C
2686 03-04-2020 08:45:00 6.6 C 77 % 2.86 C
2687 03-04-2020 08:50:00 6.7 C 77 % 2.96 C
2688 03-04-2020 08:55:00 6.8 C 77 % 3.06 C
2689 03-04-2020 09:00:00 7 C 77 % 3.25 C
2690 03-04-2020 09:05:00 7.1 C 76 % 3.16 C
2691 03-04-2020 09:10:00 7.2 C 76 % 3.26 C
2692 03-04-2020 09:15:00 7.3 C 76 % 3.36 C
2693 03-04-2020 09:20:00 7.4 C 76 % 3.45 C
2694 03-04-2020 09:25:00 7.6 C 76 % 3.65 C
2695 03-04-2020 09:30:00 7.7 C 76 % 3.75 C
2696 03-04-2020 09:35:00 7.8 C 75 % 3.65 C
2697 03-04-2020 09:40:00 7.8 C 75 % 3.65 C
2698 03-04-2020 09:45:00 8 C 75 % 3.85 C
2699 03-04-2020 09:50:00 8.1 C 75 % 3.94 C
2700 03-04-2020 09:55:00 8.2 C 74 % 3.85 C
Sensor: Nr:Datum:Temp:Feuchte:Taupunkt:
Aussen-T/F 2701 03-04-2020 10:00:00 8.3 C 75 % 4.14 C
2702 03-04-2020 10:05:00 8.5 C 75 % 4.33 C
2703 03-04-2020 10:10:00 8.7 C 74 % 4.33 C
2704 03-04-2020 10:15:00 8.8 C 74 % 4.43 C
2705 03-04-2020 10:20:00 8.9 C 74 % 4.53 C
2706 03-04-2020 10:25:00 9.1 C 73 % 4.52 C
2707 03-04-2020 10:30:00 9.2 C 73 % 4.62 C
2708 03-04-2020 10:35:00 9.2 C 73 % 4.62 C
2709 03-04-2020 10:40:00 9.3 C 73 % 4.72 C
2710 03-04-2020 10:45:00 9.4 C 73 % 4.81 C
2711 03-04-2020 10:50:00 9.6 C 72 % 4.81 C
2712 03-04-2020 10:55:00 9.8 C 72 % 5 C
2713 03-04-2020 11:00:00 9.9 C 72 % 5.1 C
2714 03-04-2020 11:05:00 10.3 C 71 % 5.28 C
2715 03-04-2020 11:10:00 10.6 C 69 % 5.16 C
2716 03-04-2020 11:15:00 10.8 C 69 % 5.35 C
2717 03-04-2020 11:20:00 10.9 C 68 % 5.23 C
2718 03-04-2020 11:25:00 10.9 C 67 % 5.02 C
2719 03-04-2020 11:30:00 10.8 C 66 % 4.71 C
2720 03-04-2020 11:35:00 10.9 C 65 % 4.59 C
2721 03-04-2020 11:40:00 11.2 C 64 % 4.65 C
2722 03-04-2020 11:45:00 11.3 C 63 % 4.52 C
2723 03-04-2020 11:50:00 11.3 C 63 % 4.52 C
2724 03-04-2020 11:55:00 11.3 C 63 % 4.52 C
2725 03-04-2020 12:00:00 11.2 C 63 % 4.43 C
Sensor: Nr:Datum:Temp:Feuchte:Taupunkt:
Aussen-T/F 2726 03-04-2020 12:05:00 11.2 C 64 % 4.65 C
2727 03-04-2020 12:10:00 11.2 C 63 % 4.43 C
2728 03-04-2020 12:15:00 11.2 C 63 % 4.43 C
2729 03-04-2020 12:20:00 11.3 C 63 % 4.52 C
2730 03-04-2020 12:25:00 11.5 C 61 % 4.25 C
2731 03-04-2020 12:30:00 11.7 C 61 % 4.44 C
2732 03-04-2020 12:35:00 11.6 C 59 % 3.87 C
2733 03-04-2020 12:40:00 11.5 C 59 % 3.78 C
2734 03-04-2020 12:45:00 11.3 C 61 % 4.06 C
2735 03-04-2020 12:50:00 11.3 C 60 % 3.83 C
2736 03-04-2020 12:55:00 11.2 C 61 % 3.97 C
2737 03-04-2020 13:00:00 11.2 C 62 % 4.2 C
2738 03-04-2020 13:05:00 11.3 C 63 % 4.52 C
2739 03-04-2020 13:10:00 11.4 C 62 % 4.39 C
2740 03-04-2020 13:15:00 11.5 C 61 % 4.25 C
2741 03-04-2020 13:20:00 11.6 C 59 % 3.87 C
2742 03-04-2020 13:25:00 11.7 C 59 % 3.97 C
2743 03-04-2020 13:30:00 11.7 C 57 % 3.48 C
2744 03-04-2020 13:35:00 11.6 C 58 % 3.63 C
2745 03-04-2020 13:40:00 11.6 C 58 % 3.63 C
2746 03-04-2020 13:45:00 11.7 C 60 % 4.2 C
2747 03-04-2020 13:50:00 11.8 C 60 % 4.3 C
2748 03-04-2020 13:55:00 11.8 C 58 % 3.82 C
2749 03-04-2020 14:00:00 11.8 C 56 % 3.32 C
2750 03-04-2020 14:05:00 11.8 C 56 % 3.32 C
Sensor: Nr:Datum:Temp:Feuchte:Taupunkt:
Aussen-T/F 2751 03-04-2020 14:10:00 11.7 C 56 % 3.23 C
2752 03-04-2020 14:15:00 11.7 C 56 % 3.23 C
2753 03-04-2020 14:20:00 11.6 C 56 % 3.13 C
2754 03-04-2020 14:25:00 11.6 C 57 % 3.38 C
2755 03-04-2020 14:30:00 11.7 C 61 % 4.44 C
2756 03-04-2020 14:35:00 11.6 C 62 % 4.58 C
2757 03-04-2020 14:40:00 11.6 C 60 % 4.11 C
2758 03-04-2020 14:45:00 11.6 C 59 % 3.87 C
2759 03-04-2020 14:50:00 11.6 C 57 % 3.38 C
2760 03-04-2020 14:55:00 11.7 C 56 % 3.23 C
2761 03-04-2020 15:00:00 11.7 C 55 % 2.97 C
2762 03-04-2020 15:05:00 11.8 C 55 % 3.07 C
2763 03-04-2020 15:10:00 11.8 C 55 % 3.07 C
2764 03-04-2020 15:15:00 11.7 C 55 % 2.97 C
2765 03-04-2020 15:20:00 11.7 C 54 % 2.71 C
2766 03-04-2020 15:25:00 11.7 C 56 % 3.23 C
2767 03-04-2020 15:30:00 11.7 C 58 % 3.72 C
2768 03-04-2020 15:35:00 11.7 C 58 % 3.72 C
2769 03-04-2020 15:40:00 11.7 C 58 % 3.72 C
2770 03-04-2020 15:45:00 11.8 C 57 % 3.57 C
2771 03-04-2020 15:50:00 11.8 C 58 % 3.82 C
2772 03-04-2020 15:55:00 11.9 C 54 % 2.9 C
2773 03-04-2020 16:00:00 12.1 C 54 % 3.09 C
2774 03-04-2020 16:05:00 12.2 C 52 % 2.65 C
2775 03-04-2020 16:10:00 12.2 C 51 % 2.37 C
Sensor: Nr:Datum:Temp:Feuchte:Taupunkt:
Aussen-T/F 2776 03-04-2020 16:15:00 12.3 C 50 % 2.19 C
2777 03-04-2020 16:20:00 12.3 C 50 % 2.19 C
2778 03-04-2020 16:25:00 12.2 C 50 % 2.1 C
2779 03-04-2020 16:30:00 12.2 C 51 % 2.37 C
2780 03-04-2020 16:35:00 12.3 C 49 % 1.91 C
2781 03-04-2020 16:40:00 12.3 C 50 % 2.19 C
2782 03-04-2020 16:45:00 12.3 C 49 % 1.91 C
2783 03-04-2020 16:50:00 12.3 C 49 % 1.91 C
2784 03-04-2020 16:55:00 12.3 C 48 % 1.62 C
2785 03-04-2020 17:00:00 12.1 C 48 % 1.44 C
2786 03-04-2020 17:05:00 12.1 C 50 % 2.01 C
2787 03-04-2020 17:10:00 12.1 C 50 % 2.01 C
2788 03-04-2020 17:15:00 12.1 C 49 % 1.72 C
2789 03-04-2020 17:20:00 12.1 C 49 % 1.72 C
2790 03-04-2020 17:25:00 12.2 C 49 % 1.82 C
2791 03-04-2020 17:30:00 12.2 C 50 % 2.1 C
2792 03-04-2020 17:35:00 12.2 C 49 % 1.82 C
2793 03-04-2020 17:40:00 12.3 C 48 % 1.62 C
2794 03-04-2020 17:45:00 12.2 C 49 % 1.82 C
2795 03-04-2020 17:50:00 12.1 C 50 % 2.01 C
2796 03-04-2020 17:55:00 11.9 C 50 % 1.82 C
2797 03-04-2020 18:00:00 11.8 C 50 % 1.73 C
2798 03-04-2020 18:05:00 11.7 C 51 % 1.91 C
2799 03-04-2020 18:10:00 11.7 C 51 % 1.91 C
2800 03-04-2020 18:15:00 11.7 C 52 % 2.18 C
Sensor: Nr:Datum:Temp:Feuchte:Taupunkt:
Aussen-T/F 2801 03-04-2020 18:20:00 11.7 C 52 % 2.18 C
2802 03-04-2020 18:25:00 11.6 C 53 % 2.36 C
2803 03-04-2020 18:30:00 11.5 C 52 % 2 C
2804 03-04-2020 18:35:00 11.4 C 53 % 2.17 C
2805 03-04-2020 18:40:00 11.4 C 52 % 1.91 C
2806 03-04-2020 18:45:00 11.3 C 53 % 2.08 C
2807 03-04-2020 18:50:00 11.2 C 54 % 2.25 C
2808 03-04-2020 18:55:00 11.2 C 54 % 2.25 C
2809 03-04-2020 19:00:00 11.2 C 55 % 2.51 C
2810 03-04-2020 19:05:00 11.1 C 56 % 2.67 C
2811 03-04-2020 19:10:00 11 C 56 % 2.57 C
2812 03-04-2020 19:15:00 10.9 C 56 % 2.48 C
2813 03-04-2020 19:20:00 10.8 C 57 % 2.63 C
2814 03-04-2020 19:25:00 10.8 C 55 % 2.13 C
2815 03-04-2020 19:30:00 10.7 C 55 % 2.04 C
2816 03-04-2020 19:35:00 10.6 C 54 % 1.69 C
2817 03-04-2020 19:40:00 10.6 C 55 % 1.95 C
2818 03-04-2020 19:45:00 10.4 C 55 % 1.76 C
2819 03-04-2020 19:50:00 10.4 C 55 % 1.76 C
2820 03-04-2020 19:55:00 10.3 C 56 % 1.92 C
2821 03-04-2020 20:00:00 10.3 C 56 % 1.92 C
2822 03-04-2020 20:05:00 10.2 C 57 % 2.07 C
2823 03-04-2020 20:10:00 10.1 C 57 % 1.98 C
2824 03-04-2020 20:15:00 9.9 C 57 % 1.79 C
2825 03-04-2020 20:20:00 9.9 C 57 % 1.79 C
Sensor: Nr:Datum:Temp:Feuchte:Taupunkt:
Aussen-T/F 2826 03-04-2020 20:25:00 9.8 C 56 % 1.45 C
2827 03-04-2020 20:30:00 9.8 C 55 % 1.2 C
2828 03-04-2020 20:35:00 9.8 C 56 % 1.45 C
2829 03-04-2020 20:40:00 9.8 C 56 % 1.45 C
2830 03-04-2020 20:45:00 9.7 C 56 % 1.36 C
2831 03-04-2020 20:50:00 9.7 C 54 % 0.86 C
2832 03-04-2020 20:55:00 9.6 C 56 % 1.27 C
2833 03-04-2020 21:00:00 9.6 C 55 % 1.02 C
2834 03-04-2020 21:05:00 9.5 C 53 % 0.41 C
2835 03-04-2020 21:10:00 9.5 C 53 % 0.41 C
2836 03-04-2020 21:15:00 9.5 C 53 % 0.41 C
2837 03-04-2020 21:20:00 9.4 C 54 % 0.58 C
2838 03-04-2020 21:25:00 9.4 C 55 % 0.83 C
2839 03-04-2020 21:30:00 9.2 C 57 % 1.14 C
2840 03-04-2020 21:35:00 9.1 C 55 % 0.55 C
2841 03-04-2020 21:40:00 9 C 56 % 0.71 C
2842 03-04-2020 21:45:00 8.9 C 58 % 1.1 C
2843 03-04-2020 21:50:00 8.8 C 58 % 1 C
2844 03-04-2020 21:55:00 8.8 C 57 % 0.76 C
2845 03-04-2020 22:00:00 8.7 C 58 % 0.91 C
2846 03-04-2020 22:05:00 8.6 C 57 % 0.58 C
2847 03-04-2020 22:10:00 8.6 C 59 % 1.05 C
2848 03-04-2020 22:15:00 8.5 C 59 % 0.96 C
2849 03-04-2020 22:20:00 8.4 C 60 % 1.1 C
2850 03-04-2020 22:25:00 8.2 C 61 % 1.14 C
Sensor: Nr:Datum:Temp:Feuchte:Taupunkt:
Aussen-T/F 2851 03-04-2020 22:30:00 7.9 C 61 % 0.86 C
2852 03-04-2020 22:35:00 7.7 C 62 % 0.89 C
2853 03-04-2020 22:40:00 7.5 C 63 % 0.92 C
2854 03-04-2020 22:45:00 7.3 C 64 % 0.95 C
2855 03-04-2020 22:50:00 7.1 C 64 % 0.76 C
2856 03-04-2020 22:55:00 7.1 C 63 % 0.55 C
2857 03-04-2020 23:00:00 7 C 63 % 0.45 C
2858 03-04-2020 23:05:00 7 C 63 % 0.45 C
2859 03-04-2020 23:10:00 7.2 C 62 % 0.42 C
2860 03-04-2020 23:15:00 7.4 C 61 % 0.38 C
2861 03-04-2020 23:20:00 7.6 C 62 % 0.8 C
2862 03-04-2020 23:25:00 7.4 C 62 % 0.61 C
2863 03-04-2020 23:30:00 7 C 63 % 0.45 C
2864 03-04-2020 23:35:00 6.6 C 65 % 0.5 C
2865 03-04-2020 23:40:00 6.4 C 65 % 0.31 C
2866 03-04-2020 23:45:00 6.2 C 66 % 0.33 C
2867 03-04-2020 23:50:00 6 C 67 % 0.35 C
2868 03-04-2020 23:55:00 5.8 C 67 % 0.16 C
2869 04-04-2020 00:00:00 5.7 C 68 % 0.27 C
2870 04-04-2020 00:05:00 5.7 C 68 % 0.27 C
2871 04-04-2020 00:10:00 5.7 C 68 % 0.27 C
2872 04-04-2020 00:15:00 5.7 C 67 % 0.06 C
2873 04-04-2020 00:20:00 5.7 C 67 % 0.06 C
2874 04-04-2020 00:25:00 5.8 C 66 % -0.05 C
2875 04-04-2020 00:30:00 5.8 C 66 % -0.05 C
Sensor: Nr:Datum:Temp:Feuchte:Taupunkt:
Aussen-T/F 2876 04-04-2020 00:35:00 5.8 C 66 % -0.05 C
2877 04-04-2020 00:40:00 5.7 C 66 % -0.14 C
2878 04-04-2020 00:45:00 5.6 C 67 % -0.03 C
2879 04-04-2020 00:50:00 5.4 C 68 % -0.02 C
2880 04-04-2020 00:55:00 5.2 C 68 % -0.21 C
2881 04-04-2020 01:00:00 5.1 C 69 % -0.11 C
2882 04-04-2020 01:05:00 5.1 C 69 % -0.11 C
2883 04-04-2020 01:10:00 5.1 C 69 % -0.11 C
2884 04-04-2020 01:15:00 5 C 69 % -0.2 C
2885 04-04-2020 01:20:00 4.9 C 69 % -0.3 C
2886 04-04-2020 01:25:00 4.9 C 70 % -0.1 C
2887 04-04-2020 01:30:00 4.8 C 71 % 0 C
2888 04-04-2020 01:35:00 4.7 C 72 % 0.09 C
2889 04-04-2020 01:40:00 4.5 C 73 % 0.09 C
2890 04-04-2020 01:45:00 4.3 C 73 % -0.1 C
2891 04-04-2020 01:50:00 4.1 C 74 % -0.11 C
2892 04-04-2020 01:55:00 3.8 C 75 % -0.21 C
2893 04-04-2020 02:00:00 3.6 C 76 % -0.22 C
2894 04-04-2020 02:05:00 3.3 C 77 % -0.34 C
2895 04-04-2020 02:10:00 3 C 78 % -0.45 C
2896 04-04-2020 02:15:00 2.8 C 78 % -0.65 C
2897 04-04-2020 02:20:00 2.6 C 79 % -0.67 C
2898 04-04-2020 02:25:00 2.5 C 80 % -0.59 C
2899 04-04-2020 02:30:00 2.3 C 80 % -0.79 C
2900 04-04-2020 02:35:00 2.2 C 81 % -0.71 C
Sensor: Nr:Datum:Temp:Feuchte:Taupunkt:
Aussen-T/F 2901 04-04-2020 02:40:00 2.1 C 81 % -0.81 C
2902 04-04-2020 02:45:00 1.9 C 82 % -0.84 C
2903 04-04-2020 02:50:00 1.9 C 83 % -0.67 C
2904 04-04-2020 02:55:00 1.9 C 83 % -0.67 C
2905 04-04-2020 03:00:00 1.8 C 83 % -0.77 C
2906 04-04-2020 03:05:00 1.7 C 83 % -0.87 C
2907 04-04-2020 03:10:00 1.7 C 83 % -0.87 C
2908 04-04-2020 03:15:00 1.5 C 83 % -1.06 C
2909 04-04-2020 03:20:00 1.4 C 84 % -1 C
2910 04-04-2020 03:25:00 1.3 C 85 % -0.94 C
2911 04-04-2020 03:30:00 1.3 C 85 % -0.94 C
2912 04-04-2020 03:35:00 1.4 C 86 % -0.68 C
2913 04-04-2020 03:40:00 1.4 C 86 % -0.68 C
2914 04-04-2020 03:45:00 1.3 C 85 % -0.94 C
2915 04-04-2020 03:50:00 1.2 C 85 % -1.03 C
2916 04-04-2020 03:55:00 1 C 85 % -1.23 C
2917 04-04-2020 04:00:00 0.9 C 85 % -1.33 C
2918 04-04-2020 04:05:00 0.8 C 86 % -1.27 C
2919 04-04-2020 04:10:00 0.7 C 86 % -1.37 C
2920 04-04-2020 04:15:00 0.6 C 86 % -1.46 C
2921 04-04-2020 04:20:00 0.5 C 87 % -1.41 C
2922 04-04-2020 04:25:00 0.4 C 87 % -1.5 C
2923 04-04-2020 04:30:00 0.4 C 87 % -1.5 C
2924 04-04-2020 04:35:00 0.3 C 87 % -1.6 C
2925 04-04-2020 04:40:00 0.3 C 88 % -1.45 C
Sensor: Nr:Datum:Temp:Feuchte:Taupunkt:
Aussen-T/F 2926 04-04-2020 04:45:00 0.3 C 88 % -1.45 C
2927 04-04-2020 04:50:00 0.2 C 87 % -1.7 C
2928 04-04-2020 04:55:00 0.2 C 88 % -1.55 C
2929 04-04-2020 05:00:00 0.2 C 88 % -1.55 C
2930 04-04-2020 05:05:00 0.2 C 88 % -1.55 C
2931 04-04-2020 05:10:00 0.1 C 88 % -1.65 C
2932 04-04-2020 05:15:00 0.1 C 88 % -1.65 C
2933 04-04-2020 05:20:00 -0.1 C 88 % -1.84 C
2934 04-04-2020 05:25:00 -0.1 C 89 % -1.69 C
2935 04-04-2020 05:30:00 -0.1 C 89 % -1.69 C
2936 04-04-2020 05:35:00 -0.1 C 89 % -1.69 C
2937 04-04-2020 05:40:00 -0.2 C 89 % -1.79 C
2938 04-04-2020 05:45:00 -0.2 C 89 % -1.79 C
2939 04-04-2020 05:50:00 -0.2 C 89 % -1.79 C
2940 04-04-2020 05:55:00 -0.2 C 89 % -1.79 C
2941 04-04-2020 06:00:00 -0.2 C 89 % -1.79 C
2942 04-04-2020 06:05:00 -0.3 C 89 % -1.89 C
2943 04-04-2020 06:10:00 -0.4 C 89 % -1.99 C
2944 04-04-2020 06:15:00 -0.4 C 89 % -1.99 C
2945 04-04-2020 06:20:00 -0.4 C 90 % -1.84 C
2946 04-04-2020 06:25:00 -0.5 C 89 % -2.09 C
2947 04-04-2020 06:30:00 -0.4 C 90 % -1.84 C
2948 04-04-2020 06:35:00 -0.6 C 89 % -2.18 C
2949 04-04-2020 06:40:00 -0.4 C 90 % -1.84 C
2950 04-04-2020 06:45:00 -0.4 C 90 % -1.84 C
Sensor: Nr:Datum:Temp:Feuchte:Taupunkt:
Aussen-T/F 2951 04-04-2020 06:50:00 -0.4 C 90 % -1.84 C
2952 04-04-2020 06:55:00 -0.6 C 90 % -2.03 C
2953 04-04-2020 07:00:00 -0.6 C 90 % -2.03 C
2954 04-04-2020 07:05:00 -0.7 C 90 % -2.13 C
2955 04-04-2020 07:10:00 -0.7 C 90 % -2.13 C
2956 04-04-2020 07:15:00 -0.7 C 90 % -2.13 C
2957 04-04-2020 07:20:00 -0.8 C 90 % -2.23 C
2958 04-04-2020 07:25:00 -0.8 C 91 % -2.08 C
2959 04-04-2020 07:30:00 -0.8 C 91 % -2.08 C
2960 04-04-2020 07:35:00 -0.8 C 91 % -2.08 C
2961 04-04-2020 07:40:00 -0.8 C 90 % -2.23 C
2962 04-04-2020 07:45:00 -0.8 C 90 % -2.23 C
2963 04-04-2020 07:50:00 -0.8 C 91 % -2.08 C
2964 04-04-2020 07:55:00 -0.9 C 91 % -2.18 C
2965 04-04-2020 08:00:00 -0.9 C 91 % -2.18 C
2966 04-04-2020 08:05:00 -0.9 C 91 % -2.18 C
2967 04-04-2020 08:10:00 -0.8 C 91 % -2.08 C
2968 04-04-2020 08:15:00 -0.8 C 92 % -1.93 C
2969 04-04-2020 08:20:00 -0.7 C 92 % -1.83 C
2970 04-04-2020 08:25:00 -0.6 C 92 % -1.74 C
2971 04-04-2020 08:30:00 -0.4 C 92 % -1.54 C
2972 04-04-2020 08:35:00 -0.3 C 92 % -1.44 C
2973 04-04-2020 08:40:00 -0.3 C 92 % -1.44 C
2974 04-04-2020 08:45:00 -0.2 C 92 % -1.34 C
2975 04-04-2020 08:50:00 -0.1 C 92 % -1.24 C
Sensor: Nr:Datum:Temp:Feuchte:Taupunkt:
Aussen-T/F 2976 04-04-2020 08:55:00 -0.1 C 92 % -1.24 C
2977 04-04-2020 09:00:00 0 C 92 % -1.14 C
2978 04-04-2020 09:05:00 0.1 C 92 % -1.04 C
2979 04-04-2020 09:10:00 0.2 C 91 % -1.09 C
2980 04-04-2020 09:15:00 0.3 C 91 % -0.99 C
2981 04-04-2020 09:20:00 0.3 C 91 % -0.99 C
2982 04-04-2020 09:25:00 0.4 C 91 % -0.89 C
2983 04-04-2020 09:30:00 0.5 C 91 % -0.79 C
2984 04-04-2020 09:35:00 0.7 C 91 % -0.6 C
2985 04-04-2020 09:40:00 0.8 C 91 % -0.5 C
2986 04-04-2020 09:45:00 1 C 91 % -0.3 C
2987 04-04-2020 09:50:00 1.1 C 91 % -0.2 C
2988 04-04-2020 09:55:00 1.3 C 91 % 0 C
2989 04-04-2020 10:00:00 1.5 C 91 % 0.19 C
2990 04-04-2020 10:05:00 1.8 C 91 % 0.49 C
2991 04-04-2020 10:10:00 2 C 90 % 0.54 C
2992 04-04-2020 10:15:00 2.2 C 90 % 0.73 C
2993 04-04-2020 10:20:00 2.3 C 89 % 0.68 C
2994 04-04-2020 10:25:00 2.6 C 89 % 0.97 C
2995 04-04-2020 10:30:00 2.7 C 88 % 0.92 C
2996 04-04-2020 10:35:00 3 C 88 % 1.21 C
2997 04-04-2020 10:40:00 3.3 C 88 % 1.51 C
2998 04-04-2020 10:45:00 3.7 C 87 % 1.74 C
2999 04-04-2020 10:50:00 4 C 86 % 1.88 C
3000 04-04-2020 10:55:00 4.3 C 84 % 1.84 C
Sensor: Nr:Datum:Temp:Feuchte:Taupunkt:
Aussen-T/F 3001 04-04-2020 11:00:00 4.8 C 83 % 2.16 C
3002 04-04-2020 11:05:00 5.2 C 82 % 2.39 C
3003 04-04-2020 11:10:00 5.7 C 80 % 2.53 C
3004 04-04-2020 11:15:00 6.1 C 78 % 2.56 C
3005 04-04-2020 11:20:00 6.5 C 76 % 2.58 C
3006 04-04-2020 11:25:00 6.8 C 76 % 2.87 C
3007 04-04-2020 11:30:00 7.2 C 73 % 2.69 C
3008 04-04-2020 11:35:00 7.4 C 69 % 2.1 C
3009 04-04-2020 11:40:00 7.8 C 68 % 2.27 C
3010 04-04-2020 11:45:00 8.2 C 67 % 2.45 C
3011 04-04-2020 11:50:00 8.5 C 66 % 2.52 C
3012 04-04-2020 11:55:00 8.8 C 63 % 2.16 C
3013 04-04-2020 12:00:00 9 C 63 % 2.35 C
3014 04-04-2020 12:05:00 9.2 C 61 % 2.08 C
3015 04-04-2020 12:10:00 9.3 C 61 % 2.18 C
3016 04-04-2020 12:15:00 9.6 C 60 % 2.23 C
3017 04-04-2020 12:20:00 9.9 C 59 % 2.27 C
3018 04-04-2020 12:25:00 10.1 C 57 % 1.98 C
3019 04-04-2020 12:30:00 10.3 C 55 % 1.67 C
3020 04-04-2020 12:35:00 10.3 C 54 % 1.41 C
3021 04-04-2020 12:40:00 10.3 C 55 % 1.67 C
3022 04-04-2020 12:45:00 10.3 C 55 % 1.67 C
3023 04-04-2020 12:50:00 10.4 C 54 % 1.51 C
3024 04-04-2020 12:55:00 10.6 C 55 % 1.95 C
3025 04-04-2020 13:00:00 10.7 C 53 % 1.52 C
Sensor: Nr:Datum:Temp:Feuchte:Taupunkt:
Aussen-T/F 3026 04-04-2020 13:05:00 10.8 C 53 % 1.62 C
3027 04-04-2020 13:10:00 10.9 C 54 % 1.97 C
3028 04-04-2020 13:15:00 11.2 C 54 % 2.25 C
3029 04-04-2020 13:20:00 11.3 C 52 % 1.81 C
3030 04-04-2020 13:25:00 11.4 C 53 % 2.17 C
3031 04-04-2020 13:30:00 11.5 C 51 % 1.73 C
3032 04-04-2020 13:35:00 11.6 C 51 % 1.82 C
3033 04-04-2020 13:40:00 11.7 C 52 % 2.18 C
3034 04-04-2020 13:45:00 11.8 C 50 % 1.73 C
3035 04-04-2020 13:50:00 12 C 51 % 2.19 C
3036 04-04-2020 13:55:00 12.2 C 49 % 1.82 C
3037 04-04-2020 14:00:00 12.1 C 48 % 1.44 C
3038 04-04-2020 14:05:00 12.1 C 49 % 1.72 C
3039 04-04-2020 14:10:00 12.3 C 47 % 1.33 C
3040 04-04-2020 14:15:00 12.6 C 48 % 1.89 C
3041 04-04-2020 14:20:00 12.7 C 47 % 1.69 C
3042 04-04-2020 14:25:00 12.8 C 47 % 1.78 C
3043 04-04-2020 14:30:00 12.9 C 47 % 1.87 C
3044 04-04-2020 14:35:00 13 C 47 % 1.97 C
3045 04-04-2020 14:40:00 13.1 C 46 % 1.76 C
3046 04-04-2020 14:45:00 13.2 C 47 % 2.15 C
3047 04-04-2020 14:50:00 13.2 C 46 % 1.85 C
3048 04-04-2020 14:55:00 13.2 C 47 % 2.15 C
3049 04-04-2020 15:00:00 13.3 C 45 % 1.63 C
3050 04-04-2020 15:05:00 13.2 C 47 % 2.15 C
Sensor: Nr:Datum:Temp:Feuchte:Taupunkt:
Aussen-T/F 3051 04-04-2020 15:10:00 13.3 C 46 % 1.94 C
3052 04-04-2020 15:15:00 13.3 C 45 % 1.63 C
3053 04-04-2020 15:20:00 13.3 C 45 % 1.63 C
3054 04-04-2020 15:25:00 13.3 C 46 % 1.94 C
3055 04-04-2020 15:30:00 13.6 C 46 % 2.21 C
3056 04-04-2020 15:35:00 13.7 C 46 % 2.3 C
3057 04-04-2020 15:40:00 13.8 C 45 % 2.09 C
3058 04-04-2020 15:45:00 13.9 C 45 % 2.18 C
3059 04-04-2020 15:50:00 14 C 44 % 1.95 C
3060 04-04-2020 15:55:00 14 C 44 % 1.95 C
3061 04-04-2020 16:00:00 14.2 C 44 % 2.14 C
3062 04-04-2020 16:05:00 14.4 C 43 % 2 C
3063 04-04-2020 16:10:00 14.4 C 43 % 2 C
3064 04-04-2020 16:15:00 14.7 C 43 % 2.27 C
3065 04-04-2020 16:20:00 14.8 C 42 % 2.03 C
3066 04-04-2020 16:25:00 14.7 C 42 % 1.94 C
3067 04-04-2020 16:30:00 14.7 C 43 % 2.27 C
3068 04-04-2020 16:35:00 14.9 C 43 % 2.45 C
3069 04-04-2020 16:40:00 15.2 C 43 % 2.72 C
3070 04-04-2020 16:45:00 15.3 C 42 % 2.48 C
3071 04-04-2020 16:50:00 15.4 C 42 % 2.57 C
3072 04-04-2020 16:55:00 15.6 C 41 % 2.41 C
3073 04-04-2020 17:00:00 15.7 C 42 % 2.84 C
3074 04-04-2020 17:05:00 15.9 C 42 % 3.02 C
3075 04-04-2020 17:10:00 16.1 C 40 % 2.51 C
Sensor: Nr:Datum:Temp:Feuchte:Taupunkt:
Aussen-T/F 3076 04-04-2020 17:15:00 16.1 C 41 % 2.86 C
3077 04-04-2020 17:20:00 15.9 C 41 % 2.68 C
3078 04-04-2020 17:25:00 15.9 C 41 % 2.68 C
3079 04-04-2020 17:30:00 15.8 C 42 % 2.93 C
3080 04-04-2020 17:35:00 15.8 C 41 % 2.59 C
3081 04-04-2020 17:40:00 15.7 C 43 % 3.17 C
3082 04-04-2020 17:45:00 15.9 C 43 % 3.35 C
3083 04-04-2020 17:50:00 16 C 42 % 3.11 C
3084 04-04-2020 17:55:00 16.1 C 42 % 3.2 C
3085 04-04-2020 18:00:00 16.3 C 44 % 4.04 C
3086 04-04-2020 18:05:00 16.5 C 41 % 3.22 C
3087 04-04-2020 18:10:00 16.5 C 43 % 3.89 C
3088 04-04-2020 18:15:00 16.5 C 42 % 3.56 C
3089 04-04-2020 18:20:00 16.4 C 42 % 3.47 C
3090 04-04-2020 18:25:00 16.3 C 43 % 3.71 C
3091 04-04-2020 18:30:00 16.1 C 43 % 3.53 C
3092 04-04-2020 18:35:00 16.1 C 44 % 3.86 C
3093 04-04-2020 18:40:00 16.2 C 44 % 3.95 C
3094 04-04-2020 18:45:00 16.3 C 43 % 3.71 C
3095 04-04-2020 18:50:00 16.1 C 44 % 3.86 C
3096 04-04-2020 18:55:00 16 C 44 % 3.77 C
3097 04-04-2020 19:00:00 16 C 45 % 4.09 C
3098 04-04-2020 19:05:00 16 C 44 % 3.77 C
3099 04-04-2020 19:10:00 15.9 C 44 % 3.68 C
3100 04-04-2020 19:15:00 15.8 C 44 % 3.59 C
Sensor: Nr:Datum:Temp:Feuchte:Taupunkt:
Aussen-T/F 3101 04-04-2020 19:20:00 15.6 C 45 % 3.72 C
3102 04-04-2020 19:25:00 15.4 C 48 % 4.46 C
3103 04-04-2020 19:30:00 15.3 C 46 % 3.76 C
3104 04-04-2020 19:35:00 15.1 C 49 % 4.48 C
3105 04-04-2020 19:40:00 14.9 C 51 % 4.86 C
3106 04-04-2020 19:45:00 14.4 C 52 % 4.68 C
3107 04-04-2020 19:50:00 13.9 C 53 % 4.49 C
3108 04-04-2020 19:55:00 13.2 C 54 % 4.11 C
3109 04-04-2020 20:00:00 12.6 C 56 % 4.07 C
3110 04-04-2020 20:05:00 12.1 C 57 % 3.85 C
3111 04-04-2020 20:10:00 11.7 C 58 % 3.72 C
3112 04-04-2020 20:15:00 11.3 C 59 % 3.59 C
3113 04-04-2020 20:20:00 10.9 C 61 % 3.69 C
3114 04-04-2020 20:25:00 10.6 C 62 % 3.63 C
3115 04-04-2020 20:30:00 10.3 C 63 % 3.58 C
3116 04-04-2020 20:35:00 9.9 C 63 % 3.2 C
3117 04-04-2020 20:40:00 9.7 C 63 % 3.01 C
3118 04-04-2020 20:45:00 9.4 C 63 % 2.72 C
3119 04-04-2020 20:50:00 9.2 C 63 % 2.53 C
3120 04-04-2020 20:55:00 9 C 64 % 2.57 C
3121 04-04-2020 21:00:00 8.8 C 64 % 2.38 C
3122 04-04-2020 21:05:00 8.7 C 64 % 2.28 C
3123 04-04-2020 21:10:00 8.6 C 65 % 2.4 C
3124 04-04-2020 21:15:00 8.5 C 65 % 2.31 C
3125 04-04-2020 21:20:00 8.4 C 65 % 2.21 C
Sensor: Nr:Datum:Temp:Feuchte:Taupunkt:
Aussen-T/F 3126 04-04-2020 21:25:00 8.3 C 65 % 2.12 C
3127 04-04-2020 21:30:00 8.2 C 66 % 2.24 C
3128 04-04-2020 21:35:00 8.1 C 67 % 2.35 C
3129 04-04-2020 21:40:00 8 C 67 % 2.26 C
3130 04-04-2020 21:45:00 7.8 C 68 % 2.27 C
3131 04-04-2020 21:50:00 7.7 C 68 % 2.18 C
3132 04-04-2020 21:55:00 7.5 C 69 % 2.19 C
3133 04-04-2020 22:00:00 7.3 C 69 % 2 C
3134 04-04-2020 22:05:00 7.1 C 70 % 2.01 C
3135 04-04-2020 22:10:00 6.8 C 71 % 1.92 C
3136 04-04-2020 22:15:00 6.6 C 71 % 1.73 C
3137 04-04-2020 22:20:00 6.4 C 72 % 1.73 C
3138 04-04-2020 22:25:00 6.2 C 73 % 1.73 C
3139 04-04-2020 22:30:00 6.2 C 74 % 1.92 C
3140 04-04-2020 22:35:00 6.2 C 74 % 1.92 C
3141 04-04-2020 22:40:00 6 C 74 % 1.73 C
3142 04-04-2020 22:45:00 5.8 C 74 % 1.53 C
3143 04-04-2020 22:50:00 5.7 C 74 % 1.44 C
3144 04-04-2020 22:55:00 5.6 C 74 % 1.34 C
3145 04-04-2020 23:00:00 5.4 C 74 % 1.15 C
3146 04-04-2020 23:05:00 5.3 C 74 % 1.05 C
3147 04-04-2020 23:10:00 5.2 C 74 % 0.95 C
3148 04-04-2020 23:15:00 5.1 C 75 % 1.04 C
3149 04-04-2020 23:20:00 4.9 C 75 % 0.85 C
3150 04-04-2020 23:25:00 4.8 C 76 % 0.94 C
Sensor: Nr:Datum:Temp:Feuchte:Taupunkt:
Aussen-T/F 3151 04-04-2020 23:30:00 4.6 C 77 % 0.92 C
3152 04-04-2020 23:35:00 4.4 C 77 % 0.73 C
3153 04-04-2020 23:40:00 4.4 C 78 % 0.91 C
3154 04-04-2020 23:45:00 4.3 C 78 % 0.81 C
3155 04-04-2020 23:50:00 4.3 C 78 % 0.81 C
3156 04-04-2020 23:55:00 4.2 C 78 % 0.71 C
3157 05-04-2020 00:00:00 4.1 C 78 % 0.62 C
3158 05-04-2020 00:05:00 4 C 78 % 0.52 C
3159 05-04-2020 00:10:00 3.9 C 79 % 0.6 C
3160 05-04-2020 00:15:00 3.8 C 79 % 0.5 C
3161 05-04-2020 00:20:00 3.7 C 80 % 0.58 C
3162 05-04-2020 00:25:00 3.6 C 81 % 0.65 C
3163 05-04-2020 00:30:00 3.5 C 81 % 0.55 C
3164 05-04-2020 00:35:00 3.4 C 81 % 0.46 C
3165 05-04-2020 00:40:00 3.3 C 82 % 0.53 C
3166 05-04-2020 00:45:00 3.3 C 82 % 0.53 C
3167 05-04-2020 00:50:00 3.3 C 82 % 0.53 C
3168 05-04-2020 00:55:00 3.2 C 82 % 0.43 C
3169 05-04-2020 01:00:00 3.1 C 82 % 0.33 C
3170 05-04-2020 01:05:00 3.1 C 83 % 0.5 C
3171 05-04-2020 01:10:00 2.9 C 83 % 0.31 C
3172 05-04-2020 01:15:00 2.9 C 84 % 0.47 C
3173 05-04-2020 01:20:00 2.9 C 84 % 0.47 C
3174 05-04-2020 01:25:00 2.9 C 84 % 0.47 C
3175 05-04-2020 01:30:00 2.9 C 85 % 0.63 C
Sensor: Nr:Datum:Temp:Feuchte:Taupunkt:
Aussen-T/F 3176 05-04-2020 01:35:00 2.9 C 85 % 0.63 C
3177 05-04-2020 01:40:00 2.9 C 84 % 0.47 C
3178 05-04-2020 01:45:00 2.8 C 84 % 0.37 C
3179 05-04-2020 01:50:00 2.8 C 85 % 0.54 C
3180 05-04-2020 01:55:00 2.7 C 84 % 0.27 C
3181 05-04-2020 02:00:00 2.6 C 85 % 0.34 C
3182 05-04-2020 02:05:00 2.5 C 85 % 0.24 C
3183 05-04-2020 02:10:00 2.4 C 86 % 0.3 C
3184 05-04-2020 02:15:00 2.3 C 86 % 0.21 C
3185 05-04-2020 02:20:00 2.3 C 87 % 0.36 C
3186 05-04-2020 02:25:00 2.3 C 87 % 0.36 C
3187 05-04-2020 02:30:00 2.3 C 87 % 0.36 C
3188 05-04-2020 02:35:00 2.3 C 86 % 0.21 C
3189 05-04-2020 02:40:00 2.3 C 87 % 0.36 C
3190 05-04-2020 02:45:00 2.2 C 86 % 0.11 C
3191 05-04-2020 02:50:00 2.2 C 87 % 0.27 C
3192 05-04-2020 02:55:00 2.1 C 87 % 0.17 C
3193 05-04-2020 03:00:00 2.1 C 87 % 0.17 C
3194 05-04-2020 03:05:00 2 C 87 % 0.07 C
3195 05-04-2020 03:10:00 1.9 C 87 % -0.03 C
3196 05-04-2020 03:15:00 1.9 C 87 % -0.03 C
3197 05-04-2020 03:20:00 1.9 C 88 % 0.13 C
3198 05-04-2020 03:25:00 1.9 C 88 % 0.13 C
3199 05-04-2020 03:30:00 1.8 C 88 % 0.03 C
3200 05-04-2020 03:35:00 1.8 C 88 % 0.03 C
Sensor: Nr:Datum:Temp:Feuchte:Taupunkt:
Aussen-T/F 3201 05-04-2020 03:40:00 1.7 C 88 % -0.07 C
3202 05-04-2020 03:45:00 1.6 C 88 % -0.17 C
3203 05-04-2020 03:50:00 1.6 C 88 % -0.17 C
3204 05-04-2020 03:55:00 1.6 C 89 % -0.01 C
3205 05-04-2020 04:00:00 1.5 C 89 % -0.11 C
3206 05-04-2020 04:05:00 1.4 C 89 % -0.21 C
3207 05-04-2020 04:10:00 1.4 C 89 % -0.21 C
3208 05-04-2020 04:15:00 1.3 C 89 % -0.31 C
3209 05-04-2020 04:20:00 1.3 C 90 % -0.15 C
3210 05-04-2020 04:25:00 1.3 C 90 % -0.15 C
3211 05-04-2020 04:30:00 1.3 C 90 % -0.15 C
3212 05-04-2020 04:35:00 1.3 C 90 % -0.15 C
3213 05-04-2020 04:40:00 1.2 C 90 % -0.25 C
3214 05-04-2020 04:45:00 1.2 C 90 % -0.25 C
3215 05-04-2020 04:50:00 1.1 C 90 % -0.35 C
3216 05-04-2020 04:55:00 1.1 C 90 % -0.35 C
3217 05-04-2020 05:00:00 1 C 90 % -0.45 C
3218 05-04-2020 05:05:00 0.9 C 90 % -0.55 C
3219 05-04-2020 05:10:00 0.9 C 91 % -0.4 C
3220 05-04-2020 05:15:00 0.8 C 91 % -0.5 C
3221 05-04-2020 05:20:00 0.8 C 91 % -0.5 C
3222 05-04-2020 05:25:00 0.8 C 91 % -0.5 C
3223 05-04-2020 05:30:00 0.7 C 91 % -0.6 C
3224 05-04-2020 05:35:00 0.7 C 91 % -0.6 C
3225 05-04-2020 05:40:00 0.6 C 91 % -0.7 C
Sensor: Nr:Datum:Temp:Feuchte:Taupunkt:
Aussen-T/F 3226 05-04-2020 05:45:00 0.6 C 91 % -0.7 C
3227 05-04-2020 05:50:00 0.5 C 91 % -0.79 C
3228 05-04-2020 05:55:00 0.5 C 92 % -0.65 C
3229 05-04-2020 06:00:00 0.5 C 92 % -0.65 C
3230 05-04-2020 06:05:00 0.4 C 92 % -0.74 C
3231 05-04-2020 06:10:00 0.4 C 92 % -0.74 C
3232 05-04-2020 06:15:00 0.4 C 92 % -0.74 C
3233 05-04-2020 06:20:00 0.4 C 92 % -0.74 C
3234 05-04-2020 06:25:00 0.4 C 92 % -0.74 C
3235 05-04-2020 06:30:00 0.4 C 92 % -0.74 C
3236 05-04-2020 06:35:00 0.3 C 92 % -0.84 C
3237 05-04-2020 06:40:00 0.3 C 92 % -0.84 C
3238 05-04-2020 06:45:00 0.3 C 93 % -0.7 C
3239 05-04-2020 06:50:00 0.3 C 93 % -0.7 C
3240 05-04-2020 06:55:00 0.3 C 93 % -0.7 C
3241 05-04-2020 07:00:00 0.3 C 93 % -0.7 C
3242 05-04-2020 07:05:00 0.2 C 93 % -0.79 C
3243 05-04-2020 07:10:00 0.2 C 93 % -0.79 C
3244 05-04-2020 07:15:00 0.3 C 93 % -0.7 C
3245 05-04-2020 07:20:00 0.3 C 93 % -0.7 C
3246 05-04-2020 07:25:00 0.3 C 93 % -0.7 C
3247 05-04-2020 07:30:00 0.3 C 93 % -0.7 C
3248 05-04-2020 07:35:00 0.3 C 93 % -0.7 C
3249 05-04-2020 07:40:00 0.4 C 93 % -0.6 C
3250 05-04-2020 07:45:00 0.4 C 93 % -0.6 C
Sensor: Nr:Datum:Temp:Feuchte:Taupunkt:
Aussen-T/F 3251 05-04-2020 07:50:00 0.4 C 93 % -0.6 C
3252 05-04-2020 07:55:00 0.5 C 93 % -0.5 C
3253 05-04-2020 08:00:00 0.5 C 93 % -0.5 C
3254 05-04-2020 08:05:00 0.6 C 94 % -0.25 C
3255 05-04-2020 08:10:00 0.6 C 94 % -0.25 C
3256 05-04-2020 08:15:00 0.7 C 94 % -0.15 C
3257 05-04-2020 08:20:00 0.7 C 94 % -0.15 C
3258 05-04-2020 08:25:00 0.8 C 94 % -0.05 C
3259 05-04-2020 08:30:00 0.9 C 94 % 0.05 C
3260 05-04-2020 08:35:00 1.1 C 94 % 0.24 C
3261 05-04-2020 08:40:00 1.2 C 94 % 0.34 C
3262 05-04-2020 08:45:00 1.2 C 94 % 0.34 C
3263 05-04-2020 08:50:00 1.3 C 94 % 0.44 C
3264 05-04-2020 08:55:00 1.5 C 94 % 0.64 C
3265 05-04-2020 09:00:00 1.6 C 94 % 0.74 C
3266 05-04-2020 09:05:00 1.7 C 94 % 0.84 C
3267 05-04-2020 09:10:00 1.8 C 94 % 0.94 C
3268 05-04-2020 09:15:00 1.9 C 94 % 1.04 C
3269 05-04-2020 09:20:00 2.2 C 94 % 1.34 C
3270 05-04-2020 09:25:00 2.3 C 95 % 1.58 C
3271 05-04-2020 09:30:00 2.6 C 95 % 1.88 C
3272 05-04-2020 09:35:00 2.8 C 95 % 2.08 C
3273 05-04-2020 09:40:00 3 C 95 % 2.28 C
3274 05-04-2020 09:45:00 3.3 C 95 % 2.58 C
3275 05-04-2020 09:50:00 3.4 C 94 % 2.53 C
Sensor: Nr:Datum:Temp:Feuchte:Taupunkt:
Aussen-T/F 3276 05-04-2020 09:55:00 3.7 C 94 % 2.83 C
3277 05-04-2020 10:00:00 3.8 C 94 % 2.93 C
3278 05-04-2020 10:05:00 4.1 C 93 % 3.07 C
3279 05-04-2020 10:10:00 4.4 C 93 % 3.37 C
3280 05-04-2020 10:15:00 4.7 C 92 % 3.51 C
3281 05-04-2020 10:20:00 4.9 C 92 % 3.71 C
3282 05-04-2020 10:25:00 5.2 C 91 % 3.85 C
3283 05-04-2020 10:30:00 5.6 C 90 % 4.09 C
3284 05-04-2020 10:35:00 6.1 C 88 % 4.27 C
3285 05-04-2020 10:40:00 6.5 C 87 % 4.5 C
3286 05-04-2020 10:45:00 6.9 C 85 % 4.56 C
3287 05-04-2020 10:50:00 7.3 C 84 % 4.78 C
3288 05-04-2020 10:55:00 7.8 C 82 % 4.92 C
3289 05-04-2020 11:00:00 8.3 C 80 % 5.06 C
3290 05-04-2020 11:05:00 8.9 C 79 % 5.46 C
3291 05-04-2020 11:10:00 9.4 C 76 % 5.39 C
3292 05-04-2020 11:15:00 9.9 C 75 % 5.68 C
3293 05-04-2020 11:20:00 10.3 C 71 % 5.28 C
3294 05-04-2020 11:25:00 10.7 C 71 % 5.66 C
3295 05-04-2020 11:30:00 11.4 C 64 % 4.84 C
3296 05-04-2020 11:35:00 12.4 C 59 % 4.62 C
3297 05-04-2020 11:40:00 13.1 C 56 % 4.53 C
3298 05-04-2020 11:45:00 13.7 C 49 % 3.19 C
3299 05-04-2020 11:50:00 14.2 C 47 % 3.06 C
3300 05-04-2020 11:55:00 14.8 C 45 % 3 C
Sensor: Nr:Datum:Temp:Feuchte:Taupunkt:
Aussen-T/F 3301 05-04-2020 12:00:00 15.3 C 43 % 2.81 C
3302 05-04-2020 12:05:00 15.6 C 41 % 2.41 C
3303 05-04-2020 12:10:00 15.8 C 42 % 2.93 C
3304 05-04-2020 12:15:00 16.1 C 42 % 3.2 C
3305 05-04-2020 12:20:00 16.2 C 40 % 2.6 C
3306 05-04-2020 12:25:00 16.3 C 39 % 2.34 C
3307 05-04-2020 12:30:00 16.4 C 38 % 2.06 C
3308 05-04-2020 12:35:00 16.6 C 39 % 2.6 C
3309 05-04-2020 12:40:00 16.7 C 40 % 3.05 C
3310 05-04-2020 12:45:00 16.8 C 38 % 2.42 C
3311 05-04-2020 12:50:00 16.8 C 39 % 2.78 C
3312 05-04-2020 12:55:00 16.8 C 37 % 2.04 C
3313 05-04-2020 13:00:00 16.8 C 38 % 2.42 C
3314 05-04-2020 13:05:00 16.9 C 37 % 2.13 C
3315 05-04-2020 13:10:00 17.1 C 38 % 2.68 C
3316 05-04-2020 13:15:00 17.3 C 38 % 2.86 C
3317 05-04-2020 13:20:00 17.2 C 37 % 2.4 C
3318 05-04-2020 13:25:00 17.3 C 37 % 2.49 C
3319 05-04-2020 13:30:00 17.4 C 37 % 2.58 C
3320 05-04-2020 13:35:00 17.4 C 37 % 2.58 C
3321 05-04-2020 13:40:00 17.3 C 38 % 2.86 C
3322 05-04-2020 13:45:00 17.3 C 36 % 2.1 C
3323 05-04-2020 13:50:00 17.3 C 37 % 2.49 C
3324 05-04-2020 13:55:00 17.4 C 36 % 2.19 C
3325 05-04-2020 14:00:00 17.6 C 37 % 2.75 C
Sensor: Nr:Datum:Temp:Feuchte:Taupunkt:
Aussen-T/F 3326 05-04-2020 14:05:00 17.7 C 37 % 2.84 C
3327 05-04-2020 14:10:00 17.9 C 35 % 2.24 C
3328 05-04-2020 14:15:00 17.9 C 37 % 3.02 C
3329 05-04-2020 14:20:00 18.1 C 36 % 2.81 C
3330 05-04-2020 14:25:00 18.2 C 36 % 2.9 C
3331 05-04-2020 14:30:00 18.2 C 35 % 2.5 C
3332 05-04-2020 14:35:00 18.3 C 36 % 2.99 C
3333 05-04-2020 14:40:00 18.6 C 35 % 2.86 C
3334 05-04-2020 14:45:00 18.7 C 35 % 2.94 C
3335 05-04-2020 14:50:00 18.8 C 34 % 2.62 C
3336 05-04-2020 14:55:00 18.6 C 35 % 2.86 C
3337 05-04-2020 15:00:00 18.6 C 35 % 2.86 C
3338 05-04-2020 15:05:00 18.8 C 35 % 3.03 C
3339 05-04-2020 15:10:00 18.9 C 34 % 2.71 C
3340 05-04-2020 15:15:00 19 C 33 % 2.38 C
3341 05-04-2020 15:20:00 18.9 C 34 % 2.71 C
3342 05-04-2020 15:25:00 18.9 C 33 % 2.29 C
3343 05-04-2020 15:30:00 19.1 C 33 % 2.47 C
3344 05-04-2020 15:35:00 18.9 C 32 % 1.86 C
3345 05-04-2020 15:40:00 18.8 C 33 % 2.21 C
3346 05-04-2020 15:45:00 18.9 C 35 % 3.12 C
3347 05-04-2020 15:50:00 19 C 34 % 2.8 C
3348 05-04-2020 15:55:00 19.2 C 33 % 2.56 C
3349 05-04-2020 16:00:00 19.2 C 33 % 2.56 C
3350 05-04-2020 16:05:00 19.3 C 32 % 2.21 C
Sensor: Nr:Datum:Temp:Feuchte:Taupunkt:
Aussen-T/F 3351 05-04-2020 16:10:00 19.3 C 33 % 2.64 C
3352 05-04-2020 16:15:00 19.4 C 33 % 2.73 C
3353 05-04-2020 16:20:00 19.5 C 33 % 2.82 C
3354 05-04-2020 16:25:00 19.6 C 32 % 2.47 C
3355 05-04-2020 16:30:00 19.6 C 34 % 3.33 C
3356 05-04-2020 16:35:00 19.8 C 33 % 3.08 C
3357 05-04-2020 16:40:00 19.9 C 33 % 3.17 C
3358 05-04-2020 16:45:00 20.3 C 32 % 3.08 C
3359 05-04-2020 16:50:00 20.3 C 31 % 2.64 C
3360 05-04-2020 16:55:00 20.2 C 31 % 2.55 C
3361 05-04-2020 17:00:00 20.2 C 31 % 2.55 C
3362 05-04-2020 17:05:00 20.1 C 33 % 3.34 C
3363 05-04-2020 17:10:00 20.5 C 32 % 3.26 C
3364 05-04-2020 17:15:00 20.9 C 32 % 3.61 C
3365 05-04-2020 17:20:00 21.2 C 30 % 2.95 C
3366 05-04-2020 17:25:00 21.1 C 31 % 3.33 C
3367 05-04-2020 17:30:00 21.2 C 30 % 2.95 C
3368 05-04-2020 17:35:00 21.2 C 30 % 2.95 C
3369 05-04-2020 17:40:00 21.2 C 30 % 2.95 C
3370 05-04-2020 17:45:00 21.1 C 30 % 2.87 C
3371 05-04-2020 17:50:00 21 C 30 % 2.78 C
3372 05-04-2020 17:55:00 21.1 C 30 % 2.87 C
3373 05-04-2020 18:00:00 20.9 C 31 % 3.16 C
3374 05-04-2020 18:05:00 20.9 C 30 % 2.69 C
3375 05-04-2020 18:10:00 20.7 C 30 % 2.52 C
Sensor: Nr:Datum:Temp:Feuchte:Taupunkt:
Aussen-T/F 3376 05-04-2020 18:15:00 20.4 C 31 % 2.72 C
3377 05-04-2020 18:20:00 20.5 C 31 % 2.81 C
3378 05-04-2020 18:25:00 20.7 C 32 % 3.43 C
3379 05-04-2020 18:30:00 20.7 C 31 % 2.98 C
3380 05-04-2020 18:35:00 20.7 C 32 % 3.43 C
3381 05-04-2020 18:40:00 20.6 C 31 % 2.9 C
3382 05-04-2020 18:45:00 20.4 C 31 % 2.72 C
3383 05-04-2020 18:50:00 20.4 C 31 % 2.72 C
3384 05-04-2020 18:55:00 20.4 C 31 % 2.72 C
3385 05-04-2020 19:00:00 20.3 C 31 % 2.64 C
3386 05-04-2020 19:05:00 20.3 C 31 % 2.64 C
3387 05-04-2020 19:10:00 20.2 C 31 % 2.55 C
3388 05-04-2020 19:15:00 20.1 C 32 % 2.91 C
3389 05-04-2020 19:20:00 19.9 C 33 % 3.17 C
3390 05-04-2020 19:25:00 19.8 C 36 % 4.31 C
3391 05-04-2020 19:30:00 19.6 C 35 % 3.74 C
3392 05-04-2020 19:35:00 19.4 C 36 % 3.96 C
3393 05-04-2020 19:40:00 19.1 C 38 % 4.46 C
3394 05-04-2020 19:45:00 18.6 C 39 % 4.39 C
3395 05-04-2020 19:50:00 17.9 C 40 % 4.12 C
3396 05-04-2020 19:55:00 17.2 C 42 % 4.19 C
3397 05-04-2020 20:00:00 16.4 C 44 % 4.13 C
3398 05-04-2020 20:05:00 15.8 C 45 % 3.9 C
3399 05-04-2020 20:10:00 15.1 C 47 % 3.88 C
3400 05-04-2020 20:15:00 14.6 C 47 % 3.43 C
Sensor: Nr:Datum:Temp:Feuchte:Taupunkt:
Aussen-T/F 3401 05-04-2020 20:20:00 14.2 C 50 % 3.94 C
3402 05-04-2020 20:25:00 13.8 C 50 % 3.57 C
3403 05-04-2020 20:30:00 13.4 C 51 % 3.48 C
3404 05-04-2020 20:35:00 13.1 C 52 % 3.48 C
3405 05-04-2020 20:40:00 12.8 C 53 % 3.47 C
3406 05-04-2020 20:45:00 12.6 C 54 % 3.55 C
3407 05-04-2020 20:50:00 12.4 C 54 % 3.36 C
3408 05-04-2020 20:55:00 12.3 C 54 % 3.27 C
3409 05-04-2020 21:00:00 12.1 C 56 % 3.6 C
3410 05-04-2020 21:05:00 11.9 C 56 % 3.41 C
3411 05-04-2020 21:10:00 11.8 C 57 % 3.57 C
3412 05-04-2020 21:15:00 11.7 C 57 % 3.48 C
3413 05-04-2020 21:20:00 11.6 C 57 % 3.38 C
3414 05-04-2020 21:25:00 11.4 C 57 % 3.2 C
3415 05-04-2020 21:30:00 11.3 C 58 % 3.35 C
3416 05-04-2020 21:35:00 11.2 C 58 % 3.25 C
3417 05-04-2020 21:40:00 11.1 C 58 % 3.16 C
3418 05-04-2020 21:45:00 10.9 C 59 % 3.21 C
3419 05-04-2020 21:50:00 10.8 C 59 % 3.12 C
3420 05-04-2020 21:55:00 10.6 C 60 % 3.17 C
3421 05-04-2020 22:00:00 10.4 C 60 % 2.98 C
3422 05-04-2020 22:05:00 10.3 C 61 % 3.12 C
3423 05-04-2020 22:10:00 10.1 C 62 % 3.16 C
3424 05-04-2020 22:15:00 9.9 C 62 % 2.97 C
3425 05-04-2020 22:20:00 9.7 C 62 % 2.78 C
Sensor: Nr:Datum:Temp:Feuchte:Taupunkt:
Aussen-T/F 3426 05-04-2020 22:25:00 9.6 C 63 % 2.91 C
3427 05-04-2020 22:30:00 9.5 C 63 % 2.82 C
3428 05-04-2020 22:35:00 9.4 C 64 % 2.95 C
3429 05-04-2020 22:40:00 9.2 C 64 % 2.76 C
3430 05-04-2020 22:45:00 9.1 C 64 % 2.66 C
3431 05-04-2020 22:50:00 8.9 C 65 % 2.69 C
3432 05-04-2020 22:55:00 8.9 C 66 % 2.9 C
3433 05-04-2020 23:00:00 8.8 C 67 % 3.02 C
3434 05-04-2020 23:05:00 8.6 C 68 % 3.04 C
3435 05-04-2020 23:10:00 8.4 C 68 % 2.85 C
3436 05-04-2020 23:15:00 8.2 C 69 % 2.86 C
3437 05-04-2020 23:20:00 8.1 C 69 % 2.77 C
3438 05-04-2020 23:25:00 8 C 69 % 2.67 C
3439 05-04-2020 23:30:00 7.9 C 69 % 2.57 C
3440 05-04-2020 23:35:00 7.8 C 69 % 2.48 C
3441 05-04-2020 23:40:00 7.7 C 69 % 2.38 C
3442 05-04-2020 23:45:00 7.7 C 70 % 2.58 C
3443 05-04-2020 23:50:00 7.6 C 70 % 2.49 C
3444 05-04-2020 23:55:00 7.4 C 70 % 2.3 C
3445 06-04-2020 00:00:00 7.3 C 71 % 2.4 C
3446 06-04-2020 00:05:00 7.2 C 71 % 2.3 C
3447 06-04-2020 00:10:00 7.1 C 72 % 2.4 C
3448 06-04-2020 00:15:00 7.1 C 73 % 2.6 C
3449 06-04-2020 00:20:00 7.1 C 73 % 2.6 C
3450 06-04-2020 00:25:00 7 C 73 % 2.5 C
Sensor: Nr:Datum:Temp:Feuchte:Taupunkt:
Aussen-T/F 3451 06-04-2020 00:30:00 6.9 C 72 % 2.21 C
3452 06-04-2020 00:35:00 6.9 C 73 % 2.4 C
3453 06-04-2020 00:40:00 6.7 C 73 % 2.21 C
3454 06-04-2020 00:45:00 6.6 C 73 % 2.12 C
3455 06-04-2020 00:50:00 6.5 C 75 % 2.4 C
3456 06-04-2020 00:55:00 6.4 C 75 % 2.3 C
3457 06-04-2020 01:00:00 6.3 C 76 % 2.39 C
3458 06-04-2020 01:05:00 6.2 C 76 % 2.29 C
3459 06-04-2020 01:10:00 6.2 C 77 % 2.48 C
3460 06-04-2020 01:15:00 6.1 C 76 % 2.2 C
3461 06-04-2020 01:20:00 6 C 77 % 2.28 C
3462 06-04-2020 01:25:00 5.9 C 77 % 2.19 C
3463 06-04-2020 01:30:00 5.8 C 77 % 2.09 C
3464 06-04-2020 01:35:00 5.7 C 78 % 2.17 C
3465 06-04-2020 01:40:00 5.6 C 78 % 2.07 C
3466 06-04-2020 01:45:00 5.5 C 79 % 2.16 C
3467 06-04-2020 01:50:00 5.4 C 79 % 2.06 C
3468 06-04-2020 01:55:00 5.4 C 79 % 2.06 C
3469 06-04-2020 02:00:00 5.4 C 80 % 2.23 C
3470 06-04-2020 02:05:00 5.3 C 79 % 1.96 C
3471 06-04-2020 02:10:00 5.1 C 80 % 1.94 C
3472 06-04-2020 02:15:00 5 C 81 % 2.02 C
3473 06-04-2020 02:20:00 5 C 81 % 2.02 C
3474 06-04-2020 02:25:00 4.9 C 80 % 1.75 C
3475 06-04-2020 02:30:00 4.9 C 81 % 1.92 C
Sensor: Nr:Datum:Temp:Feuchte:Taupunkt:
Aussen-T/F 3476 06-04-2020 02:35:00 4.8 C 81 % 1.82 C
3477 06-04-2020 02:40:00 4.8 C 81 % 1.82 C
3478 06-04-2020 02:45:00 4.8 C 81 % 1.82 C
3479 06-04-2020 02:50:00 4.7 C 81 % 1.73 C
3480 06-04-2020 02:55:00 4.6 C 81 % 1.63 C
3481 06-04-2020 03:00:00 4.4 C 82 % 1.6 C
3482 06-04-2020 03:05:00 4.4 C 82 % 1.6 C
3483 06-04-2020 03:10:00 4.3 C 82 % 1.51 C
3484 06-04-2020 03:15:00 4.3 C 82 % 1.51 C
3485 06-04-2020 03:20:00 4.2 C 83 % 1.58 C
3486 06-04-2020 03:25:00 4.2 C 83 % 1.58 C
3487 06-04-2020 03:30:00 4.2 C 83 % 1.58 C
3488 06-04-2020 03:35:00 4.1 C 83 % 1.48 C
3489 06-04-2020 03:40:00 4.1 C 83 % 1.48 C
3490 06-04-2020 03:45:00 4 C 83 % 1.38 C
3491 06-04-2020 03:50:00 3.9 C 83 % 1.28 C
3492 06-04-2020 03:55:00 3.9 C 84 % 1.45 C
3493 06-04-2020 04:00:00 3.8 C 84 % 1.35 C
3494 06-04-2020 04:05:00 3.8 C 84 % 1.35 C
3495 06-04-2020 04:10:00 3.8 C 84 % 1.35 C
3496 06-04-2020 04:15:00 3.8 C 84 % 1.35 C
3497 06-04-2020 04:20:00 3.8 C 84 % 1.35 C
3498 06-04-2020 04:25:00 3.8 C 84 % 1.35 C
3499 06-04-2020 04:30:00 3.7 C 84 % 1.25 C
3500 06-04-2020 04:35:00 3.6 C 84 % 1.16 C
Sensor: Nr:Datum:Temp:Feuchte:Taupunkt:
Aussen-T/F 3501 06-04-2020 04:40:00 3.5 C 85 % 1.22 C
3502 06-04-2020 04:45:00 3.4 C 85 % 1.12 C
3503 06-04-2020 04:50:00 3.3 C 85 % 1.03 C
3504 06-04-2020 04:55:00 3.2 C 86 % 1.09 C
3505 06-04-2020 05:00:00 3.2 C 86 % 1.09 C
3506 06-04-2020 05:05:00 3.2 C 86 % 1.09 C
3507 06-04-2020 05:10:00 3.2 C 86 % 1.09 C
3508 06-04-2020 05:15:00 3.2 C 86 % 1.09 C
3509 06-04-2020 05:20:00 3.1 C 86 % 0.99 C
3510 06-04-2020 05:25:00 3 C 86 % 0.89 C
3511 06-04-2020 05:30:00 2.9 C 86 % 0.8 C
3512 06-04-2020 05:35:00 2.9 C 87 % 0.96 C
3513 06-04-2020 05:40:00 2.9 C 87 % 0.96 C
3514 06-04-2020 05:45:00 2.8 C 87 % 0.86 C
3515 06-04-2020 05:50:00 2.8 C 87 % 0.86 C
3516 06-04-2020 05:55:00 2.7 C 87 % 0.76 C
3517 06-04-2020 06:00:00 2.6 C 87 % 0.66 C
3518 06-04-2020 06:05:00 2.6 C 88 % 0.82 C
3519 06-04-2020 06:10:00 2.4 C 88 % 0.62 C
3520 06-04-2020 06:15:00 2.4 C 88 % 0.62 C
3521 06-04-2020 06:20:00 2.3 C 88 % 0.52 C
3522 06-04-2020 06:25:00 2.2 C 88 % 0.42 C
3523 06-04-2020 06:30:00 2.2 C 89 % 0.58 C
3524 06-04-2020 06:35:00 2.1 C 89 % 0.48 C
3525 06-04-2020 06:40:00 2.1 C 89 % 0.48 C
Sensor: Nr:Datum:Temp:Feuchte:Taupunkt:
Aussen-T/F 3526 06-04-2020 06:45:00 2.1 C 89 % 0.48 C
3527 06-04-2020 06:50:00 2.1 C 89 % 0.48 C
3528 06-04-2020 06:55:00 2.1 C 89 % 0.48 C
3529 06-04-2020 07:00:00 2.1 C 90 % 0.64 C
3530 06-04-2020 07:05:00 2.2 C 90 % 0.73 C
3531 06-04-2020 07:10:00 2.2 C 90 % 0.73 C
3532 06-04-2020 07:15:00 2.3 C 90 % 0.83 C
3533 06-04-2020 07:20:00 2.4 C 91 % 1.08 C
3534 06-04-2020 07:25:00 2.4 C 90 % 0.93 C
3535 06-04-2020 07:30:00 2.4 C 90 % 0.93 C
3536 06-04-2020 07:35:00 2.4 C 90 % 0.93 C
3537 06-04-2020 07:40:00 2.4 C 90 % 0.93 C
3538 06-04-2020 07:45:00 2.4 C 90 % 0.93 C
3539 06-04-2020 07:50:00 2.6 C 91 % 1.28 C
3540 06-04-2020 07:55:00 2.7 C 90 % 1.23 C
3541 06-04-2020 08:00:00 2.6 C 90 % 1.13 C
3542 06-04-2020 08:05:00 2.7 C 90 % 1.23 C
3543 06-04-2020 08:10:00 2.7 C 91 % 1.38 C
3544 06-04-2020 08:15:00 2.8 C 91 % 1.48 C
3545 06-04-2020 08:20:00 2.9 C 91 % 1.58 C
3546 06-04-2020 08:25:00 3.1 C 91 % 1.78 C
3547 06-04-2020 08:30:00 3.4 C 90 % 1.92 C
3548 06-04-2020 08:35:00 3.6 C 90 % 2.12 C
3549 06-04-2020 08:40:00 3.7 C 89 % 2.06 C
3550 06-04-2020 08:45:00 3.8 C 89 % 2.16 C
Sensor: Nr:Datum:Temp:Feuchte:Taupunkt:
Aussen-T/F 3551 06-04-2020 08:50:00 3.9 C 89 % 2.26 C
3552 06-04-2020 08:55:00 3.9 C 88 % 2.1 C
3553 06-04-2020 09:00:00 3.9 C 88 % 2.1 C
3554 06-04-2020 09:05:00 4 C 88 % 2.2 C
3555 06-04-2020 09:10:00 4.1 C 88 % 2.3 C
3556 06-04-2020 09:15:00 4.2 C 88 % 2.39 C
3557 06-04-2020 09:20:00 4.2 C 88 % 2.39 C
3558 06-04-2020 09:25:00 4.3 C 88 % 2.49 C
3559 06-04-2020 09:30:00 4.4 C 88 % 2.59 C
3560 06-04-2020 09:35:00 4.6 C 88 % 2.79 C
3561 06-04-2020 09:40:00 4.8 C 88 % 2.99 C
3562 06-04-2020 09:45:00 5 C 88 % 3.18 C
3563 06-04-2020 09:50:00 5.2 C 88 % 3.38 C
3564 06-04-2020 09:55:00 5.3 C 88 % 3.48 C
3565 06-04-2020 10:00:00 5.6 C 87 % 3.61 C
3566 06-04-2020 10:05:00 5.9 C 86 % 3.74 C
3567 06-04-2020 10:10:00 6.2 C 85 % 3.87 C
3568 06-04-2020 10:15:00 6.4 C 85 % 4.07 C
3569 06-04-2020 10:20:00 6.7 C 84 % 4.19 C
3570 06-04-2020 10:25:00 7.1 C 83 % 4.41 C
3571 06-04-2020 10:30:00 7.4 C 82 % 4.53 C
3572 06-04-2020 10:35:00 8 C 80 % 4.77 C
3573 06-04-2020 10:40:00 8.4 C 78 % 4.79 C
3574 06-04-2020 10:45:00 8.8 C 77 % 5 C
3575 06-04-2020 10:50:00 9.4 C 76 % 5.39 C
Sensor: Nr:Datum:Temp:Feuchte:Taupunkt:
Aussen-T/F 3576 06-04-2020 10:55:00 9.9 C 73 % 5.29 C
3577 06-04-2020 11:00:00 10.5 C 72 % 5.67 C
3578 06-04-2020 11:05:00 11.2 C 68 % 5.52 C
3579 06-04-2020 11:10:00 11.7 C 66 % 5.57 C
3580 06-04-2020 11:15:00 12.3 C 67 % 6.36 C
3581 06-04-2020 11:20:00 12.7 C 62 % 5.62 C
3582 06-04-2020 11:25:00 13.3 C 56 % 4.72 C
3583 06-04-2020 11:30:00 14.2 C 54 % 5.04 C
3584 06-04-2020 11:35:00 15.3 C 49 % 4.66 C
3585 06-04-2020 11:40:00 16.1 C 45 % 4.18 C
3586 06-04-2020 11:45:00 16.7 C 42 % 3.74 C
3587 06-04-2020 11:50:00 17.1 C 43 % 4.43 C
3588 06-04-2020 11:55:00 17.3 C 41 % 3.94 C
3589 06-04-2020 12:00:00 17.6 C 40 % 3.86 C
3590 06-04-2020 12:05:00 17.9 C 38 % 3.4 C
3591 06-04-2020 12:10:00 18.1 C 38 % 3.57 C
3592 06-04-2020 12:15:00 18.3 C 37 % 3.38 C
3593 06-04-2020 12:20:00 18.6 C 38 % 4.02 C
3594 06-04-2020 12:25:00 18.7 C 36 % 3.34 C
3595 06-04-2020 12:30:00 18.9 C 35 % 3.12 C
3596 06-04-2020 12:35:00 19.1 C 35 % 3.3 C
3597 06-04-2020 12:40:00 19.2 C 35 % 3.38 C
3598 06-04-2020 12:45:00 19.3 C 35 % 3.47 C
3599 06-04-2020 12:50:00 19.4 C 35 % 3.56 C
3600 06-04-2020 12:55:00 19.4 C 36 % 3.96 C
Sensor: Nr:Datum:Temp:Feuchte:Taupunkt:
Aussen-T/F 3601 06-04-2020 13:00:00 19.6 C 34 % 3.33 C
3602 06-04-2020 13:05:00 19.7 C 35 % 3.82 C
3603 06-04-2020 13:10:00 19.8 C 35 % 3.91 C
3604 06-04-2020 13:15:00 19.9 C 34 % 3.59 C
3605 06-04-2020 13:20:00 20.1 C 34 % 3.77 C
3606 06-04-2020 13:25:00 20.2 C 34 % 3.85 C
3607 06-04-2020 13:30:00 20.2 C 35 % 4.26 C
3608 06-04-2020 13:35:00 20.3 C 35 % 4.35 C
3609 06-04-2020 13:40:00 20.4 C 36 % 4.84 C
3610 06-04-2020 13:45:00 20.5 C 36 % 4.93 C
3611 06-04-2020 13:50:00 20.7 C 34 % 4.29 C
3612 06-04-2020 13:55:00 20.8 C 34 % 4.38 C
3613 06-04-2020 14:00:00 21 C 34 % 4.55 C
3614 06-04-2020 14:05:00 21.2 C 34 % 4.73 C
3615 06-04-2020 14:10:00 21.2 C 33 % 4.3 C
3616 06-04-2020 14:15:00 21.3 C 35 % 5.23 C
3617 06-04-2020 14:20:00 21.5 C 32 % 4.13 C
3618 06-04-2020 14:25:00 21.7 C 32 % 4.3 C
3619 06-04-2020 14:30:00 21.9 C 33 % 4.92 C
3620 06-04-2020 14:35:00 22.2 C 32 % 4.74 C
3621 06-04-2020 14:40:00 22.4 C 30 % 3.99 C
3622 06-04-2020 14:45:00 22.6 C 30 % 4.16 C
3623 06-04-2020 14:50:00 22.6 C 28 % 3.19 C
3624 06-04-2020 14:55:00 22.7 C 25 % 1.68 C
3625 06-04-2020 15:00:00 22.8 C 25 % 1.77 C
Sensor: Nr:Datum:Temp:Feuchte:Taupunkt:
Aussen-T/F 3626 06-04-2020 15:05:00 22.9 C 23 % 0.69 C
3627 06-04-2020 15:10:00 22.8 C 24 % 1.2 C
3628 06-04-2020 15:15:00 22.7 C 25 % 1.68 C
3629 06-04-2020 15:20:00 22.6 C 26 % 2.14 C
3630 06-04-2020 15:25:00 22.6 C 26 % 2.14 C
3631 06-04-2020 15:30:00 22.6 C 24 % 1.03 C
3632 06-04-2020 15:35:00 22.6 C 25 % 1.6 C
3633 06-04-2020 15:40:00 22.6 C 25 % 1.6 C
3634 06-04-2020 15:45:00 22.6 C 25 % 1.6 C
3635 06-04-2020 15:50:00 22.6 C 25 % 1.6 C
3636 06-04-2020 15:55:00 22.8 C 26 % 2.31 C
3637 06-04-2020 16:00:00 23 C 26 % 2.48 C
3638 06-04-2020 16:05:00 23.2 C 26 % 2.65 C
3639 06-04-2020 16:10:00 23.4 C 25 % 2.27 C
3640 06-04-2020 16:15:00 23.6 C 25 % 2.44 C
3641 06-04-2020 16:20:00 23.8 C 24 % 2.04 C
3642 06-04-2020 16:25:00 23.8 C 23 % 1.44 C
3643 06-04-2020 16:30:00 23.9 C 26 % 3.25 C
3644 06-04-2020 16:35:00 23.9 C 26 % 3.25 C
3645 06-04-2020 16:40:00 24.1 C 27 % 3.95 C
3646 06-04-2020 16:45:00 24.3 C 26 % 3.59 C
3647 06-04-2020 16:50:00 24.3 C 26 % 3.59 C
3648 06-04-2020 16:55:00 24.1 C 28 % 4.47 C
3649 06-04-2020 17:00:00 23.8 C 27 % 3.7 C
3650 06-04-2020 17:05:00 23.8 C 28 % 4.21 C
Sensor: Nr:Datum:Temp:Feuchte:Taupunkt:
Aussen-T/F 3651 06-04-2020 17:10:00 23.6 C 27 % 3.53 C
3652 06-04-2020 17:15:00 23.7 C 28 % 4.13 C
3653 06-04-2020 17:20:00 23.8 C 28 % 4.21 C
3654 06-04-2020 17:25:00 23.9 C 26 % 3.25 C
3655 06-04-2020 17:30:00 23.9 C 27 % 3.78 C
3656 06-04-2020 17:35:00 23.8 C 26 % 3.16 C
3657 06-04-2020 17:40:00 23.7 C 27 % 3.61 C
3658 06-04-2020 17:45:00 23.9 C 28 % 4.3 C
3659 06-04-2020 17:50:00 24.1 C 26 % 3.42 C
3660 06-04-2020 17:55:00 23.9 C 26 % 3.25 C
3661 06-04-2020 18:00:00 23.8 C 27 % 3.7 C
3662 06-04-2020 18:05:00 23.7 C 26 % 3.08 C
3663 06-04-2020 18:10:00 23.7 C 26 % 3.08 C
3664 06-04-2020 18:15:00 23.4 C 26 % 2.82 C
3665 06-04-2020 18:20:00 23.5 C 27 % 3.44 C
3666 06-04-2020 18:25:00 23.6 C 26 % 2.99 C
3667 06-04-2020 18:30:00 23.5 C 26 % 2.91 C
3668 06-04-2020 18:35:00 23.4 C 27 % 3.35 C
3669 06-04-2020 18:40:00 23.3 C 26 % 2.74 C
3670 06-04-2020 18:45:00 23.3 C 26 % 2.74 C
3671 06-04-2020 18:50:00 23.2 C 27 % 3.18 C
3672 06-04-2020 18:55:00 23.1 C 27 % 3.1 C
3673 06-04-2020 19:00:00 22.9 C 27 % 2.93 C
3674 06-04-2020 19:05:00 22.8 C 28 % 3.36 C
3675 06-04-2020 19:10:00 22.7 C 29 % 3.77 C
Sensor: Nr:Datum:Temp:Feuchte:Taupunkt:
Aussen-T/F 3676 06-04-2020 19:15:00 22.6 C 31 % 4.63 C
3677 06-04-2020 19:20:00 22.3 C 31 % 4.37 C
3678 06-04-2020 19:25:00 22 C 31 % 4.11 C
3679 06-04-2020 19:30:00 21.7 C 31 % 3.85 C
3680 06-04-2020 19:35:00 21.3 C 34 % 4.82 C
3681 06-04-2020 19:40:00 20.8 C 36 % 5.2 C
3682 06-04-2020 19:45:00 20.4 C 35 % 4.44 C
3683 06-04-2020 19:50:00 20 C 37 % 4.88 C
3684 06-04-2020 19:55:00 19.5 C 38 % 4.82 C
3685 06-04-2020 20:00:00 18.9 C 40 % 5.02 C
3686 06-04-2020 20:05:00 18.2 C 41 % 4.75 C
3687 06-04-2020 20:10:00 17.6 C 43 % 4.89 C
3688 06-04-2020 20:15:00 17.1 C 45 % 5.08 C
3689 06-04-2020 20:20:00 16.6 C 45 % 4.63 C
3690 06-04-2020 20:25:00 16.2 C 46 % 4.58 C
3691 06-04-2020 20:30:00 15.8 C 48 % 4.82 C
3692 06-04-2020 20:35:00 15.5 C 48 % 4.55 C
3693 06-04-2020 20:40:00 15.3 C 50 % 4.95 C
3694 06-04-2020 20:45:00 15 C 50 % 4.67 C
3695 06-04-2020 20:50:00 14.7 C 52 % 4.96 C
3696 06-04-2020 20:55:00 14.5 C 53 % 5.05 C
3697 06-04-2020 21:00:00 14.2 C 53 % 4.77 C
3698 06-04-2020 21:05:00 14 C 54 % 4.85 C
3699 06-04-2020 21:10:00 13.9 C 54 % 4.76 C
3700 06-04-2020 21:15:00 13.7 C 55 % 4.83 C
Sensor: Nr:Datum:Temp:Feuchte:Taupunkt:
Aussen-T/F 3701 06-04-2020 21:20:00 13.6 C 56 % 5 C
3702 06-04-2020 21:25:00 13.3 C 56 % 4.72 C
3703 06-04-2020 21:30:00 13.2 C 57 % 4.88 C
3704 06-04-2020 21:35:00 12.9 C 57 % 4.6 C
3705 06-04-2020 21:40:00 12.8 C 58 % 4.75 C
3706 06-04-2020 21:45:00 12.6 C 57 % 4.32 C
3707 06-04-2020 21:50:00 12.3 C 58 % 4.28 C
3708 06-04-2020 21:55:00 12.1 C 59 % 4.34 C
3709 06-04-2020 22:00:00 12 C 60 % 4.49 C
3710 06-04-2020 22:05:00 11.9 C 60 % 4.39 C
3711 06-04-2020 22:10:00 11.8 C 62 % 4.77 C
3712 06-04-2020 22:15:00 11.6 C 62 % 4.58 C
3713 06-04-2020 22:20:00 11.3 C 62 % 4.29 C
3714 06-04-2020 22:25:00 11 C 63 % 4.24 C
3715 06-04-2020 22:30:00 10.8 C 64 % 4.27 C
3716 06-04-2020 22:35:00 10.7 C 64 % 4.18 C
3717 06-04-2020 22:40:00 10.6 C 65 % 4.3 C
3718 06-04-2020 22:45:00 10.4 C 64 % 3.89 C
3719 06-04-2020 22:50:00 10.4 C 64 % 3.89 C
3720 06-04-2020 22:55:00 10.3 C 65 % 4.02 C
3721 06-04-2020 23:00:00 10.2 C 65 % 3.92 C
3722 06-04-2020 23:05:00 10.2 C 65 % 3.92 C
3723 06-04-2020 23:10:00 10.1 C 65 % 3.83 C
3724 06-04-2020 23:15:00 10.1 C 64 % 3.61 C
3725 06-04-2020 23:20:00 10.1 C 65 % 3.83 C
Sensor: Nr:Datum:Temp:Feuchte:Taupunkt:
Aussen-T/F 3726 06-04-2020 23:25:00 10.1 C 65 % 3.83 C
3727 06-04-2020 23:30:00 10.1 C 65 % 3.83 C
3728 06-04-2020 23:35:00 9.9 C 65 % 3.64 C
3729 06-04-2020 23:40:00 9.8 C 65 % 3.54 C
3730 06-04-2020 23:45:00 9.8 C 66 % 3.76 C
3731 06-04-2020 23:50:00 9.8 C 67 % 3.97 C
3732 06-04-2020 23:55:00 9.9 C 68 % 4.28 C
3733 07-04-2020 00:00:00 10 C 68 % 4.38 C
3734 07-04-2020 00:05:00 10.1 C 68 % 4.47 C
3735 07-04-2020 00:10:00 10.1 C 69 % 4.68 C
3736 07-04-2020 00:15:00 9.8 C 69 % 4.39 C
3737 07-04-2020 00:20:00 9.6 C 70 % 4.41 C
3738 07-04-2020 00:25:00 9.4 C 70 % 4.21 C
3739 07-04-2020 00:30:00 9.3 C 70 % 4.12 C
3740 07-04-2020 00:35:00 9.3 C 70 % 4.12 C
3741 07-04-2020 00:40:00 9.3 C 70 % 4.12 C
3742 07-04-2020 00:45:00 9.3 C 70 % 4.12 C
3743 07-04-2020 00:50:00 9.3 C 70 % 4.12 C
3744 07-04-2020 00:55:00 9.3 C 71 % 4.32 C
3745 07-04-2020 01:00:00 9.2 C 71 % 4.22 C
3746 07-04-2020 01:05:00 9.2 C 72 % 4.42 C
3747 07-04-2020 01:10:00 9.2 C 72 % 4.42 C
3748 07-04-2020 01:15:00 9.3 C 72 % 4.52 C
3749 07-04-2020 01:20:00 9.4 C 71 % 4.42 C
3750 07-04-2020 01:25:00 9.6 C 72 % 4.81 C
Sensor: Nr:Datum:Temp:Feuchte:Taupunkt:
Aussen-T/F 3751 07-04-2020 01:30:00 9.7 C 71 % 4.7 C
3752 07-04-2020 01:35:00 9.8 C 70 % 4.6 C
3753 07-04-2020 01:40:00 10 C 73 % 5.39 C
3754 07-04-2020 01:45:00 10.2 C 71 % 5.18 C
3755 07-04-2020 01:50:00 10.3 C 71 % 5.28 C
3756 07-04-2020 01:55:00 10.3 C 70 % 5.08 C
3757 07-04-2020 02:00:00 10.3 C 70 % 5.08 C
3758 07-04-2020 02:05:00 10.1 C 71 % 5.09 C
3759 07-04-2020 02:10:00 9.9 C 71 % 4.9 C
3760 07-04-2020 02:15:00 9.8 C 71 % 4.8 C
3761 07-04-2020 02:20:00 9.6 C 72 % 4.81 C
3762 07-04-2020 02:25:00 9.3 C 73 % 4.72 C
3763 07-04-2020 02:30:00 9.1 C 74 % 4.72 C
3764 07-04-2020 02:35:00 8.9 C 74 % 4.53 C
3765 07-04-2020 02:40:00 8.8 C 75 % 4.62 C
3766 07-04-2020 02:45:00 8.6 C 75 % 4.43 C
3767 07-04-2020 02:50:00 8.3 C 76 % 4.33 C
3768 07-04-2020 02:55:00 8.2 C 77 % 4.42 C
3769 07-04-2020 03:00:00 8.2 C 78 % 4.6 C
3770 07-04-2020 03:05:00 8.1 C 78 % 4.5 C
3771 07-04-2020 03:10:00 8.1 C 79 % 4.68 C
3772 07-04-2020 03:15:00 8 C 79 % 4.59 C
3773 07-04-2020 03:20:00 8.1 C 80 % 4.86 C
3774 07-04-2020 03:25:00 8.1 C 81 % 5.04 C
3775 07-04-2020 03:30:00 8.2 C 80 % 4.96 C
Sensor: Nr:Datum:Temp:Feuchte:Taupunkt:
Aussen-T/F 3776 07-04-2020 03:35:00 8.2 C 80 % 4.96 C
3777 07-04-2020 03:40:00 8.2 C 80 % 4.96 C
3778 07-04-2020 03:45:00 8.2 C 80 % 4.96 C
3779 07-04-2020 03:50:00 8.2 C 81 % 5.14 C
3780 07-04-2020 03:55:00 8.2 C 81 % 5.14 C
3781 07-04-2020 04:00:00 8.2 C 81 % 5.14 C
3782 07-04-2020 04:05:00 8.3 C 81 % 5.24 C
3783 07-04-2020 04:10:00 8.3 C 81 % 5.24 C
3784 07-04-2020 04:15:00 8.2 C 81 % 5.14 C
3785 07-04-2020 04:20:00 8.2 C 80 % 4.96 C
3786 07-04-2020 04:25:00 8.2 C 80 % 4.96 C
3787 07-04-2020 04:30:00 8.1 C 80 % 4.86 C
3788 07-04-2020 04:35:00 7.9 C 80 % 4.67 C
3789 07-04-2020 04:40:00 7.7 C 81 % 4.65 C
3790 07-04-2020 04:45:00 7.6 C 82 % 4.73 C
3791 07-04-2020 04:50:00 7.6 C 82 % 4.73 C
3792 07-04-2020 04:55:00 7.5 C 82 % 4.63 C
3793 07-04-2020 05:00:00 7.3 C 82 % 4.44 C
3794 07-04-2020 05:05:00 7.2 C 83 % 4.51 C
3795 07-04-2020 05:10:00 7.1 C 83 % 4.41 C
3796 07-04-2020 05:15:00 6.9 C 83 % 4.22 C
3797 07-04-2020 05:20:00 6.8 C 84 % 4.29 C
3798 07-04-2020 05:25:00 6.7 C 84 % 4.19 C
3799 07-04-2020 05:30:00 6.7 C 85 % 4.36 C
3800 07-04-2020 05:35:00 6.6 C 85 % 4.26 C
Sensor: Nr:Datum:Temp:Feuchte:Taupunkt:
Aussen-T/F 3801 07-04-2020 05:40:00 6.4 C 85 % 4.07 C
3802 07-04-2020 05:45:00 6.4 C 86 % 4.23 C
3803 07-04-2020 05:50:00 6.3 C 86 % 4.14 C
3804 07-04-2020 05:55:00 6.3 C 87 % 4.3 C
3805 07-04-2020 06:00:00 6.3 C 87 % 4.3 C
3806 07-04-2020 06:05:00 6.3 C 87 % 4.3 C
3807 07-04-2020 06:10:00 6.2 C 86 % 4.04 C
3808 07-04-2020 06:15:00 6.1 C 87 % 4.1 C
3809 07-04-2020 06:20:00 6.1 C 87 % 4.1 C
3810 07-04-2020 06:25:00 6.1 C 87 % 4.1 C
3811 07-04-2020 06:30:00 5.9 C 87 % 3.91 C
3812 07-04-2020 06:35:00 5.8 C 87 % 3.81 C
3813 07-04-2020 06:40:00 5.8 C 88 % 3.97 C
3814 07-04-2020 06:45:00 5.8 C 88 % 3.97 C
3815 07-04-2020 06:50:00 5.7 C 88 % 3.87 C
3816 07-04-2020 06:55:00 5.6 C 88 % 3.77 C
3817 07-04-2020 07:00:00 5.5 C 88 % 3.67 C
3818 07-04-2020 07:05:00 5.4 C 89 % 3.74 C
3819 07-04-2020 07:10:00 5.4 C 89 % 3.74 C
3820 07-04-2020 07:15:00 5.4 C 90 % 3.89 C
3821 07-04-2020 07:20:00 5.5 C 90 % 3.99 C
3822 07-04-2020 07:25:00 5.6 C 90 % 4.09 C
3823 07-04-2020 07:30:00 5.6 C 91 % 4.25 C
3824 07-04-2020 07:35:00 5.7 C 90 % 4.19 C
3825 07-04-2020 07:40:00 5.8 C 91 % 4.45 C
Sensor: Nr:Datum:Temp:Feuchte:Taupunkt:
Aussen-T/F 3826 07-04-2020 07:45:00 5.9 C 91 % 4.55 C
3827 07-04-2020 07:50:00 6 C 91 % 4.65 C
3828 07-04-2020 07:55:00 6.1 C 90 % 4.59 C
3829 07-04-2020 08:00:00 6.2 C 90 % 4.69 C
3830 07-04-2020 08:05:00 6.2 C 90 % 4.69 C
3831 07-04-2020 08:10:00 6.3 C 90 % 4.78 C
3832 07-04-2020 08:15:00 6.3 C 90 % 4.78 C
3833 07-04-2020 08:20:00 6.4 C 90 % 4.88 C
3834 07-04-2020 08:25:00 6.5 C 89 % 4.82 C
3835 07-04-2020 08:30:00 6.6 C 89 % 4.92 C
3836 07-04-2020 08:35:00 6.6 C 89 % 4.92 C
3837 07-04-2020 08:40:00 6.6 C 89 % 4.92 C
3838 07-04-2020 08:45:00 6.7 C 90 % 5.18 C
3839 07-04-2020 08:50:00 6.8 C 90 % 5.28 C
3840 07-04-2020 08:55:00 6.9 C 90 % 5.38 C
3841 07-04-2020 09:00:00 7.1 C 90 % 5.57 C
3842 07-04-2020 09:05:00 7.2 C 90 % 5.67 C
3843 07-04-2020 09:10:00 7.3 C 89 % 5.61 C
3844 07-04-2020 09:15:00 7.4 C 89 % 5.71 C
3845 07-04-2020 09:20:00 7.5 C 90 % 5.97 C
3846 07-04-2020 09:25:00 7.6 C 90 % 6.07 C
3847 07-04-2020 09:30:00 7.8 C 90 % 6.27 C
3848 07-04-2020 09:35:00 7.9 C 90 % 6.36 C
3849 07-04-2020 09:40:00 8.2 C 90 % 6.66 C
3850 07-04-2020 09:45:00 8.4 C 90 % 6.86 C
Sensor: Nr:Datum:Temp:Feuchte:Taupunkt:
Aussen-T/F 3851 07-04-2020 09:50:00 8.7 C 88 % 6.83 C
3852 07-04-2020 09:55:00 8.9 C 88 % 7.02 C
3853 07-04-2020 10:00:00 9.2 C 87 % 7.15 C
3854 07-04-2020 10:05:00 9.4 C 87 % 7.35 C
3855 07-04-2020 10:10:00 9.6 C 88 % 7.71 C
3856 07-04-2020 10:15:00 9.9 C 88 % 8.01 C
3857 07-04-2020 10:20:00 10.2 C 87 % 8.14 C
3858 07-04-2020 10:25:00 10.5 C 86 % 8.26 C
3859 07-04-2020 10:30:00 10.8 C 85 % 8.38 C
3860 07-04-2020 10:35:00 11.2 C 85 % 8.77 C
3861 07-04-2020 10:40:00 11.4 C 84 % 8.8 C
3862 07-04-2020 10:45:00 11.8 C 83 % 9.01 C
3863 07-04-2020 10:50:00 12.2 C 82 % 9.22 C
3864 07-04-2020 10:55:00 12.6 C 81 % 9.43 C
3865 07-04-2020 11:00:00 13 C 79 % 9.45 C
3866 07-04-2020 11:05:00 13.4 C 77 % 9.45 C
3867 07-04-2020 11:10:00 13.8 C 76 % 9.65 C
3868 07-04-2020 11:15:00 14.2 C 74 % 9.64 C
3869 07-04-2020 11:20:00 14.6 C 73 % 9.82 C
3870 07-04-2020 11:25:00 14.8 C 73 % 10.01 C
3871 07-04-2020 11:30:00 15.1 C 71 % 9.89 C
3872 07-04-2020 11:35:00 15.4 C 70 % 9.96 C
3873 07-04-2020 11:40:00 15.7 C 68 % 9.82 C
3874 07-04-2020 11:45:00 16.1 C 67 % 9.98 C
3875 07-04-2020 11:50:00 16.2 C 67 % 10.07 C
Sensor: Nr:Datum:Temp:Feuchte:Taupunkt:
Aussen-T/F 3876 07-04-2020 11:55:00 16.4 C 66 % 10.04 C
3877 07-04-2020 12:00:00 16.6 C 65 % 10 C
3878 07-04-2020 12:05:00 16.8 C 64 % 9.96 C
3879 07-04-2020 12:10:00 17.1 C 63 % 10.01 C
3880 07-04-2020 12:15:00 17.2 C 62 % 9.86 C
3881 07-04-2020 12:20:00 17.4 C 63 % 10.29 C
3882 07-04-2020 12:25:00 17.6 C 61 % 10 C
3883 07-04-2020 12:30:00 17.8 C 61 % 10.18 C
3884 07-04-2020 12:35:00 18 C 60 % 10.13 C
3885 07-04-2020 12:40:00 18.2 C 60 % 10.31 C
3886 07-04-2020 12:45:00 18.3 C 59 % 10.16 C
3887 07-04-2020 12:50:00 18.4 C 59 % 10.25 C
3888 07-04-2020 12:55:00 18.5 C 59 % 10.34 C
3889 07-04-2020 13:00:00 18.6 C 59 % 10.44 C
3890 07-04-2020 13:05:00 18.8 C 58 % 10.37 C
3891 07-04-2020 13:10:00 18.9 C 57 % 10.2 C
3892 07-04-2020 13:15:00 19.2 C 56 % 10.22 C
3893 07-04-2020 13:20:00 19.3 C 56 % 10.31 C
3894 07-04-2020 13:25:00 19.4